﻿<?xml version="1.0" encoding="UTF-8" standalone="no" ?>
<gpx xmlns="http://www.topografix.com/GPX/1/1" creator="CompeGPS" version="1.1" xmlns:xsi="http://www.w3.org/2001/XMLSchema-instance" xsi:schemaLocation="http://www.topografix.com/GPX/1/1 http://www.topografix.com/GPX/1/1/gpx.xsd http://www.garmin.com/xmlschemas/GpxExtensions/v3 http://www.garmin.com/xmlschemas/GpxExtensionsv3.xsd http://www.garmin.com/xmlschemas/TrackPointExtension/v1 http://www.garmin.com/xmlschemas/TrackPointExtensionv1.xsd" xmlns:gpxtpx="http://www.garmin.com/xmlschemas/TrackPointExtension/v1">
  <metadata>
    <link href="http://www.compegps.com">
      <text>CompeGPS TEAM, SL</text>
    </link>
    <time>2013-08-16T18:20:35Z</time>
    <bounds maxlat="42.783161" maxlon="1.405638" minlat="42.734650" minlon="1.386063"/>
  </metadata>
  <trk>
    <name>pique rouge</name>
    <trkseg>
      <trkpt lat="42.783105" lon="1.386063">
        <ele>1400.3</ele>
        <time>2013-08-14T06:12:52Z</time>
      </trkpt>
      <trkpt lat="42.783114" lon="1.386082">
        <ele>1400.8</ele>
        <time>2013-08-14T06:16:14Z</time>
      </trkpt>
      <trkpt lat="42.783109" lon="1.386185">
        <ele>1401.3</ele>
        <time>2013-08-14T06:17:13Z</time>
      </trkpt>
      <trkpt lat="42.783098" lon="1.386321">
        <ele>1405.6</ele>
        <time>2013-08-14T06:17:23Z</time>
      </trkpt>
      <trkpt lat="42.783088" lon="1.386447">
        <ele>1403.2</ele>
        <time>2013-08-14T06:17:33Z</time>
      </trkpt>
      <trkpt lat="42.783063" lon="1.386572">
        <ele>1403.7</ele>
        <time>2013-08-14T06:17:47Z</time>
      </trkpt>
      <trkpt lat="42.783093" lon="1.386715">
        <ele>1404.6</ele>
        <time>2013-08-14T06:17:58Z</time>
      </trkpt>
      <trkpt lat="42.783081" lon="1.386860">
        <ele>1405.6</ele>
        <time>2013-08-14T06:18:09Z</time>
      </trkpt>
      <trkpt lat="42.783091" lon="1.387027">
        <ele>1407.0</ele>
        <time>2013-08-14T06:18:23Z</time>
      </trkpt>
      <trkpt lat="42.783078" lon="1.387193">
        <ele>1409.4</ele>
        <time>2013-08-14T06:18:38Z</time>
      </trkpt>
      <trkpt lat="42.783035" lon="1.387367">
        <ele>1410.4</ele>
        <time>2013-08-14T06:18:54Z</time>
      </trkpt>
      <trkpt lat="42.783009" lon="1.387537">
        <ele>1411.8</ele>
        <time>2013-08-14T06:19:07Z</time>
      </trkpt>
      <trkpt lat="42.782977" lon="1.387684">
        <ele>1412.8</ele>
        <time>2013-08-14T06:19:19Z</time>
      </trkpt>
      <trkpt lat="42.782947" lon="1.387824">
        <ele>1414.7</ele>
        <time>2013-08-14T06:19:30Z</time>
      </trkpt>
      <trkpt lat="42.782916" lon="1.387960">
        <ele>1416.2</ele>
        <time>2013-08-14T06:19:42Z</time>
      </trkpt>
      <trkpt lat="42.782870" lon="1.388094">
        <ele>1417.6</ele>
        <time>2013-08-14T06:19:53Z</time>
      </trkpt>
      <trkpt lat="42.782804" lon="1.388201">
        <ele>1419.0</ele>
        <time>2013-08-14T06:20:05Z</time>
      </trkpt>
      <trkpt lat="42.782690" lon="1.388289">
        <ele>1420.5</ele>
        <time>2013-08-14T06:20:18Z</time>
      </trkpt>
      <trkpt lat="42.782583" lon="1.388330">
        <ele>1421.9</ele>
        <time>2013-08-14T06:20:30Z</time>
      </trkpt>
      <trkpt lat="42.782473" lon="1.388361">
        <ele>1423.4</ele>
        <time>2013-08-14T06:20:45Z</time>
      </trkpt>
      <trkpt lat="42.782385" lon="1.388384">
        <ele>1424.8</ele>
        <time>2013-08-14T06:20:59Z</time>
      </trkpt>
      <trkpt lat="42.782280" lon="1.388419">
        <ele>1425.8</ele>
        <time>2013-08-14T06:21:10Z</time>
      </trkpt>
      <trkpt lat="42.782192" lon="1.388463">
        <ele>1426.7</ele>
        <time>2013-08-14T06:21:20Z</time>
      </trkpt>
      <trkpt lat="42.782117" lon="1.388545">
        <ele>1428.2</ele>
        <time>2013-08-14T06:21:30Z</time>
      </trkpt>
      <trkpt lat="42.782085" lon="1.388668">
        <ele>1428.7</ele>
        <time>2013-08-14T06:21:40Z</time>
      </trkpt>
      <trkpt lat="42.782035" lon="1.388780">
        <ele>1430.1</ele>
        <time>2013-08-14T06:21:50Z</time>
      </trkpt>
      <trkpt lat="42.781996" lon="1.388903">
        <ele>1431.1</ele>
        <time>2013-08-14T06:22:00Z</time>
      </trkpt>
      <trkpt lat="42.781924" lon="1.388994">
        <ele>1432.0</ele>
        <time>2013-08-14T06:22:09Z</time>
      </trkpt>
      <trkpt lat="42.781854" lon="1.389077">
        <ele>1433.0</ele>
        <time>2013-08-14T06:22:18Z</time>
      </trkpt>
      <trkpt lat="42.781770" lon="1.389144">
        <ele>1433.5</ele>
        <time>2013-08-14T06:22:28Z</time>
      </trkpt>
      <trkpt lat="42.781688" lon="1.389211">
        <ele>1434.9</ele>
        <time>2013-08-14T06:22:38Z</time>
      </trkpt>
      <trkpt lat="42.781600" lon="1.389305">
        <ele>1435.9</ele>
        <time>2013-08-14T06:22:49Z</time>
      </trkpt>
      <trkpt lat="42.781518" lon="1.389392">
        <ele>1437.8</ele>
        <time>2013-08-14T06:22:59Z</time>
      </trkpt>
      <trkpt lat="42.781429" lon="1.389468">
        <ele>1438.3</ele>
        <time>2013-08-14T06:23:09Z</time>
      </trkpt>
      <trkpt lat="42.781349" lon="1.389541">
        <ele>1439.2</ele>
        <time>2013-08-14T06:23:17Z</time>
      </trkpt>
      <trkpt lat="42.781276" lon="1.389611">
        <ele>1440.2</ele>
        <time>2013-08-14T06:23:25Z</time>
      </trkpt>
      <trkpt lat="42.781195" lon="1.389689">
        <ele>1441.2</ele>
        <time>2013-08-14T06:23:34Z</time>
      </trkpt>
      <trkpt lat="42.781122" lon="1.389756">
        <ele>1442.1</ele>
        <time>2013-08-14T06:23:43Z</time>
      </trkpt>
      <trkpt lat="42.781040" lon="1.389825">
        <ele>1443.6</ele>
        <time>2013-08-14T06:23:52Z</time>
      </trkpt>
      <trkpt lat="42.780981" lon="1.389904">
        <ele>1444.5</ele>
        <time>2013-08-14T06:24:06Z</time>
      </trkpt>
      <trkpt lat="42.780919" lon="1.390010">
        <ele>1446.4</ele>
        <time>2013-08-14T06:24:18Z</time>
      </trkpt>
      <trkpt lat="42.780866" lon="1.390109">
        <ele>1449.3</ele>
        <time>2013-08-14T06:24:31Z</time>
      </trkpt>
      <trkpt lat="42.780811" lon="1.390189">
        <ele>1452.2</ele>
        <time>2013-08-14T06:24:46Z</time>
      </trkpt>
      <trkpt lat="42.780721" lon="1.390257">
        <ele>1455.6</ele>
        <time>2013-08-14T06:25:02Z</time>
      </trkpt>
      <trkpt lat="42.780624" lon="1.390290">
        <ele>1456.5</ele>
        <time>2013-08-14T06:25:14Z</time>
      </trkpt>
      <trkpt lat="42.780525" lon="1.390257">
        <ele>1456.5</ele>
        <time>2013-08-14T06:25:33Z</time>
      </trkpt>
      <trkpt lat="42.780450" lon="1.390239">
        <ele>1458.9</ele>
        <time>2013-08-14T06:25:46Z</time>
      </trkpt>
      <trkpt lat="42.780353" lon="1.390251">
        <ele>1460.4</ele>
        <time>2013-08-14T06:25:58Z</time>
      </trkpt>
      <trkpt lat="42.780269" lon="1.390295">
        <ele>1460.4</ele>
        <time>2013-08-14T06:26:08Z</time>
      </trkpt>
      <trkpt lat="42.780165" lon="1.390344">
        <ele>1460.9</ele>
        <time>2013-08-14T06:26:18Z</time>
      </trkpt>
      <trkpt lat="42.780094" lon="1.390441">
        <ele>1463.3</ele>
        <time>2013-08-14T06:26:29Z</time>
      </trkpt>
      <trkpt lat="42.780031" lon="1.390541">
        <ele>1465.7</ele>
        <time>2013-08-14T06:26:41Z</time>
      </trkpt>
      <trkpt lat="42.779942" lon="1.390598">
        <ele>1468.1</ele>
        <time>2013-08-14T06:26:53Z</time>
      </trkpt>
      <trkpt lat="42.779875" lon="1.390696">
        <ele>1469.0</ele>
        <time>2013-08-14T06:27:04Z</time>
      </trkpt>
      <trkpt lat="42.779786" lon="1.390714">
        <ele>1471.9</ele>
        <time>2013-08-14T06:27:15Z</time>
      </trkpt>
      <trkpt lat="42.779684" lon="1.390698">
        <ele>1473.8</ele>
        <time>2013-08-14T06:27:26Z</time>
      </trkpt>
      <trkpt lat="42.779607" lon="1.390622">
        <ele>1476.2</ele>
        <time>2013-08-14T06:27:38Z</time>
      </trkpt>
      <trkpt lat="42.779549" lon="1.390520">
        <ele>1478.7</ele>
        <time>2013-08-14T06:27:49Z</time>
      </trkpt>
      <trkpt lat="42.779452" lon="1.390499">
        <ele>1481.1</ele>
        <time>2013-08-14T06:28:03Z</time>
      </trkpt>
      <trkpt lat="42.779362" lon="1.390484">
        <ele>1483.4</ele>
        <time>2013-08-14T06:28:16Z</time>
      </trkpt>
      <trkpt lat="42.779306" lon="1.390382">
        <ele>1484.9</ele>
        <time>2013-08-14T06:28:28Z</time>
      </trkpt>
      <trkpt lat="42.779234" lon="1.390309">
        <ele>1487.3</ele>
        <time>2013-08-14T06:28:41Z</time>
      </trkpt>
      <trkpt lat="42.779160" lon="1.390218">
        <ele>1489.2</ele>
        <time>2013-08-14T06:28:55Z</time>
      </trkpt>
      <trkpt lat="42.779070" lon="1.390166">
        <ele>1491.6</ele>
        <time>2013-08-14T06:29:07Z</time>
      </trkpt>
      <trkpt lat="42.778968" lon="1.390124">
        <ele>1494.0</ele>
        <time>2013-08-14T06:29:17Z</time>
      </trkpt>
      <trkpt lat="42.778831" lon="1.389972">
        <ele>1499.3</ele>
        <time>2013-08-14T06:29:47Z</time>
      </trkpt>
      <trkpt lat="42.778776" lon="1.389829">
        <ele>1504.1</ele>
        <time>2013-08-14T06:30:14Z</time>
      </trkpt>
      <trkpt lat="42.778686" lon="1.389687">
        <ele>1507.5</ele>
        <time>2013-08-14T06:30:37Z</time>
      </trkpt>
      <trkpt lat="42.778588" lon="1.389531">
        <ele>1510.4</ele>
        <time>2013-08-14T06:30:55Z</time>
      </trkpt>
      <trkpt lat="42.778501" lon="1.389351">
        <ele>1513.2</ele>
        <time>2013-08-14T06:31:15Z</time>
      </trkpt>
      <trkpt lat="42.778376" lon="1.389316">
        <ele>1517.6</ele>
        <time>2013-08-14T06:31:36Z</time>
      </trkpt>
      <trkpt lat="42.778238" lon="1.389290">
        <ele>1521.4</ele>
        <time>2013-08-14T06:31:54Z</time>
      </trkpt>
      <trkpt lat="42.778135" lon="1.389277">
        <ele>1523.3</ele>
        <time>2013-08-14T06:32:08Z</time>
      </trkpt>
      <trkpt lat="42.778036" lon="1.389260">
        <ele>1526.2</ele>
        <time>2013-08-14T06:32:21Z</time>
      </trkpt>
      <trkpt lat="42.777940" lon="1.389302">
        <ele>1529.6</ele>
        <time>2013-08-14T06:32:39Z</time>
      </trkpt>
      <trkpt lat="42.777837" lon="1.389372">
        <ele>1533.4</ele>
        <time>2013-08-14T06:32:58Z</time>
      </trkpt>
      <trkpt lat="42.777733" lon="1.389442">
        <ele>1537.3</ele>
        <time>2013-08-14T06:33:15Z</time>
      </trkpt>
      <trkpt lat="42.777641" lon="1.389530">
        <ele>1541.6</ele>
        <time>2013-08-14T06:33:36Z</time>
      </trkpt>
      <trkpt lat="42.777688" lon="1.389565">
        <ele>1544.5</ele>
        <time>2013-08-14T06:33:55Z</time>
      </trkpt>
      <trkpt lat="42.777624" lon="1.389683">
        <ele>1547.9</ele>
        <time>2013-08-14T06:34:12Z</time>
      </trkpt>
      <trkpt lat="42.777577" lon="1.389805">
        <ele>1549.3</ele>
        <time>2013-08-14T06:34:26Z</time>
      </trkpt>
      <trkpt lat="42.777554" lon="1.389928">
        <ele>1550.7</ele>
        <time>2013-08-14T06:34:41Z</time>
      </trkpt>
      <trkpt lat="42.777544" lon="1.390099">
        <ele>1554.1</ele>
        <time>2013-08-14T06:34:59Z</time>
      </trkpt>
      <trkpt lat="42.777560" lon="1.390277">
        <ele>1557.0</ele>
        <time>2013-08-14T06:35:15Z</time>
      </trkpt>
      <trkpt lat="42.777553" lon="1.390443">
        <ele>1558.9</ele>
        <time>2013-08-14T06:35:28Z</time>
      </trkpt>
      <trkpt lat="42.777536" lon="1.390589">
        <ele>1559.4</ele>
        <time>2013-08-14T06:35:41Z</time>
      </trkpt>
      <trkpt lat="42.777525" lon="1.390738">
        <ele>1561.3</ele>
        <time>2013-08-14T06:35:55Z</time>
      </trkpt>
      <trkpt lat="42.777505" lon="1.390866">
        <ele>1563.7</ele>
        <time>2013-08-14T06:36:09Z</time>
      </trkpt>
      <trkpt lat="42.777493" lon="1.391006">
        <ele>1566.1</ele>
        <time>2013-08-14T06:36:23Z</time>
      </trkpt>
      <trkpt lat="42.777462" lon="1.391149">
        <ele>1566.1</ele>
        <time>2013-08-14T06:36:35Z</time>
      </trkpt>
      <trkpt lat="42.777421" lon="1.391278">
        <ele>1567.1</ele>
        <time>2013-08-14T06:36:56Z</time>
      </trkpt>
      <trkpt lat="42.777366" lon="1.391393">
        <ele>1569.0</ele>
        <time>2013-08-14T06:37:16Z</time>
      </trkpt>
      <trkpt lat="42.777274" lon="1.391477">
        <ele>1570.9</ele>
        <time>2013-08-14T06:37:28Z</time>
      </trkpt>
      <trkpt lat="42.777214" lon="1.391574">
        <ele>1572.8</ele>
        <time>2013-08-14T06:37:39Z</time>
      </trkpt>
      <trkpt lat="42.777160" lon="1.391681">
        <ele>1574.3</ele>
        <time>2013-08-14T06:37:50Z</time>
      </trkpt>
      <trkpt lat="42.777116" lon="1.391794">
        <ele>1575.7</ele>
        <time>2013-08-14T06:38:03Z</time>
      </trkpt>
      <trkpt lat="42.777029" lon="1.391853">
        <ele>1576.7</ele>
        <time>2013-08-14T06:38:15Z</time>
      </trkpt>
      <trkpt lat="42.776933" lon="1.391918">
        <ele>1576.7</ele>
        <time>2013-08-14T06:38:26Z</time>
      </trkpt>
      <trkpt lat="42.776867" lon="1.392016">
        <ele>1578.1</ele>
        <time>2013-08-14T06:38:37Z</time>
      </trkpt>
      <trkpt lat="42.776790" lon="1.392073">
        <ele>1579.1</ele>
        <time>2013-08-14T06:38:49Z</time>
      </trkpt>
      <trkpt lat="42.776729" lon="1.392180">
        <ele>1580.1</ele>
        <time>2013-08-14T06:39:00Z</time>
      </trkpt>
      <trkpt lat="42.776630" lon="1.392203">
        <ele>1581.0</ele>
        <time>2013-08-14T06:39:12Z</time>
      </trkpt>
      <trkpt lat="42.776552" lon="1.392203">
        <ele>1581.5</ele>
        <time>2013-08-14T06:39:23Z</time>
      </trkpt>
      <trkpt lat="42.776462" lon="1.392165">
        <ele>1582.0</ele>
        <time>2013-08-14T06:39:38Z</time>
      </trkpt>
      <trkpt lat="42.776378" lon="1.392235">
        <ele>1582.0</ele>
        <time>2013-08-14T06:39:50Z</time>
      </trkpt>
      <trkpt lat="42.776310" lon="1.392300">
        <ele>1582.9</ele>
        <time>2013-08-14T06:40:04Z</time>
      </trkpt>
      <trkpt lat="42.776217" lon="1.392310">
        <ele>1584.9</ele>
        <time>2013-08-14T06:40:21Z</time>
      </trkpt>
      <trkpt lat="42.776134" lon="1.392234">
        <ele>1584.9</ele>
        <time>2013-08-14T06:40:34Z</time>
      </trkpt>
      <trkpt lat="42.776070" lon="1.392127">
        <ele>1586.8</ele>
        <time>2013-08-14T06:40:58Z</time>
      </trkpt>
      <trkpt lat="42.776033" lon="1.392017">
        <ele>1588.7</ele>
        <time>2013-08-14T06:41:11Z</time>
      </trkpt>
      <trkpt lat="42.775987" lon="1.391913">
        <ele>1591.1</ele>
        <time>2013-08-14T06:41:23Z</time>
      </trkpt>
      <trkpt lat="42.775897" lon="1.391878">
        <ele>1592.6</ele>
        <time>2013-08-14T06:41:34Z</time>
      </trkpt>
      <trkpt lat="42.775809" lon="1.391844">
        <ele>1593.0</ele>
        <time>2013-08-14T06:41:45Z</time>
      </trkpt>
      <trkpt lat="42.775717" lon="1.391817">
        <ele>1594.0</ele>
        <time>2013-08-14T06:41:56Z</time>
      </trkpt>
      <trkpt lat="42.775621" lon="1.391811">
        <ele>1594.0</ele>
        <time>2013-08-14T06:42:10Z</time>
      </trkpt>
      <trkpt lat="42.775552" lon="1.391813">
        <ele>1594.5</ele>
        <time>2013-08-14T06:42:55Z</time>
      </trkpt>
      <trkpt lat="42.775555" lon="1.391774">
        <ele>1594.5</ele>
        <time>2013-08-14T06:44:42Z</time>
      </trkpt>
      <trkpt lat="42.775472" lon="1.391688">
        <ele>1594.5</ele>
        <time>2013-08-14T06:44:58Z</time>
      </trkpt>
      <trkpt lat="42.775405" lon="1.391595">
        <ele>1594.5</ele>
        <time>2013-08-14T06:45:12Z</time>
      </trkpt>
      <trkpt lat="42.775322" lon="1.391573">
        <ele>1595.4</ele>
        <time>2013-08-14T06:45:22Z</time>
      </trkpt>
      <trkpt lat="42.775293" lon="1.391461">
        <ele>1596.9</ele>
        <time>2013-08-14T06:45:34Z</time>
      </trkpt>
      <trkpt lat="42.775225" lon="1.391370">
        <ele>1600.7</ele>
        <time>2013-08-14T06:45:49Z</time>
      </trkpt>
      <trkpt lat="42.775169" lon="1.391240">
        <ele>1603.6</ele>
        <time>2013-08-14T06:46:04Z</time>
      </trkpt>
      <trkpt lat="42.775171" lon="1.391102">
        <ele>1606.0</ele>
        <time>2013-08-14T06:46:19Z</time>
      </trkpt>
      <trkpt lat="42.775170" lon="1.390971">
        <ele>1608.4</ele>
        <time>2013-08-14T06:46:34Z</time>
      </trkpt>
      <trkpt lat="42.775143" lon="1.390844">
        <ele>1609.9</ele>
        <time>2013-08-14T06:46:46Z</time>
      </trkpt>
      <trkpt lat="42.775097" lon="1.390756">
        <ele>1611.8</ele>
        <time>2013-08-14T06:47:00Z</time>
      </trkpt>
      <trkpt lat="42.775087" lon="1.390630">
        <ele>1614.2</ele>
        <time>2013-08-14T06:47:16Z</time>
      </trkpt>
      <trkpt lat="42.775050" lon="1.390523">
        <ele>1618.0</ele>
        <time>2013-08-14T06:47:32Z</time>
      </trkpt>
      <trkpt lat="42.774968" lon="1.390472">
        <ele>1621.4</ele>
        <time>2013-08-14T06:47:49Z</time>
      </trkpt>
      <trkpt lat="42.774920" lon="1.390376">
        <ele>1622.8</ele>
        <time>2013-08-14T06:48:02Z</time>
      </trkpt>
      <trkpt lat="42.774844" lon="1.390281">
        <ele>1625.2</ele>
        <time>2013-08-14T06:48:21Z</time>
      </trkpt>
      <trkpt lat="42.774826" lon="1.390059">
        <ele>1627.7</ele>
        <time>2013-08-14T06:48:46Z</time>
      </trkpt>
      <trkpt lat="42.774805" lon="1.389833">
        <ele>1632.5</ele>
        <time>2013-08-14T06:49:16Z</time>
      </trkpt>
      <trkpt lat="42.774824" lon="1.389615">
        <ele>1636.8</ele>
        <time>2013-08-14T06:49:44Z</time>
      </trkpt>
      <trkpt lat="42.774800" lon="1.389433">
        <ele>1642.1</ele>
        <time>2013-08-14T06:50:09Z</time>
      </trkpt>
      <trkpt lat="42.774782" lon="1.389330">
        <ele>1644.9</ele>
        <time>2013-08-14T06:50:25Z</time>
      </trkpt>
      <trkpt lat="42.774712" lon="1.389417">
        <ele>1646.4</ele>
        <time>2013-08-14T06:51:08Z</time>
      </trkpt>
      <trkpt lat="42.774626" lon="1.389513">
        <ele>1648.8</ele>
        <time>2013-08-14T06:51:25Z</time>
      </trkpt>
      <trkpt lat="42.774545" lon="1.389568">
        <ele>1651.7</ele>
        <time>2013-08-14T06:51:41Z</time>
      </trkpt>
      <trkpt lat="42.774450" lon="1.389606">
        <ele>1651.2</ele>
        <time>2013-08-14T06:51:53Z</time>
      </trkpt>
      <trkpt lat="42.774360" lon="1.389591">
        <ele>1652.2</ele>
        <time>2013-08-14T06:52:05Z</time>
      </trkpt>
      <trkpt lat="42.774279" lon="1.389653">
        <ele>1653.1</ele>
        <time>2013-08-14T06:52:17Z</time>
      </trkpt>
      <trkpt lat="42.774193" lon="1.389714">
        <ele>1655.1</ele>
        <time>2013-08-14T06:52:29Z</time>
      </trkpt>
      <trkpt lat="42.774104" lon="1.389765">
        <ele>1656.5</ele>
        <time>2013-08-14T06:52:41Z</time>
      </trkpt>
      <trkpt lat="42.774054" lon="1.389864">
        <ele>1659.8</ele>
        <time>2013-08-14T06:52:57Z</time>
      </trkpt>
      <trkpt lat="42.774021" lon="1.389981">
        <ele>1661.3</ele>
        <time>2013-08-14T06:53:10Z</time>
      </trkpt>
      <trkpt lat="42.773952" lon="1.390072">
        <ele>1663.7</ele>
        <time>2013-08-14T06:53:23Z</time>
      </trkpt>
      <trkpt lat="42.773856" lon="1.390130">
        <ele>1664.7</ele>
        <time>2013-08-14T06:53:36Z</time>
      </trkpt>
      <trkpt lat="42.773777" lon="1.390211">
        <ele>1665.1</ele>
        <time>2013-08-14T06:53:46Z</time>
      </trkpt>
      <trkpt lat="42.773702" lon="1.390296">
        <ele>1666.6</ele>
        <time>2013-08-14T06:53:59Z</time>
      </trkpt>
      <trkpt lat="42.773639" lon="1.390381">
        <ele>1669.5</ele>
        <time>2013-08-14T06:54:15Z</time>
      </trkpt>
      <trkpt lat="42.773567" lon="1.390469">
        <ele>1671.4</ele>
        <time>2013-08-14T06:54:28Z</time>
      </trkpt>
      <trkpt lat="42.773507" lon="1.390580">
        <ele>1674.3</ele>
        <time>2013-08-14T06:54:45Z</time>
      </trkpt>
      <trkpt lat="42.773431" lon="1.390649">
        <ele>1676.7</ele>
        <time>2013-08-14T06:55:00Z</time>
      </trkpt>
      <trkpt lat="42.773326" lon="1.390679">
        <ele>1678.6</ele>
        <time>2013-08-14T06:55:15Z</time>
      </trkpt>
      <trkpt lat="42.773252" lon="1.390732">
        <ele>1680.0</ele>
        <time>2013-08-14T06:55:27Z</time>
      </trkpt>
      <trkpt lat="42.773188" lon="1.390841">
        <ele>1683.9</ele>
        <time>2013-08-14T06:55:46Z</time>
      </trkpt>
      <trkpt lat="42.773124" lon="1.390946">
        <ele>1685.8</ele>
        <time>2013-08-14T06:56:01Z</time>
      </trkpt>
      <trkpt lat="42.773049" lon="1.390937">
        <ele>1688.2</ele>
        <time>2013-08-14T06:56:14Z</time>
      </trkpt>
      <trkpt lat="42.772975" lon="1.390910">
        <ele>1691.1</ele>
        <time>2013-08-14T06:56:28Z</time>
      </trkpt>
      <trkpt lat="42.772892" lon="1.390931">
        <ele>1692.5</ele>
        <time>2013-08-14T06:56:40Z</time>
      </trkpt>
      <trkpt lat="42.772807" lon="1.390959">
        <ele>1693.5</ele>
        <time>2013-08-14T06:56:51Z</time>
      </trkpt>
      <trkpt lat="42.772734" lon="1.391032">
        <ele>1694.0</ele>
        <time>2013-08-14T06:57:01Z</time>
      </trkpt>
      <trkpt lat="42.772662" lon="1.391123">
        <ele>1694.0</ele>
        <time>2013-08-14T06:57:11Z</time>
      </trkpt>
      <trkpt lat="42.772617" lon="1.391222">
        <ele>1694.5</ele>
        <time>2013-08-14T06:57:21Z</time>
      </trkpt>
      <trkpt lat="42.772566" lon="1.391321">
        <ele>1695.9</ele>
        <time>2013-08-14T06:57:33Z</time>
      </trkpt>
      <trkpt lat="42.772493" lon="1.391413">
        <ele>1695.9</ele>
        <time>2013-08-14T06:57:45Z</time>
      </trkpt>
      <trkpt lat="42.772424" lon="1.391512">
        <ele>1696.4</ele>
        <time>2013-08-14T06:57:56Z</time>
      </trkpt>
      <trkpt lat="42.772334" lon="1.391572">
        <ele>1695.9</ele>
        <time>2013-08-14T06:58:06Z</time>
      </trkpt>
      <trkpt lat="42.772265" lon="1.391659">
        <ele>1697.3</ele>
        <time>2013-08-14T06:58:17Z</time>
      </trkpt>
      <trkpt lat="42.772182" lon="1.391717">
        <ele>1697.8</ele>
        <time>2013-08-14T06:58:28Z</time>
      </trkpt>
      <trkpt lat="42.772097" lon="1.391775">
        <ele>1697.3</ele>
        <time>2013-08-14T06:58:38Z</time>
      </trkpt>
      <trkpt lat="42.772040" lon="1.391876">
        <ele>1700.2</ele>
        <time>2013-08-14T06:58:53Z</time>
      </trkpt>
      <trkpt lat="42.771985" lon="1.391992">
        <ele>1700.2</ele>
        <time>2013-08-14T06:59:04Z</time>
      </trkpt>
      <trkpt lat="42.771932" lon="1.392120">
        <ele>1700.2</ele>
        <time>2013-08-14T06:59:15Z</time>
      </trkpt>
      <trkpt lat="42.771887" lon="1.392240">
        <ele>1699.8</ele>
        <time>2013-08-14T06:59:25Z</time>
      </trkpt>
      <trkpt lat="42.771868" lon="1.392364">
        <ele>1700.2</ele>
        <time>2013-08-14T06:59:36Z</time>
      </trkpt>
      <trkpt lat="42.771839" lon="1.392493">
        <ele>1700.7</ele>
        <time>2013-08-14T06:59:46Z</time>
      </trkpt>
      <trkpt lat="42.771818" lon="1.392618">
        <ele>1702.6</ele>
        <time>2013-08-14T06:59:57Z</time>
      </trkpt>
      <trkpt lat="42.771765" lon="1.392719">
        <ele>1702.2</ele>
        <time>2013-08-14T07:00:08Z</time>
      </trkpt>
      <trkpt lat="42.771731" lon="1.392859">
        <ele>1701.7</ele>
        <time>2013-08-14T07:00:20Z</time>
      </trkpt>
      <trkpt lat="42.771720" lon="1.392997">
        <ele>1703.1</ele>
        <time>2013-08-14T07:00:34Z</time>
      </trkpt>
      <trkpt lat="42.771710" lon="1.393103">
        <ele>1706.5</ele>
        <time>2013-08-14T07:00:51Z</time>
      </trkpt>
      <trkpt lat="42.771694" lon="1.393214">
        <ele>1708.9</ele>
        <time>2013-08-14T07:01:08Z</time>
      </trkpt>
      <trkpt lat="42.771647" lon="1.393337">
        <ele>1709.4</ele>
        <time>2013-08-14T07:01:19Z</time>
      </trkpt>
      <trkpt lat="42.771606" lon="1.393444">
        <ele>1709.8</ele>
        <time>2013-08-14T07:01:30Z</time>
      </trkpt>
      <trkpt lat="42.771585" lon="1.393571">
        <ele>1712.7</ele>
        <time>2013-08-14T07:01:43Z</time>
      </trkpt>
      <trkpt lat="42.771533" lon="1.393669">
        <ele>1713.7</ele>
        <time>2013-08-14T07:01:59Z</time>
      </trkpt>
      <trkpt lat="42.771493" lon="1.393803">
        <ele>1714.7</ele>
        <time>2013-08-14T07:02:12Z</time>
      </trkpt>
      <trkpt lat="42.771474" lon="1.393925">
        <ele>1717.1</ele>
        <time>2013-08-14T07:02:23Z</time>
      </trkpt>
      <trkpt lat="42.771466" lon="1.394061">
        <ele>1719.5</ele>
        <time>2013-08-14T07:02:37Z</time>
      </trkpt>
      <trkpt lat="42.771420" lon="1.394177">
        <ele>1721.9</ele>
        <time>2013-08-14T07:02:50Z</time>
      </trkpt>
      <trkpt lat="42.771384" lon="1.394299">
        <ele>1722.8</ele>
        <time>2013-08-14T07:03:01Z</time>
      </trkpt>
      <trkpt lat="42.771336" lon="1.394405">
        <ele>1723.3</ele>
        <time>2013-08-14T07:03:11Z</time>
      </trkpt>
      <trkpt lat="42.771288" lon="1.394523">
        <ele>1724.7</ele>
        <time>2013-08-14T07:03:22Z</time>
      </trkpt>
      <trkpt lat="42.771240" lon="1.394630">
        <ele>1724.7</ele>
        <time>2013-08-14T07:03:32Z</time>
      </trkpt>
      <trkpt lat="42.771216" lon="1.394763">
        <ele>1727.6</ele>
        <time>2013-08-14T07:03:45Z</time>
      </trkpt>
      <trkpt lat="42.771194" lon="1.394909">
        <ele>1730.5</ele>
        <time>2013-08-14T07:03:59Z</time>
      </trkpt>
      <trkpt lat="42.771125" lon="1.395000">
        <ele>1731.0</ele>
        <time>2013-08-14T07:04:10Z</time>
      </trkpt>
      <trkpt lat="42.771098" lon="1.395138">
        <ele>1731.0</ele>
        <time>2013-08-14T07:04:20Z</time>
      </trkpt>
      <trkpt lat="42.771050" lon="1.395257">
        <ele>1731.5</ele>
        <time>2013-08-14T07:04:31Z</time>
      </trkpt>
      <trkpt lat="42.771010" lon="1.395395">
        <ele>1731.0</ele>
        <time>2013-08-14T07:04:41Z</time>
      </trkpt>
      <trkpt lat="42.770968" lon="1.395520">
        <ele>1731.0</ele>
        <time>2013-08-14T07:04:52Z</time>
      </trkpt>
      <trkpt lat="42.770918" lon="1.395629">
        <ele>1732.9</ele>
        <time>2013-08-14T07:05:03Z</time>
      </trkpt>
      <trkpt lat="42.770836" lon="1.395713">
        <ele>1733.9</ele>
        <time>2013-08-14T07:05:13Z</time>
      </trkpt>
      <trkpt lat="42.770744" lon="1.395785">
        <ele>1733.9</ele>
        <time>2013-08-14T07:05:26Z</time>
      </trkpt>
      <trkpt lat="42.770723" lon="1.395930">
        <ele>1734.8</ele>
        <time>2013-08-14T07:05:38Z</time>
      </trkpt>
      <trkpt lat="42.770669" lon="1.396047">
        <ele>1734.8</ele>
        <time>2013-08-14T07:05:49Z</time>
      </trkpt>
      <trkpt lat="42.770600" lon="1.396141">
        <ele>1735.8</ele>
        <time>2013-08-14T07:06:00Z</time>
      </trkpt>
      <trkpt lat="42.770530" lon="1.396231">
        <ele>1738.2</ele>
        <time>2013-08-14T07:06:16Z</time>
      </trkpt>
      <trkpt lat="42.770433" lon="1.396278">
        <ele>1738.2</ele>
        <time>2013-08-14T07:06:33Z</time>
      </trkpt>
      <trkpt lat="42.770340" lon="1.396283">
        <ele>1735.8</ele>
        <time>2013-08-14T07:06:49Z</time>
      </trkpt>
      <trkpt lat="42.770231" lon="1.396323">
        <ele>1736.3</ele>
        <time>2013-08-14T07:07:02Z</time>
      </trkpt>
      <trkpt lat="42.770138" lon="1.396390">
        <ele>1737.2</ele>
        <time>2013-08-14T07:07:18Z</time>
      </trkpt>
      <trkpt lat="42.770034" lon="1.396412">
        <ele>1735.3</ele>
        <time>2013-08-14T07:07:32Z</time>
      </trkpt>
      <trkpt lat="42.769975" lon="1.396467">
        <ele>1735.3</ele>
        <time>2013-08-14T07:08:15Z</time>
      </trkpt>
      <trkpt lat="42.769868" lon="1.396493">
        <ele>1735.3</ele>
        <time>2013-08-14T07:08:29Z</time>
      </trkpt>
      <trkpt lat="42.769765" lon="1.396463">
        <ele>1733.9</ele>
        <time>2013-08-14T07:08:45Z</time>
      </trkpt>
      <trkpt lat="42.769678" lon="1.396496">
        <ele>1736.8</ele>
        <time>2013-08-14T07:09:05Z</time>
      </trkpt>
      <trkpt lat="42.769588" lon="1.396544">
        <ele>1737.7</ele>
        <time>2013-08-14T07:09:16Z</time>
      </trkpt>
      <trkpt lat="42.769521" lon="1.396609">
        <ele>1739.2</ele>
        <time>2013-08-14T07:09:33Z</time>
      </trkpt>
      <trkpt lat="42.769426" lon="1.396670">
        <ele>1739.2</ele>
        <time>2013-08-14T07:09:49Z</time>
      </trkpt>
      <trkpt lat="42.769364" lon="1.396771">
        <ele>1742.1</ele>
        <time>2013-08-14T07:10:11Z</time>
      </trkpt>
      <trkpt lat="42.769294" lon="1.396857">
        <ele>1744.0</ele>
        <time>2013-08-14T07:10:25Z</time>
      </trkpt>
      <trkpt lat="42.769215" lon="1.396964">
        <ele>1747.8</ele>
        <time>2013-08-14T07:10:44Z</time>
      </trkpt>
      <trkpt lat="42.769138" lon="1.397055">
        <ele>1748.8</ele>
        <time>2013-08-14T07:10:57Z</time>
      </trkpt>
      <trkpt lat="42.769083" lon="1.397160">
        <ele>1752.1</ele>
        <time>2013-08-14T07:11:10Z</time>
      </trkpt>
      <trkpt lat="42.769030" lon="1.397258">
        <ele>1754.5</ele>
        <time>2013-08-14T07:11:25Z</time>
      </trkpt>
      <trkpt lat="42.768965" lon="1.397335">
        <ele>1756.5</ele>
        <time>2013-08-14T07:11:39Z</time>
      </trkpt>
      <trkpt lat="42.768899" lon="1.397432">
        <ele>1758.9</ele>
        <time>2013-08-14T07:11:58Z</time>
      </trkpt>
      <trkpt lat="42.768836" lon="1.397526">
        <ele>1761.8</ele>
        <time>2013-08-14T07:12:14Z</time>
      </trkpt>
      <trkpt lat="42.768805" lon="1.397634">
        <ele>1766.1</ele>
        <time>2013-08-14T07:12:33Z</time>
      </trkpt>
      <trkpt lat="42.768806" lon="1.397732">
        <ele>1768.5</ele>
        <time>2013-08-14T07:12:50Z</time>
      </trkpt>
      <trkpt lat="42.768776" lon="1.397848">
        <ele>1772.8</ele>
        <time>2013-08-14T07:13:08Z</time>
      </trkpt>
      <trkpt lat="42.768764" lon="1.397942">
        <ele>1777.1</ele>
        <time>2013-08-14T07:13:27Z</time>
      </trkpt>
      <trkpt lat="42.768799" lon="1.398068">
        <ele>1780.5</ele>
        <time>2013-08-14T07:13:47Z</time>
      </trkpt>
      <trkpt lat="42.768755" lon="1.398169">
        <ele>1784.3</ele>
        <time>2013-08-14T07:14:04Z</time>
      </trkpt>
      <trkpt lat="42.768776" lon="1.398273">
        <ele>1788.7</ele>
        <time>2013-08-14T07:14:23Z</time>
      </trkpt>
      <trkpt lat="42.768826" lon="1.398360">
        <ele>1792.0</ele>
        <time>2013-08-14T07:14:43Z</time>
      </trkpt>
      <trkpt lat="42.768896" lon="1.398387">
        <ele>1794.4</ele>
        <time>2013-08-14T07:17:01Z</time>
      </trkpt>
      <trkpt lat="42.768862" lon="1.398480">
        <ele>1797.8</ele>
        <time>2013-08-14T07:17:25Z</time>
      </trkpt>
      <trkpt lat="42.768880" lon="1.398574">
        <ele>1802.6</ele>
        <time>2013-08-14T07:17:46Z</time>
      </trkpt>
      <trkpt lat="42.768866" lon="1.398691">
        <ele>1806.4</ele>
        <time>2013-08-14T07:18:04Z</time>
      </trkpt>
      <trkpt lat="42.768872" lon="1.398764">
        <ele>1810.3</ele>
        <time>2013-08-14T07:18:22Z</time>
      </trkpt>
      <trkpt lat="42.768822" lon="1.398853">
        <ele>1814.2</ele>
        <time>2013-08-14T07:18:42Z</time>
      </trkpt>
      <trkpt lat="42.768773" lon="1.398948">
        <ele>1818.5</ele>
        <time>2013-08-14T07:19:04Z</time>
      </trkpt>
      <trkpt lat="42.768756" lon="1.399041">
        <ele>1821.8</ele>
        <time>2013-08-14T07:19:24Z</time>
      </trkpt>
      <trkpt lat="42.768723" lon="1.399137">
        <ele>1826.2</ele>
        <time>2013-08-14T07:19:41Z</time>
      </trkpt>
      <trkpt lat="42.768656" lon="1.399219">
        <ele>1829.1</ele>
        <time>2013-08-14T07:19:58Z</time>
      </trkpt>
      <trkpt lat="42.768592" lon="1.399298">
        <ele>1832.9</ele>
        <time>2013-08-14T07:20:17Z</time>
      </trkpt>
      <trkpt lat="42.768525" lon="1.399389">
        <ele>1835.8</ele>
        <time>2013-08-14T07:20:33Z</time>
      </trkpt>
      <trkpt lat="42.768458" lon="1.399482">
        <ele>1836.7</ele>
        <time>2013-08-14T07:20:45Z</time>
      </trkpt>
      <trkpt lat="42.768445" lon="1.399572">
        <ele>1839.1</ele>
        <time>2013-08-14T07:20:59Z</time>
      </trkpt>
      <trkpt lat="42.768456" lon="1.399668">
        <ele>1841.5</ele>
        <time>2013-08-14T07:21:13Z</time>
      </trkpt>
      <trkpt lat="42.768430" lon="1.399810">
        <ele>1842.5</ele>
        <time>2013-08-14T07:21:25Z</time>
      </trkpt>
      <trkpt lat="42.768406" lon="1.399944">
        <ele>1843.5</ele>
        <time>2013-08-14T07:21:36Z</time>
      </trkpt>
      <trkpt lat="42.768402" lon="1.400060">
        <ele>1844.9</ele>
        <time>2013-08-14T07:21:48Z</time>
      </trkpt>
      <trkpt lat="42.768403" lon="1.400191">
        <ele>1847.3</ele>
        <time>2013-08-14T07:22:01Z</time>
      </trkpt>
      <trkpt lat="42.768405" lon="1.400307">
        <ele>1850.2</ele>
        <time>2013-08-14T07:22:15Z</time>
      </trkpt>
      <trkpt lat="42.768410" lon="1.400418">
        <ele>1852.1</ele>
        <time>2013-08-14T07:22:30Z</time>
      </trkpt>
      <trkpt lat="42.768389" lon="1.400539">
        <ele>1855.0</ele>
        <time>2013-08-14T07:22:43Z</time>
      </trkpt>
      <trkpt lat="42.768373" lon="1.400653">
        <ele>1857.9</ele>
        <time>2013-08-14T07:23:00Z</time>
      </trkpt>
      <trkpt lat="42.768351" lon="1.400787">
        <ele>1860.8</ele>
        <time>2013-08-14T07:23:16Z</time>
      </trkpt>
      <trkpt lat="42.768362" lon="1.400920">
        <ele>1864.1</ele>
        <time>2013-08-14T07:23:32Z</time>
      </trkpt>
      <trkpt lat="42.768352" lon="1.401034">
        <ele>1866.1</ele>
        <time>2013-08-14T07:23:46Z</time>
      </trkpt>
      <trkpt lat="42.768378" lon="1.401131">
        <ele>1868.9</ele>
        <time>2013-08-14T07:24:00Z</time>
      </trkpt>
      <trkpt lat="42.768393" lon="1.401261">
        <ele>1872.8</ele>
        <time>2013-08-14T07:24:17Z</time>
      </trkpt>
      <trkpt lat="42.768381" lon="1.401383">
        <ele>1876.2</ele>
        <time>2013-08-14T07:24:34Z</time>
      </trkpt>
      <trkpt lat="42.768320" lon="1.401496">
        <ele>1879.0</ele>
        <time>2013-08-14T07:24:48Z</time>
      </trkpt>
      <trkpt lat="42.768284" lon="1.401614">
        <ele>1881.4</ele>
        <time>2013-08-14T07:25:02Z</time>
      </trkpt>
      <trkpt lat="42.768280" lon="1.401737">
        <ele>1884.8</ele>
        <time>2013-08-14T07:25:17Z</time>
      </trkpt>
      <trkpt lat="42.768261" lon="1.401865">
        <ele>1886.2</ele>
        <time>2013-08-14T07:25:30Z</time>
      </trkpt>
      <trkpt lat="42.768229" lon="1.401980">
        <ele>1888.7</ele>
        <time>2013-08-14T07:25:43Z</time>
      </trkpt>
      <trkpt lat="42.768202" lon="1.402090">
        <ele>1890.1</ele>
        <time>2013-08-14T07:25:56Z</time>
      </trkpt>
      <trkpt lat="42.768182" lon="1.402216">
        <ele>1891.5</ele>
        <time>2013-08-14T07:26:09Z</time>
      </trkpt>
      <trkpt lat="42.768182" lon="1.402349">
        <ele>1893.4</ele>
        <time>2013-08-14T07:26:21Z</time>
      </trkpt>
      <trkpt lat="42.768175" lon="1.402481">
        <ele>1895.9</ele>
        <time>2013-08-14T07:26:33Z</time>
      </trkpt>
      <trkpt lat="42.768151" lon="1.402602">
        <ele>1896.8</ele>
        <time>2013-08-14T07:26:45Z</time>
      </trkpt>
      <trkpt lat="42.768113" lon="1.402724">
        <ele>1898.7</ele>
        <time>2013-08-14T07:26:56Z</time>
      </trkpt>
      <trkpt lat="42.768076" lon="1.402849">
        <ele>1900.2</ele>
        <time>2013-08-14T07:27:08Z</time>
      </trkpt>
      <trkpt lat="42.768036" lon="1.402951">
        <ele>1902.1</ele>
        <time>2013-08-14T07:27:20Z</time>
      </trkpt>
      <trkpt lat="42.768027" lon="1.403076">
        <ele>1904.5</ele>
        <time>2013-08-14T07:27:32Z</time>
      </trkpt>
      <trkpt lat="42.767957" lon="1.403160">
        <ele>1906.4</ele>
        <time>2013-08-14T07:27:44Z</time>
      </trkpt>
      <trkpt lat="42.767872" lon="1.403230">
        <ele>1908.8</ele>
        <time>2013-08-14T07:27:56Z</time>
      </trkpt>
      <trkpt lat="42.767813" lon="1.403322">
        <ele>1911.2</ele>
        <time>2013-08-14T07:28:10Z</time>
      </trkpt>
      <trkpt lat="42.767805" lon="1.403435">
        <ele>1914.6</ele>
        <time>2013-08-14T07:28:25Z</time>
      </trkpt>
      <trkpt lat="42.767770" lon="1.403558">
        <ele>1917.0</ele>
        <time>2013-08-14T07:28:38Z</time>
      </trkpt>
      <trkpt lat="42.767758" lon="1.403667">
        <ele>1918.9</ele>
        <time>2013-08-14T07:28:51Z</time>
      </trkpt>
      <trkpt lat="42.767792" lon="1.403786">
        <ele>1922.3</ele>
        <time>2013-08-14T07:29:07Z</time>
      </trkpt>
      <trkpt lat="42.767775" lon="1.403921">
        <ele>1925.2</ele>
        <time>2013-08-14T07:29:25Z</time>
      </trkpt>
      <trkpt lat="42.767712" lon="1.404023">
        <ele>1928.1</ele>
        <time>2013-08-14T07:29:38Z</time>
      </trkpt>
      <trkpt lat="42.767642" lon="1.404100">
        <ele>1931.4</ele>
        <time>2013-08-14T07:29:54Z</time>
      </trkpt>
      <trkpt lat="42.767567" lon="1.404163">
        <ele>1934.8</ele>
        <time>2013-08-14T07:30:08Z</time>
      </trkpt>
      <trkpt lat="42.767474" lon="1.404198">
        <ele>1937.7</ele>
        <time>2013-08-14T07:30:21Z</time>
      </trkpt>
      <trkpt lat="42.767386" lon="1.404209">
        <ele>1940.1</ele>
        <time>2013-08-14T07:30:35Z</time>
      </trkpt>
      <trkpt lat="42.767290" lon="1.404218">
        <ele>1941.0</ele>
        <time>2013-08-14T07:30:50Z</time>
      </trkpt>
      <trkpt lat="42.767210" lon="1.404217">
        <ele>1943.9</ele>
        <time>2013-08-14T07:31:19Z</time>
      </trkpt>
      <trkpt lat="42.767123" lon="1.404201">
        <ele>1946.8</ele>
        <time>2013-08-14T07:32:10Z</time>
      </trkpt>
      <trkpt lat="42.767028" lon="1.404161">
        <ele>1947.8</ele>
        <time>2013-08-14T07:32:21Z</time>
      </trkpt>
      <trkpt lat="42.766978" lon="1.404048">
        <ele>1950.7</ele>
        <time>2013-08-14T07:32:35Z</time>
      </trkpt>
      <trkpt lat="42.766919" lon="1.404034">
        <ele>1954.5</ele>
        <time>2013-08-14T07:32:52Z</time>
      </trkpt>
      <trkpt lat="42.766827" lon="1.404075">
        <ele>1956.4</ele>
        <time>2013-08-14T07:33:06Z</time>
      </trkpt>
      <trkpt lat="42.766776" lon="1.404001">
        <ele>1960.3</ele>
        <time>2013-08-14T07:33:24Z</time>
      </trkpt>
      <trkpt lat="42.766730" lon="1.403917">
        <ele>1964.1</ele>
        <time>2013-08-14T07:33:40Z</time>
      </trkpt>
      <trkpt lat="42.766717" lon="1.403791">
        <ele>1965.6</ele>
        <time>2013-08-14T07:33:52Z</time>
      </trkpt>
      <trkpt lat="42.766637" lon="1.403806">
        <ele>1967.5</ele>
        <time>2013-08-14T07:34:05Z</time>
      </trkpt>
      <trkpt lat="42.766568" lon="1.403722">
        <ele>1968.9</ele>
        <time>2013-08-14T07:34:17Z</time>
      </trkpt>
      <trkpt lat="42.766500" lon="1.403647">
        <ele>1971.8</ele>
        <time>2013-08-14T07:34:30Z</time>
      </trkpt>
      <trkpt lat="42.766425" lon="1.403574">
        <ele>1973.7</ele>
        <time>2013-08-14T07:34:45Z</time>
      </trkpt>
      <trkpt lat="42.766354" lon="1.403519">
        <ele>1976.1</ele>
        <time>2013-08-14T07:34:57Z</time>
      </trkpt>
      <trkpt lat="42.766297" lon="1.403423">
        <ele>1977.6</ele>
        <time>2013-08-14T07:35:09Z</time>
      </trkpt>
      <trkpt lat="42.766219" lon="1.403340">
        <ele>1978.1</ele>
        <time>2013-08-14T07:35:19Z</time>
      </trkpt>
      <trkpt lat="42.766168" lon="1.403274">
        <ele>1978.5</ele>
        <time>2013-08-14T07:35:35Z</time>
      </trkpt>
      <trkpt lat="42.766108" lon="1.403187">
        <ele>1980.9</ele>
        <time>2013-08-14T07:35:51Z</time>
      </trkpt>
      <trkpt lat="42.766051" lon="1.403072">
        <ele>1983.8</ele>
        <time>2013-08-14T07:36:05Z</time>
      </trkpt>
      <trkpt lat="42.765975" lon="1.403018">
        <ele>1986.2</ele>
        <time>2013-08-14T07:36:20Z</time>
      </trkpt>
      <trkpt lat="42.765897" lon="1.402929">
        <ele>1989.6</ele>
        <time>2013-08-14T07:36:34Z</time>
      </trkpt>
      <trkpt lat="42.765831" lon="1.402805">
        <ele>1991.0</ele>
        <time>2013-08-14T07:36:45Z</time>
      </trkpt>
      <trkpt lat="42.765732" lon="1.402762">
        <ele>1992.0</ele>
        <time>2013-08-14T07:36:55Z</time>
      </trkpt>
      <trkpt lat="42.765667" lon="1.402650">
        <ele>1992.9</ele>
        <time>2013-08-14T07:37:05Z</time>
      </trkpt>
      <trkpt lat="42.765617" lon="1.402539">
        <ele>1994.9</ele>
        <time>2013-08-14T07:37:15Z</time>
      </trkpt>
      <trkpt lat="42.765569" lon="1.402427">
        <ele>1995.8</ele>
        <time>2013-08-14T07:37:25Z</time>
      </trkpt>
      <trkpt lat="42.765514" lon="1.402332">
        <ele>1997.8</ele>
        <time>2013-08-14T07:37:37Z</time>
      </trkpt>
      <trkpt lat="42.765448" lon="1.402273">
        <ele>1999.7</ele>
        <time>2013-08-14T07:37:49Z</time>
      </trkpt>
      <trkpt lat="42.765396" lon="1.402172">
        <ele>2002.1</ele>
        <time>2013-08-14T07:38:01Z</time>
      </trkpt>
      <trkpt lat="42.765360" lon="1.402045">
        <ele>2005.0</ele>
        <time>2013-08-14T07:38:13Z</time>
      </trkpt>
      <trkpt lat="42.765305" lon="1.401936">
        <ele>2005.4</ele>
        <time>2013-08-14T07:38:24Z</time>
      </trkpt>
      <trkpt lat="42.765268" lon="1.401804">
        <ele>2008.3</ele>
        <time>2013-08-14T07:38:36Z</time>
      </trkpt>
      <trkpt lat="42.765202" lon="1.401722">
        <ele>2009.3</ele>
        <time>2013-08-14T07:38:46Z</time>
      </trkpt>
      <trkpt lat="42.765134" lon="1.401637">
        <ele>2010.7</ele>
        <time>2013-08-14T07:38:56Z</time>
      </trkpt>
      <trkpt lat="42.765091" lon="1.401536">
        <ele>2012.2</ele>
        <time>2013-08-14T07:39:07Z</time>
      </trkpt>
      <trkpt lat="42.765025" lon="1.401446">
        <ele>2015.1</ele>
        <time>2013-08-14T07:39:20Z</time>
      </trkpt>
      <trkpt lat="42.764952" lon="1.401373">
        <ele>2017.5</ele>
        <time>2013-08-14T07:39:33Z</time>
      </trkpt>
      <trkpt lat="42.764925" lon="1.401261">
        <ele>2021.3</ele>
        <time>2013-08-14T07:39:49Z</time>
      </trkpt>
      <trkpt lat="42.764954" lon="1.401152">
        <ele>2024.2</ele>
        <time>2013-08-14T07:40:03Z</time>
      </trkpt>
      <trkpt lat="42.764953" lon="1.401046">
        <ele>2027.6</ele>
        <time>2013-08-14T07:40:17Z</time>
      </trkpt>
      <trkpt lat="42.764892" lon="1.400949">
        <ele>2030.9</ele>
        <time>2013-08-14T07:40:32Z</time>
      </trkpt>
      <trkpt lat="42.764850" lon="1.400846">
        <ele>2032.8</ele>
        <time>2013-08-14T07:40:51Z</time>
      </trkpt>
      <trkpt lat="42.764790" lon="1.400788">
        <ele>2035.2</ele>
        <time>2013-08-14T07:41:05Z</time>
      </trkpt>
      <trkpt lat="42.764715" lon="1.400737">
        <ele>2037.7</ele>
        <time>2013-08-14T07:41:16Z</time>
      </trkpt>
      <trkpt lat="42.764708" lon="1.400612">
        <ele>2039.6</ele>
        <time>2013-08-14T07:41:28Z</time>
      </trkpt>
      <trkpt lat="42.764703" lon="1.400480">
        <ele>2042.0</ele>
        <time>2013-08-14T07:41:42Z</time>
      </trkpt>
      <trkpt lat="42.764670" lon="1.400378">
        <ele>2044.4</ele>
        <time>2013-08-14T07:41:56Z</time>
      </trkpt>
      <trkpt lat="42.764622" lon="1.400296">
        <ele>2047.3</ele>
        <time>2013-08-14T07:42:13Z</time>
      </trkpt>
      <trkpt lat="42.764614" lon="1.400176">
        <ele>2049.2</ele>
        <time>2013-08-14T07:42:26Z</time>
      </trkpt>
      <trkpt lat="42.764579" lon="1.400064">
        <ele>2052.6</ele>
        <time>2013-08-14T07:42:39Z</time>
      </trkpt>
      <trkpt lat="42.764511" lon="1.399971">
        <ele>2056.4</ele>
        <time>2013-08-14T07:42:58Z</time>
      </trkpt>
      <trkpt lat="42.764455" lon="1.399864">
        <ele>2057.8</ele>
        <time>2013-08-14T07:43:28Z</time>
      </trkpt>
      <trkpt lat="42.764408" lon="1.399745">
        <ele>2058.8</ele>
        <time>2013-08-14T07:43:40Z</time>
      </trkpt>
      <trkpt lat="42.764352" lon="1.399779">
        <ele>2010.0</ele>
        <time>2013-08-14T07:43:56Z</time>
      </trkpt>
      <trkpt lat="42.764302" lon="1.399834">
        <ele>2015.6</ele>
        <time>2013-08-14T07:44:12Z</time>
      </trkpt>
      <trkpt lat="42.764237" lon="1.399897">
        <ele>2022.9</ele>
        <time>2013-08-14T07:45:11Z</time>
      </trkpt>
      <trkpt lat="42.764128" lon="1.399902">
        <ele>2029.2</ele>
        <time>2013-08-14T07:45:21Z</time>
      </trkpt>
      <trkpt lat="42.764024" lon="1.399894">
        <ele>2030.9</ele>
        <time>2013-08-14T07:45:30Z</time>
      </trkpt>
      <trkpt lat="42.763936" lon="1.399907">
        <ele>2032.8</ele>
        <time>2013-08-14T07:45:40Z</time>
      </trkpt>
      <trkpt lat="42.763843" lon="1.399906">
        <ele>2045.3</ele>
        <time>2013-08-14T07:45:49Z</time>
      </trkpt>
      <trkpt lat="42.763746" lon="1.399891">
        <ele>2045.3</ele>
        <time>2013-08-14T07:45:58Z</time>
      </trkpt>
      <trkpt lat="42.763665" lon="1.399830">
        <ele>2044.9</ele>
        <time>2013-08-14T07:46:07Z</time>
      </trkpt>
      <trkpt lat="42.763571" lon="1.399798">
        <ele>2046.3</ele>
        <time>2013-08-14T07:46:17Z</time>
      </trkpt>
      <trkpt lat="42.763480" lon="1.399805">
        <ele>2047.8</ele>
        <time>2013-08-14T07:46:28Z</time>
      </trkpt>
      <trkpt lat="42.763398" lon="1.399821">
        <ele>2045.8</ele>
        <time>2013-08-14T07:46:39Z</time>
      </trkpt>
      <trkpt lat="42.763302" lon="1.399788">
        <ele>2044.4</ele>
        <time>2013-08-14T07:46:49Z</time>
      </trkpt>
      <trkpt lat="42.763210" lon="1.399807">
        <ele>2043.4</ele>
        <time>2013-08-14T07:47:00Z</time>
      </trkpt>
      <trkpt lat="42.763116" lon="1.399812">
        <ele>2043.4</ele>
        <time>2013-08-14T07:47:23Z</time>
      </trkpt>
      <trkpt lat="42.763038" lon="1.399879">
        <ele>2040.1</ele>
        <time>2013-08-14T07:47:43Z</time>
      </trkpt>
      <trkpt lat="42.762953" lon="1.399870">
        <ele>2038.1</ele>
        <time>2013-08-14T07:48:03Z</time>
      </trkpt>
      <trkpt lat="42.762865" lon="1.399803">
        <ele>2038.1</ele>
        <time>2013-08-14T07:48:14Z</time>
      </trkpt>
      <trkpt lat="42.762779" lon="1.399767">
        <ele>2037.2</ele>
        <time>2013-08-14T07:48:23Z</time>
      </trkpt>
      <trkpt lat="42.762686" lon="1.399733">
        <ele>2037.7</ele>
        <time>2013-08-14T07:48:34Z</time>
      </trkpt>
      <trkpt lat="42.762588" lon="1.399708">
        <ele>2037.2</ele>
        <time>2013-08-14T07:48:45Z</time>
      </trkpt>
      <trkpt lat="42.762489" lon="1.399729">
        <ele>2036.2</ele>
        <time>2013-08-14T07:48:55Z</time>
      </trkpt>
      <trkpt lat="42.762408" lon="1.399712">
        <ele>2034.3</ele>
        <time>2013-08-14T07:49:07Z</time>
      </trkpt>
      <trkpt lat="42.762328" lon="1.399728">
        <ele>2033.3</ele>
        <time>2013-08-14T07:49:19Z</time>
      </trkpt>
      <trkpt lat="42.762240" lon="1.399723">
        <ele>2031.9</ele>
        <time>2013-08-14T07:49:31Z</time>
      </trkpt>
      <trkpt lat="42.762145" lon="1.399723">
        <ele>2030.0</ele>
        <time>2013-08-14T07:49:41Z</time>
      </trkpt>
      <trkpt lat="42.762060" lon="1.399712">
        <ele>2029.0</ele>
        <time>2013-08-14T07:49:51Z</time>
      </trkpt>
      <trkpt lat="42.761971" lon="1.399736">
        <ele>2027.6</ele>
        <time>2013-08-14T07:50:04Z</time>
      </trkpt>
      <trkpt lat="42.761872" lon="1.399714">
        <ele>2026.1</ele>
        <time>2013-08-14T07:50:16Z</time>
      </trkpt>
      <trkpt lat="42.761779" lon="1.399666">
        <ele>2025.2</ele>
        <time>2013-08-14T07:50:37Z</time>
      </trkpt>
      <trkpt lat="42.761687" lon="1.399663">
        <ele>2023.7</ele>
        <time>2013-08-14T07:50:53Z</time>
      </trkpt>
      <trkpt lat="42.761586" lon="1.399674">
        <ele>2023.7</ele>
        <time>2013-08-14T07:51:02Z</time>
      </trkpt>
      <trkpt lat="42.761492" lon="1.399669">
        <ele>2023.2</ele>
        <time>2013-08-14T07:51:10Z</time>
      </trkpt>
      <trkpt lat="42.761402" lon="1.399626">
        <ele>2024.2</ele>
        <time>2013-08-14T07:51:19Z</time>
      </trkpt>
      <trkpt lat="42.761313" lon="1.399585">
        <ele>2024.7</ele>
        <time>2013-08-14T07:51:27Z</time>
      </trkpt>
      <trkpt lat="42.761230" lon="1.399549">
        <ele>2026.6</ele>
        <time>2013-08-14T07:51:37Z</time>
      </trkpt>
      <trkpt lat="42.761136" lon="1.399506">
        <ele>2029.0</ele>
        <time>2013-08-14T07:51:48Z</time>
      </trkpt>
      <trkpt lat="42.761042" lon="1.399470">
        <ele>2030.0</ele>
        <time>2013-08-14T07:52:00Z</time>
      </trkpt>
      <trkpt lat="42.760949" lon="1.399461">
        <ele>2031.4</ele>
        <time>2013-08-14T07:52:11Z</time>
      </trkpt>
      <trkpt lat="42.760868" lon="1.399451">
        <ele>2030.9</ele>
        <time>2013-08-14T07:53:23Z</time>
      </trkpt>
      <trkpt lat="42.760769" lon="1.399433">
        <ele>2031.9</ele>
        <time>2013-08-14T07:53:32Z</time>
      </trkpt>
      <trkpt lat="42.760671" lon="1.399420">
        <ele>2032.4</ele>
        <time>2013-08-14T07:53:40Z</time>
      </trkpt>
      <trkpt lat="42.760576" lon="1.399401">
        <ele>2033.3</ele>
        <time>2013-08-14T07:53:48Z</time>
      </trkpt>
      <trkpt lat="42.760489" lon="1.399387">
        <ele>2034.3</ele>
        <time>2013-08-14T07:53:56Z</time>
      </trkpt>
      <trkpt lat="42.760400" lon="1.399389">
        <ele>2035.2</ele>
        <time>2013-08-14T07:54:04Z</time>
      </trkpt>
      <trkpt lat="42.760303" lon="1.399358">
        <ele>2037.2</ele>
        <time>2013-08-14T07:54:13Z</time>
      </trkpt>
      <trkpt lat="42.760213" lon="1.399368">
        <ele>2039.6</ele>
        <time>2013-08-14T07:54:23Z</time>
      </trkpt>
      <trkpt lat="42.760120" lon="1.399348">
        <ele>2041.0</ele>
        <time>2013-08-14T07:54:33Z</time>
      </trkpt>
      <trkpt lat="42.760028" lon="1.399335">
        <ele>2043.4</ele>
        <time>2013-08-14T07:54:43Z</time>
      </trkpt>
      <trkpt lat="42.759932" lon="1.399336">
        <ele>2045.8</ele>
        <time>2013-08-14T07:54:55Z</time>
      </trkpt>
      <trkpt lat="42.759840" lon="1.399324">
        <ele>2047.8</ele>
        <time>2013-08-14T07:55:06Z</time>
      </trkpt>
      <trkpt lat="42.759748" lon="1.399331">
        <ele>2048.7</ele>
        <time>2013-08-14T07:55:16Z</time>
      </trkpt>
      <trkpt lat="42.759657" lon="1.399332">
        <ele>2050.6</ele>
        <time>2013-08-14T07:55:27Z</time>
      </trkpt>
      <trkpt lat="42.759567" lon="1.399341">
        <ele>2052.1</ele>
        <time>2013-08-14T07:55:38Z</time>
      </trkpt>
      <trkpt lat="42.759475" lon="1.399314">
        <ele>2053.5</ele>
        <time>2013-08-14T07:55:48Z</time>
      </trkpt>
      <trkpt lat="42.759392" lon="1.399306">
        <ele>2055.0</ele>
        <time>2013-08-14T07:55:58Z</time>
      </trkpt>
      <trkpt lat="42.759304" lon="1.399263">
        <ele>2055.4</ele>
        <time>2013-08-14T07:56:08Z</time>
      </trkpt>
      <trkpt lat="42.759216" lon="1.399242">
        <ele>2056.4</ele>
        <time>2013-08-14T07:56:17Z</time>
      </trkpt>
      <trkpt lat="42.759130" lon="1.399205">
        <ele>2057.8</ele>
        <time>2013-08-14T07:56:27Z</time>
      </trkpt>
      <trkpt lat="42.759039" lon="1.399167">
        <ele>2058.3</ele>
        <time>2013-08-14T07:56:37Z</time>
      </trkpt>
      <trkpt lat="42.758956" lon="1.399089">
        <ele>2059.3</ele>
        <time>2013-08-14T07:56:46Z</time>
      </trkpt>
      <trkpt lat="42.758883" lon="1.399026">
        <ele>2060.2</ele>
        <time>2013-08-14T07:56:54Z</time>
      </trkpt>
      <trkpt lat="42.758807" lon="1.398976">
        <ele>2060.7</ele>
        <time>2013-08-14T07:57:03Z</time>
      </trkpt>
      <trkpt lat="42.758720" lon="1.398942">
        <ele>2062.6</ele>
        <time>2013-08-14T07:57:13Z</time>
      </trkpt>
      <trkpt lat="42.758636" lon="1.398866">
        <ele>2064.1</ele>
        <time>2013-08-14T07:57:24Z</time>
      </trkpt>
      <trkpt lat="42.758555" lon="1.398798">
        <ele>2064.6</ele>
        <time>2013-08-14T07:57:33Z</time>
      </trkpt>
      <trkpt lat="42.758464" lon="1.398747">
        <ele>2066.0</ele>
        <time>2013-08-14T07:57:43Z</time>
      </trkpt>
      <trkpt lat="42.758379" lon="1.398680">
        <ele>2067.0</ele>
        <time>2013-08-14T07:57:53Z</time>
      </trkpt>
      <trkpt lat="42.758295" lon="1.398624">
        <ele>2068.4</ele>
        <time>2013-08-14T07:58:03Z</time>
      </trkpt>
      <trkpt lat="42.758223" lon="1.398539">
        <ele>2069.9</ele>
        <time>2013-08-14T07:58:13Z</time>
      </trkpt>
      <trkpt lat="42.758159" lon="1.398454">
        <ele>2071.3</ele>
        <time>2013-08-14T07:58:24Z</time>
      </trkpt>
      <trkpt lat="42.758078" lon="1.398386">
        <ele>2072.3</ele>
        <time>2013-08-14T07:58:34Z</time>
      </trkpt>
      <trkpt lat="42.758022" lon="1.398301">
        <ele>2073.7</ele>
        <time>2013-08-14T07:58:45Z</time>
      </trkpt>
      <trkpt lat="42.757978" lon="1.398180">
        <ele>2075.1</ele>
        <time>2013-08-14T07:58:57Z</time>
      </trkpt>
      <trkpt lat="42.757947" lon="1.398060">
        <ele>2078.5</ele>
        <time>2013-08-14T07:59:11Z</time>
      </trkpt>
      <trkpt lat="42.757939" lon="1.397959">
        <ele>2081.4</ele>
        <time>2013-08-14T07:59:24Z</time>
      </trkpt>
      <trkpt lat="42.757852" lon="1.398001">
        <ele>2083.8</ele>
        <time>2013-08-14T07:59:38Z</time>
      </trkpt>
      <trkpt lat="42.757770" lon="1.397965">
        <ele>2085.2</ele>
        <time>2013-08-14T07:59:49Z</time>
      </trkpt>
      <trkpt lat="42.757697" lon="1.397869">
        <ele>2087.2</ele>
        <time>2013-08-14T08:00:01Z</time>
      </trkpt>
      <trkpt lat="42.757634" lon="1.397799">
        <ele>2088.1</ele>
        <time>2013-08-14T08:00:12Z</time>
      </trkpt>
      <trkpt lat="42.757596" lon="1.397691">
        <ele>2091.0</ele>
        <time>2013-08-14T08:00:25Z</time>
      </trkpt>
      <trkpt lat="42.757505" lon="1.397657">
        <ele>2093.9</ele>
        <time>2013-08-14T08:00:38Z</time>
      </trkpt>
      <trkpt lat="42.757421" lon="1.397607">
        <ele>2096.3</ele>
        <time>2013-08-14T08:00:52Z</time>
      </trkpt>
      <trkpt lat="42.757353" lon="1.397512">
        <ele>2097.7</ele>
        <time>2013-08-14T08:01:07Z</time>
      </trkpt>
      <trkpt lat="42.757284" lon="1.397436">
        <ele>2100.1</ele>
        <time>2013-08-14T08:01:19Z</time>
      </trkpt>
      <trkpt lat="42.757221" lon="1.397348">
        <ele>2101.6</ele>
        <time>2013-08-14T08:01:33Z</time>
      </trkpt>
      <trkpt lat="42.757176" lon="1.397221">
        <ele>2105.9</ele>
        <time>2013-08-14T08:01:51Z</time>
      </trkpt>
      <trkpt lat="42.757127" lon="1.397116">
        <ele>2110.2</ele>
        <time>2013-08-14T08:02:09Z</time>
      </trkpt>
      <trkpt lat="42.757077" lon="1.397054">
        <ele>2113.6</ele>
        <time>2013-08-14T08:02:29Z</time>
      </trkpt>
      <trkpt lat="42.757005" lon="1.396997">
        <ele>2117.9</ele>
        <time>2013-08-14T08:02:50Z</time>
      </trkpt>
      <trkpt lat="42.756967" lon="1.396901">
        <ele>2121.8</ele>
        <time>2013-08-14T08:03:10Z</time>
      </trkpt>
      <trkpt lat="42.756933" lon="1.396793">
        <ele>2125.6</ele>
        <time>2013-08-14T08:03:29Z</time>
      </trkpt>
      <trkpt lat="42.756932" lon="1.396668">
        <ele>2129.0</ele>
        <time>2013-08-14T08:03:46Z</time>
      </trkpt>
      <trkpt lat="42.756871" lon="1.396614">
        <ele>2131.9</ele>
        <time>2013-08-14T08:04:01Z</time>
      </trkpt>
      <trkpt lat="42.756799" lon="1.396572">
        <ele>2134.7</ele>
        <time>2013-08-14T08:04:18Z</time>
      </trkpt>
      <trkpt lat="42.756713" lon="1.396568">
        <ele>2137.6</ele>
        <time>2013-08-14T08:04:35Z</time>
      </trkpt>
      <trkpt lat="42.756617" lon="1.396571">
        <ele>2139.1</ele>
        <time>2013-08-14T08:04:48Z</time>
      </trkpt>
      <trkpt lat="42.756524" lon="1.396542">
        <ele>2139.1</ele>
        <time>2013-08-14T08:05:00Z</time>
      </trkpt>
      <trkpt lat="42.756426" lon="1.396512">
        <ele>2139.1</ele>
        <time>2013-08-14T08:05:12Z</time>
      </trkpt>
      <trkpt lat="42.756339" lon="1.396556">
        <ele>2138.1</ele>
        <time>2013-08-14T08:05:24Z</time>
      </trkpt>
      <trkpt lat="42.756249" lon="1.396595">
        <ele>2135.7</ele>
        <time>2013-08-14T08:05:37Z</time>
      </trkpt>
      <trkpt lat="42.756194" lon="1.396644">
        <ele>2133.3</ele>
        <time>2013-08-14T08:05:48Z</time>
      </trkpt>
      <trkpt lat="42.756098" lon="1.396655">
        <ele>2133.3</ele>
        <time>2013-08-14T08:05:58Z</time>
      </trkpt>
      <trkpt lat="42.756006" lon="1.396646">
        <ele>2134.3</ele>
        <time>2013-08-14T08:06:12Z</time>
      </trkpt>
      <trkpt lat="42.755912" lon="1.396661">
        <ele>2132.3</ele>
        <time>2013-08-14T08:06:23Z</time>
      </trkpt>
      <trkpt lat="42.755834" lon="1.396708">
        <ele>2132.8</ele>
        <time>2013-08-14T08:06:41Z</time>
      </trkpt>
      <trkpt lat="42.755787" lon="1.396741">
        <ele>2135.2</ele>
        <time>2013-08-14T08:12:38Z</time>
      </trkpt>
      <trkpt lat="42.755693" lon="1.396726">
        <ele>2136.7</ele>
        <time>2013-08-14T08:12:52Z</time>
      </trkpt>
      <trkpt lat="42.755610" lon="1.396750">
        <ele>2139.6</ele>
        <time>2013-08-14T08:13:05Z</time>
      </trkpt>
      <trkpt lat="42.755518" lon="1.396743">
        <ele>2142.9</ele>
        <time>2013-08-14T08:13:20Z</time>
      </trkpt>
      <trkpt lat="42.755450" lon="1.396735">
        <ele>2145.8</ele>
        <time>2013-08-14T08:13:34Z</time>
      </trkpt>
      <trkpt lat="42.755363" lon="1.396761">
        <ele>2147.2</ele>
        <time>2013-08-14T08:13:49Z</time>
      </trkpt>
      <trkpt lat="42.755286" lon="1.396712">
        <ele>2148.7</ele>
        <time>2013-08-14T08:14:04Z</time>
      </trkpt>
      <trkpt lat="42.755204" lon="1.396694">
        <ele>2150.1</ele>
        <time>2013-08-14T08:14:46Z</time>
      </trkpt>
      <trkpt lat="42.755123" lon="1.396662">
        <ele>2152.1</ele>
        <time>2013-08-14T08:14:57Z</time>
      </trkpt>
      <trkpt lat="42.755040" lon="1.396625">
        <ele>2154.0</ele>
        <time>2013-08-14T08:15:07Z</time>
      </trkpt>
      <trkpt lat="42.754966" lon="1.396633">
        <ele>2154.9</ele>
        <time>2013-08-14T08:15:20Z</time>
      </trkpt>
      <trkpt lat="42.754866" lon="1.396644">
        <ele>2155.9</ele>
        <time>2013-08-14T08:15:31Z</time>
      </trkpt>
      <trkpt lat="42.754782" lon="1.396690">
        <ele>2156.9</ele>
        <time>2013-08-14T08:15:41Z</time>
      </trkpt>
      <trkpt lat="42.754680" lon="1.396695">
        <ele>2158.3</ele>
        <time>2013-08-14T08:15:56Z</time>
      </trkpt>
      <trkpt lat="42.754591" lon="1.396746">
        <ele>2159.3</ele>
        <time>2013-08-14T08:16:10Z</time>
      </trkpt>
      <trkpt lat="42.754500" lon="1.396735">
        <ele>2162.1</ele>
        <time>2013-08-14T08:16:27Z</time>
      </trkpt>
      <trkpt lat="42.754410" lon="1.396755">
        <ele>2163.6</ele>
        <time>2013-08-14T08:16:39Z</time>
      </trkpt>
      <trkpt lat="42.754324" lon="1.396804">
        <ele>2166.0</ele>
        <time>2013-08-14T08:16:52Z</time>
      </trkpt>
      <trkpt lat="42.754228" lon="1.396794">
        <ele>2167.4</ele>
        <time>2013-08-14T08:17:06Z</time>
      </trkpt>
      <trkpt lat="42.754166" lon="1.396804">
        <ele>2168.9</ele>
        <time>2013-08-14T08:17:55Z</time>
      </trkpt>
      <trkpt lat="42.754091" lon="1.396728">
        <ele>2171.8</ele>
        <time>2013-08-14T08:18:39Z</time>
      </trkpt>
      <trkpt lat="42.754004" lon="1.396707">
        <ele>2175.1</ele>
        <time>2013-08-14T08:18:56Z</time>
      </trkpt>
      <trkpt lat="42.753922" lon="1.396628">
        <ele>2177.5</ele>
        <time>2013-08-14T08:19:13Z</time>
      </trkpt>
      <trkpt lat="42.753857" lon="1.396560">
        <ele>2180.9</ele>
        <time>2013-08-14T08:19:32Z</time>
      </trkpt>
      <trkpt lat="42.753798" lon="1.396510">
        <ele>2182.3</ele>
        <time>2013-08-14T08:19:48Z</time>
      </trkpt>
      <trkpt lat="42.753743" lon="1.396438">
        <ele>2186.2</ele>
        <time>2013-08-14T08:20:05Z</time>
      </trkpt>
      <trkpt lat="42.753657" lon="1.396434">
        <ele>2186.7</ele>
        <time>2013-08-14T08:20:20Z</time>
      </trkpt>
      <trkpt lat="42.753573" lon="1.396403">
        <ele>2187.6</ele>
        <time>2013-08-14T08:20:33Z</time>
      </trkpt>
      <trkpt lat="42.753478" lon="1.396328">
        <ele>2190.0</ele>
        <time>2013-08-14T08:20:49Z</time>
      </trkpt>
      <trkpt lat="42.753430" lon="1.396255">
        <ele>2191.9</ele>
        <time>2013-08-14T08:21:03Z</time>
      </trkpt>
      <trkpt lat="42.753344" lon="1.396235">
        <ele>2192.4</ele>
        <time>2013-08-14T08:21:17Z</time>
      </trkpt>
      <trkpt lat="42.753244" lon="1.396160">
        <ele>2194.8</ele>
        <time>2013-08-14T08:21:33Z</time>
      </trkpt>
      <trkpt lat="42.753155" lon="1.396112">
        <ele>2193.9</ele>
        <time>2013-08-14T08:21:49Z</time>
      </trkpt>
      <trkpt lat="42.753064" lon="1.396055">
        <ele>2198.2</ele>
        <time>2013-08-14T08:22:08Z</time>
      </trkpt>
      <trkpt lat="42.752985" lon="1.395972">
        <ele>2200.1</ele>
        <time>2013-08-14T08:22:21Z</time>
      </trkpt>
      <trkpt lat="42.752889" lon="1.395971">
        <ele>2199.1</ele>
        <time>2013-08-14T08:22:32Z</time>
      </trkpt>
      <trkpt lat="42.752795" lon="1.395930">
        <ele>2201.6</ele>
        <time>2013-08-14T08:22:44Z</time>
      </trkpt>
      <trkpt lat="42.752701" lon="1.395913">
        <ele>2202.5</ele>
        <time>2013-08-14T08:22:55Z</time>
      </trkpt>
      <trkpt lat="42.752612" lon="1.395932">
        <ele>2205.9</ele>
        <time>2013-08-14T08:23:08Z</time>
      </trkpt>
      <trkpt lat="42.752521" lon="1.395900">
        <ele>2207.3</ele>
        <time>2013-08-14T08:23:21Z</time>
      </trkpt>
      <trkpt lat="42.752448" lon="1.395840">
        <ele>2211.2</ele>
        <time>2013-08-14T08:23:37Z</time>
      </trkpt>
      <trkpt lat="42.752366" lon="1.395813">
        <ele>2210.7</ele>
        <time>2013-08-14T08:23:51Z</time>
      </trkpt>
      <trkpt lat="42.752272" lon="1.395805">
        <ele>2210.7</ele>
        <time>2013-08-14T08:24:03Z</time>
      </trkpt>
      <trkpt lat="42.752203" lon="1.395740">
        <ele>2211.6</ele>
        <time>2013-08-14T08:24:13Z</time>
      </trkpt>
      <trkpt lat="42.752123" lon="1.395664">
        <ele>2212.1</ele>
        <time>2013-08-14T08:24:24Z</time>
      </trkpt>
      <trkpt lat="42.752035" lon="1.395607">
        <ele>2212.6</ele>
        <time>2013-08-14T08:24:36Z</time>
      </trkpt>
      <trkpt lat="42.751953" lon="1.395509">
        <ele>2215.0</ele>
        <time>2013-08-14T08:24:50Z</time>
      </trkpt>
      <trkpt lat="42.751917" lon="1.395416">
        <ele>2214.1</ele>
        <time>2013-08-14T08:25:04Z</time>
      </trkpt>
      <trkpt lat="42.751816" lon="1.395493">
        <ele>2217.4</ele>
        <time>2013-08-14T08:27:02Z</time>
      </trkpt>
      <trkpt lat="42.751767" lon="1.395414">
        <ele>2219.3</ele>
        <time>2013-08-14T08:27:13Z</time>
      </trkpt>
      <trkpt lat="42.751690" lon="1.395277">
        <ele>2223.2</ele>
        <time>2013-08-14T08:27:31Z</time>
      </trkpt>
      <trkpt lat="42.751648" lon="1.395204">
        <ele>2227.5</ele>
        <time>2013-08-14T08:28:17Z</time>
      </trkpt>
      <trkpt lat="42.751571" lon="1.395183">
        <ele>2228.9</ele>
        <time>2013-08-14T08:28:47Z</time>
      </trkpt>
      <trkpt lat="42.751487" lon="1.395099">
        <ele>2234.2</ele>
        <time>2013-08-14T08:29:18Z</time>
      </trkpt>
      <trkpt lat="42.751426" lon="1.394990">
        <ele>2238.1</ele>
        <time>2013-08-14T08:29:41Z</time>
      </trkpt>
      <trkpt lat="42.751357" lon="1.394891">
        <ele>2241.0</ele>
        <time>2013-08-14T08:29:58Z</time>
      </trkpt>
      <trkpt lat="42.751298" lon="1.394798">
        <ele>2240.0</ele>
        <time>2013-08-14T08:30:09Z</time>
      </trkpt>
      <trkpt lat="42.751213" lon="1.394730">
        <ele>2240.5</ele>
        <time>2013-08-14T08:30:20Z</time>
      </trkpt>
      <trkpt lat="42.751124" lon="1.394653">
        <ele>2241.9</ele>
        <time>2013-08-14T08:30:32Z</time>
      </trkpt>
      <trkpt lat="42.751044" lon="1.394617">
        <ele>2242.9</ele>
        <time>2013-08-14T08:30:46Z</time>
      </trkpt>
      <trkpt lat="42.750940" lon="1.394652">
        <ele>2244.3</ele>
        <time>2013-08-14T08:31:00Z</time>
      </trkpt>
      <trkpt lat="42.750855" lon="1.394626">
        <ele>2244.8</ele>
        <time>2013-08-14T08:31:13Z</time>
      </trkpt>
      <trkpt lat="42.750762" lon="1.394671">
        <ele>2242.4</ele>
        <time>2013-08-14T08:31:26Z</time>
      </trkpt>
      <trkpt lat="42.750688" lon="1.394586">
        <ele>2245.8</ele>
        <time>2013-08-14T08:31:44Z</time>
      </trkpt>
      <trkpt lat="42.750600" lon="1.394540">
        <ele>2246.7</ele>
        <time>2013-08-14T08:31:55Z</time>
      </trkpt>
      <trkpt lat="42.750533" lon="1.394456">
        <ele>2248.2</ele>
        <time>2013-08-14T08:32:09Z</time>
      </trkpt>
      <trkpt lat="42.750443" lon="1.394428">
        <ele>2249.6</ele>
        <time>2013-08-14T08:32:22Z</time>
      </trkpt>
      <trkpt lat="42.750358" lon="1.394352">
        <ele>2250.1</ele>
        <time>2013-08-14T08:32:34Z</time>
      </trkpt>
      <trkpt lat="42.750314" lon="1.394221">
        <ele>2252.5</ele>
        <time>2013-08-14T08:32:52Z</time>
      </trkpt>
      <trkpt lat="42.750282" lon="1.394129">
        <ele>2255.9</ele>
        <time>2013-08-14T08:33:14Z</time>
      </trkpt>
      <trkpt lat="42.750219" lon="1.394030">
        <ele>2257.3</ele>
        <time>2013-08-14T08:33:30Z</time>
      </trkpt>
      <trkpt lat="42.750141" lon="1.393965">
        <ele>2257.3</ele>
        <time>2013-08-14T08:33:42Z</time>
      </trkpt>
      <trkpt lat="42.750062" lon="1.393880">
        <ele>2258.8</ele>
        <time>2013-08-14T08:33:54Z</time>
      </trkpt>
      <trkpt lat="42.750031" lon="1.393771">
        <ele>2262.1</ele>
        <time>2013-08-14T08:34:12Z</time>
      </trkpt>
      <trkpt lat="42.749960" lon="1.393658">
        <ele>2263.1</ele>
        <time>2013-08-14T08:34:26Z</time>
      </trkpt>
      <trkpt lat="42.749888" lon="1.393581">
        <ele>2264.5</ele>
        <time>2013-08-14T08:34:38Z</time>
      </trkpt>
      <trkpt lat="42.749813" lon="1.393504">
        <ele>2266.4</ele>
        <time>2013-08-14T08:34:50Z</time>
      </trkpt>
      <trkpt lat="42.749727" lon="1.393461">
        <ele>2266.0</ele>
        <time>2013-08-14T08:35:05Z</time>
      </trkpt>
      <trkpt lat="42.749650" lon="1.393360">
        <ele>2267.4</ele>
        <time>2013-08-14T08:35:19Z</time>
      </trkpt>
      <trkpt lat="42.749567" lon="1.393309">
        <ele>2268.9</ele>
        <time>2013-08-14T08:35:32Z</time>
      </trkpt>
      <trkpt lat="42.749509" lon="1.393249">
        <ele>2271.2</ele>
        <time>2013-08-14T08:35:46Z</time>
      </trkpt>
      <trkpt lat="42.749423" lon="1.393217">
        <ele>2270.3</ele>
        <time>2013-08-14T08:35:58Z</time>
      </trkpt>
      <trkpt lat="42.749314" lon="1.393143">
        <ele>2270.3</ele>
        <time>2013-08-14T08:36:09Z</time>
      </trkpt>
      <trkpt lat="42.749250" lon="1.393074">
        <ele>2271.2</ele>
        <time>2013-08-14T08:36:28Z</time>
      </trkpt>
      <trkpt lat="42.749173" lon="1.393000">
        <ele>2272.2</ele>
        <time>2013-08-14T08:36:42Z</time>
      </trkpt>
      <trkpt lat="42.749096" lon="1.392906">
        <ele>2273.2</ele>
        <time>2013-08-14T08:36:56Z</time>
      </trkpt>
      <trkpt lat="42.749005" lon="1.392870">
        <ele>2274.6</ele>
        <time>2013-08-14T08:37:09Z</time>
      </trkpt>
      <trkpt lat="42.748914" lon="1.392821">
        <ele>2273.2</ele>
        <time>2013-08-14T08:37:32Z</time>
      </trkpt>
      <trkpt lat="42.748847" lon="1.392738">
        <ele>2274.1</ele>
        <time>2013-08-14T08:37:50Z</time>
      </trkpt>
      <trkpt lat="42.748765" lon="1.392660">
        <ele>2274.6</ele>
        <time>2013-08-14T08:38:10Z</time>
      </trkpt>
      <trkpt lat="42.748683" lon="1.392623">
        <ele>2277.0</ele>
        <time>2013-08-14T08:38:28Z</time>
      </trkpt>
      <trkpt lat="42.748614" lon="1.392553">
        <ele>2280.4</ele>
        <time>2013-08-14T08:38:46Z</time>
      </trkpt>
      <trkpt lat="42.748508" lon="1.392517">
        <ele>2282.8</ele>
        <time>2013-08-14T08:39:02Z</time>
      </trkpt>
      <trkpt lat="42.748432" lon="1.392457">
        <ele>2283.3</ele>
        <time>2013-08-14T08:39:16Z</time>
      </trkpt>
      <trkpt lat="42.748327" lon="1.392416">
        <ele>2285.2</ele>
        <time>2013-08-14T08:39:33Z</time>
      </trkpt>
      <trkpt lat="42.748221" lon="1.392387">
        <ele>2285.2</ele>
        <time>2013-08-14T08:39:45Z</time>
      </trkpt>
      <trkpt lat="42.748131" lon="1.392364">
        <ele>2286.1</ele>
        <time>2013-08-14T08:39:57Z</time>
      </trkpt>
      <trkpt lat="42.748028" lon="1.392380">
        <ele>2287.1</ele>
        <time>2013-08-14T08:40:12Z</time>
      </trkpt>
      <trkpt lat="42.747949" lon="1.392340">
        <ele>2287.1</ele>
        <time>2013-08-14T08:40:35Z</time>
      </trkpt>
      <trkpt lat="42.747898" lon="1.392245">
        <ele>2292.4</ele>
        <time>2013-08-14T08:40:58Z</time>
      </trkpt>
      <trkpt lat="42.747821" lon="1.392179">
        <ele>2293.8</ele>
        <time>2013-08-14T08:42:07Z</time>
      </trkpt>
      <trkpt lat="42.747722" lon="1.392182">
        <ele>2294.8</ele>
        <time>2013-08-14T08:42:22Z</time>
      </trkpt>
      <trkpt lat="42.747645" lon="1.392142">
        <ele>2297.7</ele>
        <time>2013-08-14T08:42:36Z</time>
      </trkpt>
      <trkpt lat="42.747556" lon="1.392113">
        <ele>2300.6</ele>
        <time>2013-08-14T08:42:52Z</time>
      </trkpt>
      <trkpt lat="42.747463" lon="1.392045">
        <ele>2303.9</ele>
        <time>2013-08-14T08:43:08Z</time>
      </trkpt>
      <trkpt lat="42.747385" lon="1.392035">
        <ele>2306.3</ele>
        <time>2013-08-14T08:43:23Z</time>
      </trkpt>
      <trkpt lat="42.747292" lon="1.391973">
        <ele>2305.9</ele>
        <time>2013-08-14T08:43:35Z</time>
      </trkpt>
      <trkpt lat="42.747192" lon="1.391974">
        <ele>2304.9</ele>
        <time>2013-08-14T08:43:46Z</time>
      </trkpt>
      <trkpt lat="42.747098" lon="1.391932">
        <ele>2304.9</ele>
        <time>2013-08-14T08:43:56Z</time>
      </trkpt>
      <trkpt lat="42.747004" lon="1.391943">
        <ele>2305.9</ele>
        <time>2013-08-14T08:44:12Z</time>
      </trkpt>
      <trkpt lat="42.746939" lon="1.392000">
        <ele>2304.9</ele>
        <time>2013-08-14T08:44:27Z</time>
      </trkpt>
      <trkpt lat="42.746878" lon="1.391964">
        <ele>2306.3</ele>
        <time>2013-08-14T08:44:47Z</time>
      </trkpt>
      <trkpt lat="42.746800" lon="1.391933">
        <ele>2311.1</ele>
        <time>2013-08-14T08:45:08Z</time>
      </trkpt>
      <trkpt lat="42.746732" lon="1.391908">
        <ele>2314.5</ele>
        <time>2013-08-14T08:45:32Z</time>
      </trkpt>
      <trkpt lat="42.746705" lon="1.391870">
        <ele>2317.9</ele>
        <time>2013-08-14T08:45:52Z</time>
      </trkpt>
      <trkpt lat="42.746628" lon="1.391884">
        <ele>2321.7</ele>
        <time>2013-08-14T08:46:12Z</time>
      </trkpt>
      <trkpt lat="42.746578" lon="1.391828">
        <ele>2326.1</ele>
        <time>2013-08-14T08:46:37Z</time>
      </trkpt>
      <trkpt lat="42.746535" lon="1.391830">
        <ele>2328.9</ele>
        <time>2013-08-14T08:47:01Z</time>
      </trkpt>
      <trkpt lat="42.746465" lon="1.391858">
        <ele>2331.3</ele>
        <time>2013-08-14T08:47:18Z</time>
      </trkpt>
      <trkpt lat="42.746377" lon="1.391836">
        <ele>2335.2</ele>
        <time>2013-08-14T08:47:37Z</time>
      </trkpt>
      <trkpt lat="42.746298" lon="1.391831">
        <ele>2338.1</ele>
        <time>2013-08-14T08:47:58Z</time>
      </trkpt>
      <trkpt lat="42.746212" lon="1.391809">
        <ele>2342.4</ele>
        <time>2013-08-14T08:48:21Z</time>
      </trkpt>
      <trkpt lat="42.746149" lon="1.391729">
        <ele>2346.2</ele>
        <time>2013-08-14T08:48:47Z</time>
      </trkpt>
      <trkpt lat="42.746087" lon="1.391767">
        <ele>2348.6</ele>
        <time>2013-08-14T08:52:02Z</time>
      </trkpt>
      <trkpt lat="42.746025" lon="1.391841">
        <ele>2351.5</ele>
        <time>2013-08-14T08:52:15Z</time>
      </trkpt>
      <trkpt lat="42.745910" lon="1.391883">
        <ele>2353.0</ele>
        <time>2013-08-14T08:52:57Z</time>
      </trkpt>
      <trkpt lat="42.745846" lon="1.391913">
        <ele>2353.0</ele>
        <time>2013-08-14T08:53:20Z</time>
      </trkpt>
      <trkpt lat="42.745747" lon="1.391962">
        <ele>2353.4</ele>
        <time>2013-08-14T08:53:32Z</time>
      </trkpt>
      <trkpt lat="42.745644" lon="1.391959">
        <ele>2354.4</ele>
        <time>2013-08-14T08:53:43Z</time>
      </trkpt>
      <trkpt lat="42.745555" lon="1.391965">
        <ele>2354.9</ele>
        <time>2013-08-14T08:53:54Z</time>
      </trkpt>
      <trkpt lat="42.745466" lon="1.391983">
        <ele>2356.3</ele>
        <time>2013-08-14T08:54:06Z</time>
      </trkpt>
      <trkpt lat="42.745363" lon="1.391976">
        <ele>2357.8</ele>
        <time>2013-08-14T08:54:18Z</time>
      </trkpt>
      <trkpt lat="42.745270" lon="1.391953">
        <ele>2361.1</ele>
        <time>2013-08-14T08:54:36Z</time>
      </trkpt>
      <trkpt lat="42.745194" lon="1.391937">
        <ele>2364.5</ele>
        <time>2013-08-14T08:54:51Z</time>
      </trkpt>
      <trkpt lat="42.745105" lon="1.391934">
        <ele>2367.4</ele>
        <time>2013-08-14T08:55:06Z</time>
      </trkpt>
      <trkpt lat="42.745025" lon="1.391917">
        <ele>2370.8</ele>
        <time>2013-08-14T08:55:24Z</time>
      </trkpt>
      <trkpt lat="42.744935" lon="1.391912">
        <ele>2373.6</ele>
        <time>2013-08-14T08:55:41Z</time>
      </trkpt>
      <trkpt lat="42.744858" lon="1.391919">
        <ele>2376.5</ele>
        <time>2013-08-14T08:55:56Z</time>
      </trkpt>
      <trkpt lat="42.744768" lon="1.391947">
        <ele>2378.4</ele>
        <time>2013-08-14T08:56:11Z</time>
      </trkpt>
      <trkpt lat="42.744689" lon="1.391948">
        <ele>2381.3</ele>
        <time>2013-08-14T08:56:28Z</time>
      </trkpt>
      <trkpt lat="42.744583" lon="1.391973">
        <ele>2382.3</ele>
        <time>2013-08-14T08:56:41Z</time>
      </trkpt>
      <trkpt lat="42.744494" lon="1.391986">
        <ele>2384.7</ele>
        <time>2013-08-14T08:57:13Z</time>
      </trkpt>
      <trkpt lat="42.744427" lon="1.391975">
        <ele>2386.1</ele>
        <time>2013-08-14T08:57:32Z</time>
      </trkpt>
      <trkpt lat="42.744363" lon="1.392041">
        <ele>2386.6</ele>
        <time>2013-08-14T08:57:45Z</time>
      </trkpt>
      <trkpt lat="42.744295" lon="1.392132">
        <ele>2384.7</ele>
        <time>2013-08-14T08:57:55Z</time>
      </trkpt>
      <trkpt lat="42.744255" lon="1.392217">
        <ele>2382.8</ele>
        <time>2013-08-14T08:58:10Z</time>
      </trkpt>
      <trkpt lat="42.744156" lon="1.392216">
        <ele>2381.8</ele>
        <time>2013-08-14T08:58:22Z</time>
      </trkpt>
      <trkpt lat="42.744059" lon="1.392159">
        <ele>2385.2</ele>
        <time>2013-08-14T08:58:36Z</time>
      </trkpt>
      <trkpt lat="42.743975" lon="1.392102">
        <ele>2385.6</ele>
        <time>2013-08-14T08:58:51Z</time>
      </trkpt>
      <trkpt lat="42.743906" lon="1.391990">
        <ele>2387.6</ele>
        <time>2013-08-14T08:59:08Z</time>
      </trkpt>
      <trkpt lat="42.743826" lon="1.391871">
        <ele>2388.1</ele>
        <time>2013-08-14T08:59:30Z</time>
      </trkpt>
      <trkpt lat="42.743758" lon="1.391801">
        <ele>2389.5</ele>
        <time>2013-08-14T08:59:52Z</time>
      </trkpt>
      <trkpt lat="42.743687" lon="1.391762">
        <ele>2390.9</ele>
        <time>2013-08-14T09:00:10Z</time>
      </trkpt>
      <trkpt lat="42.743595" lon="1.391784">
        <ele>2390.5</ele>
        <time>2013-08-14T09:00:30Z</time>
      </trkpt>
      <trkpt lat="42.743517" lon="1.391723">
        <ele>2392.4</ele>
        <time>2013-08-14T09:00:46Z</time>
      </trkpt>
      <trkpt lat="42.743443" lon="1.391739">
        <ele>2390.0</ele>
        <time>2013-08-14T09:01:24Z</time>
      </trkpt>
      <trkpt lat="42.743356" lon="1.391683">
        <ele>2390.9</ele>
        <time>2013-08-14T09:01:40Z</time>
      </trkpt>
      <trkpt lat="42.743266" lon="1.391642">
        <ele>2392.4</ele>
        <time>2013-08-14T09:01:53Z</time>
      </trkpt>
      <trkpt lat="42.743192" lon="1.391647">
        <ele>2394.3</ele>
        <time>2013-08-14T09:02:22Z</time>
      </trkpt>
      <trkpt lat="42.743160" lon="1.391563">
        <ele>2395.7</ele>
        <time>2013-08-14T09:02:53Z</time>
      </trkpt>
      <trkpt lat="42.743154" lon="1.391486">
        <ele>2398.6</ele>
        <time>2013-08-14T09:03:08Z</time>
      </trkpt>
      <trkpt lat="42.743154" lon="1.391345">
        <ele>2402.0</ele>
        <time>2013-08-14T09:03:27Z</time>
      </trkpt>
      <trkpt lat="42.743162" lon="1.391242">
        <ele>2406.3</ele>
        <time>2013-08-14T09:03:54Z</time>
      </trkpt>
      <trkpt lat="42.743163" lon="1.391179">
        <ele>2410.2</ele>
        <time>2013-08-14T09:05:17Z</time>
      </trkpt>
      <trkpt lat="42.743174" lon="1.391054">
        <ele>2415.4</ele>
        <time>2013-08-14T09:05:36Z</time>
      </trkpt>
      <trkpt lat="42.743174" lon="1.390962">
        <ele>2420.7</ele>
        <time>2013-08-14T09:06:01Z</time>
      </trkpt>
      <trkpt lat="42.743208" lon="1.390877">
        <ele>2425.1</ele>
        <time>2013-08-14T09:06:26Z</time>
      </trkpt>
      <trkpt lat="42.743144" lon="1.390805">
        <ele>2428.9</ele>
        <time>2013-08-14T09:06:50Z</time>
      </trkpt>
      <trkpt lat="42.743104" lon="1.390666">
        <ele>2433.2</ele>
        <time>2013-08-14T09:07:15Z</time>
      </trkpt>
      <trkpt lat="42.743123" lon="1.390566">
        <ele>2437.6</ele>
        <time>2013-08-14T09:07:41Z</time>
      </trkpt>
      <trkpt lat="42.743160" lon="1.390503">
        <ele>2440.9</ele>
        <time>2013-08-14T09:08:02Z</time>
      </trkpt>
      <trkpt lat="42.743103" lon="1.390434">
        <ele>2444.8</ele>
        <time>2013-08-14T09:08:25Z</time>
      </trkpt>
      <trkpt lat="42.743051" lon="1.390334">
        <ele>2446.7</ele>
        <time>2013-08-14T09:08:46Z</time>
      </trkpt>
      <trkpt lat="42.742985" lon="1.390251">
        <ele>2449.1</ele>
        <time>2013-08-14T09:09:05Z</time>
      </trkpt>
      <trkpt lat="42.742934" lon="1.390163">
        <ele>2452.0</ele>
        <time>2013-08-14T09:11:16Z</time>
      </trkpt>
      <trkpt lat="42.742861" lon="1.390106">
        <ele>2454.4</ele>
        <time>2013-08-14T09:11:40Z</time>
      </trkpt>
      <trkpt lat="42.742804" lon="1.390026">
        <ele>2457.8</ele>
        <time>2013-08-14T09:12:01Z</time>
      </trkpt>
      <trkpt lat="42.742713" lon="1.389960">
        <ele>2460.1</ele>
        <time>2013-08-14T09:12:19Z</time>
      </trkpt>
      <trkpt lat="42.742622" lon="1.389925">
        <ele>2459.7</ele>
        <time>2013-08-14T09:12:40Z</time>
      </trkpt>
      <trkpt lat="42.742569" lon="1.389937">
        <ele>2460.6</ele>
        <time>2013-08-14T09:14:05Z</time>
      </trkpt>
      <trkpt lat="42.742464" lon="1.389890">
        <ele>2461.6</ele>
        <time>2013-08-14T09:14:20Z</time>
      </trkpt>
      <trkpt lat="42.742396" lon="1.389816">
        <ele>2464.5</ele>
        <time>2013-08-14T09:14:40Z</time>
      </trkpt>
      <trkpt lat="42.742304" lon="1.389814">
        <ele>2464.5</ele>
        <time>2013-08-14T09:14:53Z</time>
      </trkpt>
      <trkpt lat="42.742231" lon="1.389790">
        <ele>2464.0</ele>
        <time>2013-08-14T09:15:27Z</time>
      </trkpt>
      <trkpt lat="42.742156" lon="1.389715">
        <ele>2467.4</ele>
        <time>2013-08-14T09:15:42Z</time>
      </trkpt>
      <trkpt lat="42.742175" lon="1.389646">
        <ele>2471.2</ele>
        <time>2013-08-14T09:16:01Z</time>
      </trkpt>
      <trkpt lat="42.742157" lon="1.389552">
        <ele>2476.0</ele>
        <time>2013-08-14T09:16:21Z</time>
      </trkpt>
      <trkpt lat="42.742118" lon="1.389457">
        <ele>2478.9</ele>
        <time>2013-08-14T09:16:45Z</time>
      </trkpt>
      <trkpt lat="42.742018" lon="1.389429">
        <ele>2480.3</ele>
        <time>2013-08-14T09:17:05Z</time>
      </trkpt>
      <trkpt lat="42.741955" lon="1.389370">
        <ele>2483.7</ele>
        <time>2013-08-14T09:18:48Z</time>
      </trkpt>
      <trkpt lat="42.741901" lon="1.389298">
        <ele>2488.5</ele>
        <time>2013-08-14T09:19:08Z</time>
      </trkpt>
      <trkpt lat="42.741836" lon="1.389194">
        <ele>2491.4</ele>
        <time>2013-08-14T09:19:25Z</time>
      </trkpt>
      <trkpt lat="42.741752" lon="1.389116">
        <ele>2494.8</ele>
        <time>2013-08-14T09:19:43Z</time>
      </trkpt>
      <trkpt lat="42.741668" lon="1.389094">
        <ele>2496.7</ele>
        <time>2013-08-14T09:19:56Z</time>
      </trkpt>
      <trkpt lat="42.741619" lon="1.389039">
        <ele>2499.6</ele>
        <time>2013-08-14T09:20:25Z</time>
      </trkpt>
      <trkpt lat="42.741535" lon="1.388989">
        <ele>2501.5</ele>
        <time>2013-08-14T09:20:46Z</time>
      </trkpt>
      <trkpt lat="42.741450" lon="1.388987">
        <ele>2503.4</ele>
        <time>2013-08-14T09:21:50Z</time>
      </trkpt>
      <trkpt lat="42.741345" lon="1.388991">
        <ele>2502.0</ele>
        <time>2013-08-14T09:22:17Z</time>
      </trkpt>
      <trkpt lat="42.741241" lon="1.388986">
        <ele>2502.0</ele>
        <time>2013-08-14T09:22:34Z</time>
      </trkpt>
      <trkpt lat="42.741171" lon="1.389022">
        <ele>2501.0</ele>
        <time>2013-08-14T09:22:51Z</time>
      </trkpt>
      <trkpt lat="42.741096" lon="1.389084">
        <ele>2503.4</ele>
        <time>2013-08-14T09:23:14Z</time>
      </trkpt>
      <trkpt lat="42.740980" lon="1.389100">
        <ele>2502.4</ele>
        <time>2013-08-14T09:23:31Z</time>
      </trkpt>
      <trkpt lat="42.740950" lon="1.389162">
        <ele>2500.1</ele>
        <time>2013-08-14T09:24:07Z</time>
      </trkpt>
      <trkpt lat="42.740862" lon="1.389174">
        <ele>2501.0</ele>
        <time>2013-08-14T09:24:23Z</time>
      </trkpt>
      <trkpt lat="42.740737" lon="1.389177">
        <ele>2501.5</ele>
        <time>2013-08-14T09:24:37Z</time>
      </trkpt>
      <trkpt lat="42.740672" lon="1.389232">
        <ele>2503.4</ele>
        <time>2013-08-14T09:25:30Z</time>
      </trkpt>
      <trkpt lat="42.740603" lon="1.389314">
        <ele>2503.4</ele>
        <time>2013-08-14T09:26:16Z</time>
      </trkpt>
      <trkpt lat="42.740544" lon="1.389327">
        <ele>2504.4</ele>
        <time>2013-08-14T09:26:33Z</time>
      </trkpt>
      <trkpt lat="42.740476" lon="1.389432">
        <ele>2505.3</ele>
        <time>2013-08-14T09:26:53Z</time>
      </trkpt>
      <trkpt lat="42.740396" lon="1.389485">
        <ele>2506.3</ele>
        <time>2013-08-14T09:27:08Z</time>
      </trkpt>
      <trkpt lat="42.740341" lon="1.389528">
        <ele>2508.7</ele>
        <time>2013-08-14T09:27:27Z</time>
      </trkpt>
      <trkpt lat="42.740244" lon="1.389552">
        <ele>2511.6</ele>
        <time>2013-08-14T09:27:43Z</time>
      </trkpt>
      <trkpt lat="42.740140" lon="1.389605">
        <ele>2514.0</ele>
        <time>2013-08-14T09:28:00Z</time>
      </trkpt>
      <trkpt lat="42.740056" lon="1.389578">
        <ele>2517.4</ele>
        <time>2013-08-14T09:28:25Z</time>
      </trkpt>
      <trkpt lat="42.739971" lon="1.389579">
        <ele>2520.2</ele>
        <time>2013-08-14T09:28:42Z</time>
      </trkpt>
      <trkpt lat="42.739894" lon="1.389632">
        <ele>2522.6</ele>
        <time>2013-08-14T09:29:04Z</time>
      </trkpt>
      <trkpt lat="42.739797" lon="1.389659">
        <ele>2525.0</ele>
        <time>2013-08-14T09:29:23Z</time>
      </trkpt>
      <trkpt lat="42.739701" lon="1.389695">
        <ele>2527.0</ele>
        <time>2013-08-14T09:29:42Z</time>
      </trkpt>
      <trkpt lat="42.739632" lon="1.389748">
        <ele>2529.9</ele>
        <time>2013-08-14T09:30:01Z</time>
      </trkpt>
      <trkpt lat="42.739563" lon="1.389738">
        <ele>2531.8</ele>
        <time>2013-08-14T09:30:27Z</time>
      </trkpt>
      <trkpt lat="42.739449" lon="1.389731">
        <ele>2531.3</ele>
        <time>2013-08-14T09:30:46Z</time>
      </trkpt>
      <trkpt lat="42.739353" lon="1.389702">
        <ele>2531.8</ele>
        <time>2013-08-14T09:31:07Z</time>
      </trkpt>
      <trkpt lat="42.739287" lon="1.389795">
        <ele>2528.9</ele>
        <time>2013-08-14T09:31:39Z</time>
      </trkpt>
      <trkpt lat="42.739198" lon="1.389799">
        <ele>2527.9</ele>
        <time>2013-08-14T09:32:14Z</time>
      </trkpt>
      <trkpt lat="42.739102" lon="1.389866">
        <ele>2525.5</ele>
        <time>2013-08-14T09:32:42Z</time>
      </trkpt>
      <trkpt lat="42.739003" lon="1.389820">
        <ele>2526.0</ele>
        <time>2013-08-14T09:32:59Z</time>
      </trkpt>
      <trkpt lat="42.739008" lon="1.389882">
        <ele>2524.6</ele>
        <time>2013-08-14T09:34:11Z</time>
      </trkpt>
      <trkpt lat="42.738970" lon="1.389902">
        <ele>2525.0</ele>
        <time>2013-08-14T09:35:23Z</time>
      </trkpt>
      <trkpt lat="42.738867" lon="1.389940">
        <ele>2526.5</ele>
        <time>2013-08-14T09:36:07Z</time>
      </trkpt>
      <trkpt lat="42.738842" lon="1.390008">
        <ele>2524.6</ele>
        <time>2013-08-14T09:38:17Z</time>
      </trkpt>
      <trkpt lat="42.738732" lon="1.390023">
        <ele>2525.5</ele>
        <time>2013-08-14T09:38:48Z</time>
      </trkpt>
      <trkpt lat="42.738643" lon="1.390052">
        <ele>2526.0</ele>
        <time>2013-08-14T09:39:08Z</time>
      </trkpt>
      <trkpt lat="42.738562" lon="1.390026">
        <ele>2529.9</ele>
        <time>2013-08-14T09:39:31Z</time>
      </trkpt>
      <trkpt lat="42.738501" lon="1.390129">
        <ele>2527.0</ele>
        <time>2013-08-14T09:39:54Z</time>
      </trkpt>
      <trkpt lat="42.738401" lon="1.390139">
        <ele>2527.4</ele>
        <time>2013-08-14T09:40:16Z</time>
      </trkpt>
      <trkpt lat="42.738323" lon="1.390173">
        <ele>2527.0</ele>
        <time>2013-08-14T09:40:36Z</time>
      </trkpt>
      <trkpt lat="42.738281" lon="1.390213">
        <ele>2525.0</ele>
        <time>2013-08-14T09:40:52Z</time>
      </trkpt>
      <trkpt lat="42.738168" lon="1.390186">
        <ele>2522.6</ele>
        <time>2013-08-14T09:41:08Z</time>
      </trkpt>
      <trkpt lat="42.738092" lon="1.390201">
        <ele>2523.6</ele>
        <time>2013-08-14T09:42:28Z</time>
      </trkpt>
      <trkpt lat="42.738004" lon="1.390240">
        <ele>2524.1</ele>
        <time>2013-08-14T09:42:44Z</time>
      </trkpt>
      <trkpt lat="42.737895" lon="1.390252">
        <ele>2526.5</ele>
        <time>2013-08-14T09:43:03Z</time>
      </trkpt>
      <trkpt lat="42.737792" lon="1.390288">
        <ele>2527.4</ele>
        <time>2013-08-14T09:43:23Z</time>
      </trkpt>
      <trkpt lat="42.737714" lon="1.390370">
        <ele>2528.9</ele>
        <time>2013-08-14T09:43:39Z</time>
      </trkpt>
      <trkpt lat="42.737663" lon="1.390451">
        <ele>2528.4</ele>
        <time>2013-08-14T09:44:00Z</time>
      </trkpt>
      <trkpt lat="42.737596" lon="1.390540">
        <ele>2529.4</ele>
        <time>2013-08-14T09:44:14Z</time>
      </trkpt>
      <trkpt lat="42.737523" lon="1.390600">
        <ele>2530.8</ele>
        <time>2013-08-14T09:44:27Z</time>
      </trkpt>
      <trkpt lat="42.737461" lon="1.390678">
        <ele>2532.7</ele>
        <time>2013-08-14T09:44:46Z</time>
      </trkpt>
      <trkpt lat="42.737402" lon="1.390652">
        <ele>2537.1</ele>
        <time>2013-08-14T09:45:13Z</time>
      </trkpt>
      <trkpt lat="42.737336" lon="1.390682">
        <ele>2541.9</ele>
        <time>2013-08-14T09:46:09Z</time>
      </trkpt>
      <trkpt lat="42.737256" lon="1.390759">
        <ele>2546.2</ele>
        <time>2013-08-14T09:46:53Z</time>
      </trkpt>
      <trkpt lat="42.737212" lon="1.390841">
        <ele>2548.1</ele>
        <time>2013-08-14T09:47:11Z</time>
      </trkpt>
      <trkpt lat="42.737169" lon="1.390974">
        <ele>2549.6</ele>
        <time>2013-08-14T09:47:36Z</time>
      </trkpt>
      <trkpt lat="42.737111" lon="1.391075">
        <ele>2553.9</ele>
        <time>2013-08-14T09:47:56Z</time>
      </trkpt>
      <trkpt lat="42.737027" lon="1.391158">
        <ele>2558.2</ele>
        <time>2013-08-14T09:48:21Z</time>
      </trkpt>
      <trkpt lat="42.736970" lon="1.391236">
        <ele>2562.1</ele>
        <time>2013-08-14T09:48:41Z</time>
      </trkpt>
      <trkpt lat="42.736914" lon="1.391323">
        <ele>2565.9</ele>
        <time>2013-08-14T09:49:05Z</time>
      </trkpt>
      <trkpt lat="42.736862" lon="1.391387">
        <ele>2568.3</ele>
        <time>2013-08-14T09:49:26Z</time>
      </trkpt>
      <trkpt lat="42.736808" lon="1.391489">
        <ele>2571.7</ele>
        <time>2013-08-14T09:49:50Z</time>
      </trkpt>
      <trkpt lat="42.736782" lon="1.391532">
        <ele>2575.5</ele>
        <time>2013-08-14T09:51:23Z</time>
      </trkpt>
      <trkpt lat="42.736706" lon="1.391537">
        <ele>2578.9</ele>
        <time>2013-08-14T09:51:44Z</time>
      </trkpt>
      <trkpt lat="42.736626" lon="1.391652">
        <ele>2583.2</ele>
        <time>2013-08-14T09:52:07Z</time>
      </trkpt>
      <trkpt lat="42.736555" lon="1.391638">
        <ele>2587.0</ele>
        <time>2013-08-14T09:52:32Z</time>
      </trkpt>
      <trkpt lat="42.736481" lon="1.391707">
        <ele>2591.4</ele>
        <time>2013-08-14T09:53:00Z</time>
      </trkpt>
      <trkpt lat="42.736443" lon="1.391816">
        <ele>2594.2</ele>
        <time>2013-08-14T09:53:20Z</time>
      </trkpt>
      <trkpt lat="42.736362" lon="1.391839">
        <ele>2598.1</ele>
        <time>2013-08-14T09:53:43Z</time>
      </trkpt>
      <trkpt lat="42.736290" lon="1.391903">
        <ele>2602.9</ele>
        <time>2013-08-14T09:54:18Z</time>
      </trkpt>
      <trkpt lat="42.736217" lon="1.391923">
        <ele>2605.8</ele>
        <time>2013-08-14T09:54:41Z</time>
      </trkpt>
      <trkpt lat="42.736142" lon="1.391956">
        <ele>2610.1</ele>
        <time>2013-08-14T09:55:14Z</time>
      </trkpt>
      <trkpt lat="42.736073" lon="1.392015">
        <ele>2613.5</ele>
        <time>2013-08-14T09:55:34Z</time>
      </trkpt>
      <trkpt lat="42.736004" lon="1.392032">
        <ele>2617.8</ele>
        <time>2013-08-14T09:55:56Z</time>
      </trkpt>
      <trkpt lat="42.735922" lon="1.392059">
        <ele>2622.1</ele>
        <time>2013-08-14T09:56:20Z</time>
      </trkpt>
      <trkpt lat="42.735854" lon="1.392012">
        <ele>2625.5</ele>
        <time>2013-08-14T09:56:42Z</time>
      </trkpt>
      <trkpt lat="42.735789" lon="1.391925">
        <ele>2629.3</ele>
        <time>2013-08-14T09:57:06Z</time>
      </trkpt>
      <trkpt lat="42.735708" lon="1.391949">
        <ele>2632.7</ele>
        <time>2013-08-14T09:57:28Z</time>
      </trkpt>
      <trkpt lat="42.735633" lon="1.391940">
        <ele>2636.6</ele>
        <time>2013-08-14T09:57:51Z</time>
      </trkpt>
      <trkpt lat="42.735559" lon="1.391883">
        <ele>2639.4</ele>
        <time>2013-08-14T09:58:11Z</time>
      </trkpt>
      <trkpt lat="42.735491" lon="1.391819">
        <ele>2642.3</ele>
        <time>2013-08-14T09:58:30Z</time>
      </trkpt>
      <trkpt lat="42.735417" lon="1.391824">
        <ele>2645.2</ele>
        <time>2013-08-14T09:59:36Z</time>
      </trkpt>
      <trkpt lat="42.735367" lon="1.391847">
        <ele>2647.1</ele>
        <time>2013-08-14T09:59:58Z</time>
      </trkpt>
      <trkpt lat="42.735285" lon="1.391875">
        <ele>2651.0</ele>
        <time>2013-08-14T10:00:19Z</time>
      </trkpt>
      <trkpt lat="42.735203" lon="1.391881">
        <ele>2654.3</ele>
        <time>2013-08-14T10:00:39Z</time>
      </trkpt>
      <trkpt lat="42.735115" lon="1.391872">
        <ele>2658.2</ele>
        <time>2013-08-14T10:01:03Z</time>
      </trkpt>
      <trkpt lat="42.735012" lon="1.391868">
        <ele>2661.1</ele>
        <time>2013-08-14T10:01:25Z</time>
      </trkpt>
      <trkpt lat="42.734932" lon="1.391811">
        <ele>2663.9</ele>
        <time>2013-08-14T10:01:46Z</time>
      </trkpt>
      <trkpt lat="42.734858" lon="1.391788">
        <ele>2667.3</ele>
        <time>2013-08-14T10:02:07Z</time>
      </trkpt>
      <trkpt lat="42.734850" lon="1.391734">
        <ele>2667.8</ele>
        <time>2013-08-14T10:03:05Z</time>
      </trkpt>
      <trkpt lat="42.734837" lon="1.391757">
        <ele>2669.2</ele>
        <time>2013-08-14T10:04:46Z</time>
      </trkpt>
      <trkpt lat="42.734801" lon="1.391637">
        <ele>2668.3</ele>
        <time>2013-08-14T10:04:59Z</time>
      </trkpt>
      <trkpt lat="42.734792" lon="1.391516">
        <ele>2668.8</ele>
        <time>2013-08-14T10:05:09Z</time>
      </trkpt>
      <trkpt lat="42.734746" lon="1.391418">
        <ele>2669.2</ele>
        <time>2013-08-14T10:05:20Z</time>
      </trkpt>
      <trkpt lat="42.734704" lon="1.391287">
        <ele>2669.7</ele>
        <time>2013-08-14T10:05:32Z</time>
      </trkpt>
      <trkpt lat="42.734682" lon="1.391190">
        <ele>2670.2</ele>
        <time>2013-08-14T10:06:01Z</time>
      </trkpt>
      <trkpt lat="42.734678" lon="1.391188">
        <ele>2673.1</ele>
        <time>2013-08-14T10:17:17Z</time>
      </trkpt>
      <trkpt lat="42.734684" lon="1.391202">
        <ele>2677.9</ele>
        <time>2013-08-14T11:31:08Z</time>
      </trkpt>
      <trkpt lat="42.734658" lon="1.391186">
        <ele>2678.4</ele>
        <time>2013-08-14T11:33:43Z</time>
      </trkpt>
      <trkpt lat="42.734650" lon="1.391200">
        <ele>2678.4</ele>
        <time>2013-08-14T11:36:11Z</time>
      </trkpt>
      <trkpt lat="42.734677" lon="1.391208">
        <ele>2676.9</ele>
        <time>2013-08-14T11:42:26Z</time>
      </trkpt>
      <trkpt lat="42.734677" lon="1.391238">
        <ele>2677.4</ele>
        <time>2013-08-14T11:43:50Z</time>
      </trkpt>
      <trkpt lat="42.734758" lon="1.391328">
        <ele>2676.4</ele>
        <time>2013-08-14T11:44:16Z</time>
      </trkpt>
      <trkpt lat="42.734793" lon="1.391472">
        <ele>2675.5</ele>
        <time>2013-08-14T11:44:35Z</time>
      </trkpt>
      <trkpt lat="42.734843" lon="1.391593">
        <ele>2675.0</ele>
        <time>2013-08-14T11:44:54Z</time>
      </trkpt>
      <trkpt lat="42.734923" lon="1.391635">
        <ele>2673.1</ele>
        <time>2013-08-14T11:45:29Z</time>
      </trkpt>
      <trkpt lat="42.735010" lon="1.391658">
        <ele>2669.2</ele>
        <time>2013-08-14T11:45:46Z</time>
      </trkpt>
      <trkpt lat="42.735088" lon="1.391630">
        <ele>2665.9</ele>
        <time>2013-08-14T11:46:01Z</time>
      </trkpt>
      <trkpt lat="42.735177" lon="1.391672">
        <ele>2662.5</ele>
        <time>2013-08-14T11:46:17Z</time>
      </trkpt>
      <trkpt lat="42.735261" lon="1.391701">
        <ele>2659.1</ele>
        <time>2013-08-14T11:46:34Z</time>
      </trkpt>
      <trkpt lat="42.735338" lon="1.391726">
        <ele>2655.8</ele>
        <time>2013-08-14T11:46:51Z</time>
      </trkpt>
      <trkpt lat="42.735423" lon="1.391759">
        <ele>2652.9</ele>
        <time>2013-08-14T11:47:04Z</time>
      </trkpt>
      <trkpt lat="42.735509" lon="1.391812">
        <ele>2650.0</ele>
        <time>2013-08-14T11:47:51Z</time>
      </trkpt>
      <trkpt lat="42.735600" lon="1.391810">
        <ele>2644.2</ele>
        <time>2013-08-14T11:48:08Z</time>
      </trkpt>
      <trkpt lat="42.735659" lon="1.391699">
        <ele>2640.4</ele>
        <time>2013-08-14T11:48:27Z</time>
      </trkpt>
      <trkpt lat="42.735760" lon="1.391685">
        <ele>2637.0</ele>
        <time>2013-08-14T11:48:43Z</time>
      </trkpt>
      <trkpt lat="42.735816" lon="1.391600">
        <ele>2633.2</ele>
        <time>2013-08-14T11:48:57Z</time>
      </trkpt>
      <trkpt lat="42.735896" lon="1.391531">
        <ele>2630.3</ele>
        <time>2013-08-14T11:49:11Z</time>
      </trkpt>
      <trkpt lat="42.735956" lon="1.391449">
        <ele>2626.0</ele>
        <time>2013-08-14T11:49:26Z</time>
      </trkpt>
      <trkpt lat="42.736044" lon="1.391509">
        <ele>2622.6</ele>
        <time>2013-08-14T11:49:40Z</time>
      </trkpt>
      <trkpt lat="42.736121" lon="1.391468">
        <ele>2619.7</ele>
        <time>2013-08-14T11:49:54Z</time>
      </trkpt>
      <trkpt lat="42.736204" lon="1.391478">
        <ele>2615.9</ele>
        <time>2013-08-14T11:50:09Z</time>
      </trkpt>
      <trkpt lat="42.736280" lon="1.391486">
        <ele>2612.0</ele>
        <time>2013-08-14T11:50:25Z</time>
      </trkpt>
      <trkpt lat="42.736361" lon="1.391404">
        <ele>2607.7</ele>
        <time>2013-08-14T11:50:39Z</time>
      </trkpt>
      <trkpt lat="42.736436" lon="1.391342">
        <ele>2602.4</ele>
        <time>2013-08-14T11:50:58Z</time>
      </trkpt>
      <trkpt lat="42.736480" lon="1.391256">
        <ele>2599.5</ele>
        <time>2013-08-14T11:52:23Z</time>
      </trkpt>
      <trkpt lat="42.736578" lon="1.391219">
        <ele>2595.2</ele>
        <time>2013-08-14T11:52:34Z</time>
      </trkpt>
      <trkpt lat="42.736632" lon="1.391141">
        <ele>2591.9</ele>
        <time>2013-08-14T11:52:45Z</time>
      </trkpt>
      <trkpt lat="42.736740" lon="1.391169">
        <ele>2586.6</ele>
        <time>2013-08-14T11:53:02Z</time>
      </trkpt>
      <trkpt lat="42.736812" lon="1.391148">
        <ele>2582.2</ele>
        <time>2013-08-14T11:53:22Z</time>
      </trkpt>
      <trkpt lat="42.736905" lon="1.391047">
        <ele>2577.9</ele>
        <time>2013-08-14T11:53:39Z</time>
      </trkpt>
      <trkpt lat="42.736951" lon="1.390986">
        <ele>2574.1</ele>
        <time>2013-08-14T11:53:57Z</time>
      </trkpt>
      <trkpt lat="42.737051" lon="1.390907">
        <ele>2569.7</ele>
        <time>2013-08-14T11:54:19Z</time>
      </trkpt>
      <trkpt lat="42.737076" lon="1.390951">
        <ele>2565.9</ele>
        <time>2013-08-14T11:54:40Z</time>
      </trkpt>
      <trkpt lat="42.737166" lon="1.390938">
        <ele>2561.6</ele>
        <time>2013-08-14T11:55:01Z</time>
      </trkpt>
      <trkpt lat="42.737230" lon="1.390859">
        <ele>2555.8</ele>
        <time>2013-08-14T11:55:26Z</time>
      </trkpt>
      <trkpt lat="42.737334" lon="1.390764">
        <ele>2552.4</ele>
        <time>2013-08-14T11:55:50Z</time>
      </trkpt>
      <trkpt lat="42.737413" lon="1.390702">
        <ele>2548.6</ele>
        <time>2013-08-14T11:56:06Z</time>
      </trkpt>
      <trkpt lat="42.737494" lon="1.390679">
        <ele>2543.8</ele>
        <time>2013-08-14T11:56:28Z</time>
      </trkpt>
      <trkpt lat="42.737570" lon="1.390664">
        <ele>2538.5</ele>
        <time>2013-08-14T11:56:53Z</time>
      </trkpt>
      <trkpt lat="42.737656" lon="1.390636">
        <ele>2535.6</ele>
        <time>2013-08-14T11:57:34Z</time>
      </trkpt>
      <trkpt lat="42.737756" lon="1.390636">
        <ele>2530.8</ele>
        <time>2013-08-14T11:57:51Z</time>
      </trkpt>
      <trkpt lat="42.737830" lon="1.390623">
        <ele>2527.9</ele>
        <time>2013-08-14T11:58:06Z</time>
      </trkpt>
      <trkpt lat="42.737916" lon="1.390612">
        <ele>2525.0</ele>
        <time>2013-08-14T11:58:25Z</time>
      </trkpt>
      <trkpt lat="42.738015" lon="1.390632">
        <ele>2523.1</ele>
        <time>2013-08-14T11:58:37Z</time>
      </trkpt>
      <trkpt lat="42.738115" lon="1.390654">
        <ele>2522.2</ele>
        <time>2013-08-14T11:59:16Z</time>
      </trkpt>
      <trkpt lat="42.738189" lon="1.390641">
        <ele>2522.2</ele>
        <time>2013-08-14T11:59:27Z</time>
      </trkpt>
      <trkpt lat="42.738283" lon="1.390675">
        <ele>2522.6</ele>
        <time>2013-08-14T11:59:38Z</time>
      </trkpt>
      <trkpt lat="42.738376" lon="1.390731">
        <ele>2521.7</ele>
        <time>2013-08-14T11:59:49Z</time>
      </trkpt>
      <trkpt lat="42.738464" lon="1.390765">
        <ele>2520.2</ele>
        <time>2013-08-14T12:00:00Z</time>
      </trkpt>
      <trkpt lat="42.738537" lon="1.390737">
        <ele>2519.3</ele>
        <time>2013-08-14T12:00:16Z</time>
      </trkpt>
      <trkpt lat="42.738626" lon="1.390730">
        <ele>2516.4</ele>
        <time>2013-08-14T12:00:34Z</time>
      </trkpt>
      <trkpt lat="42.738710" lon="1.390683">
        <ele>2514.5</ele>
        <time>2013-08-14T12:00:51Z</time>
      </trkpt>
      <trkpt lat="42.738803" lon="1.390709">
        <ele>2511.6</ele>
        <time>2013-08-14T12:01:04Z</time>
      </trkpt>
      <trkpt lat="42.738885" lon="1.390687">
        <ele>2508.7</ele>
        <time>2013-08-14T12:01:20Z</time>
      </trkpt>
      <trkpt lat="42.738965" lon="1.390657">
        <ele>2506.8</ele>
        <time>2013-08-14T12:01:34Z</time>
      </trkpt>
      <trkpt lat="42.739010" lon="1.390627">
        <ele>2505.3</ele>
        <time>2013-08-14T12:01:51Z</time>
      </trkpt>
      <trkpt lat="42.739084" lon="1.390554">
        <ele>2504.4</ele>
        <time>2013-08-14T12:02:07Z</time>
      </trkpt>
      <trkpt lat="42.739178" lon="1.390540">
        <ele>2502.9</ele>
        <time>2013-08-14T12:02:22Z</time>
      </trkpt>
      <trkpt lat="42.739282" lon="1.390526">
        <ele>2502.0</ele>
        <time>2013-08-14T12:02:44Z</time>
      </trkpt>
      <trkpt lat="42.739339" lon="1.390584">
        <ele>2500.1</ele>
        <time>2013-08-14T12:03:15Z</time>
      </trkpt>
      <trkpt lat="42.739422" lon="1.390634">
        <ele>2498.1</ele>
        <time>2013-08-14T12:03:29Z</time>
      </trkpt>
      <trkpt lat="42.739535" lon="1.390643">
        <ele>2495.7</ele>
        <time>2013-08-14T12:03:50Z</time>
      </trkpt>
      <trkpt lat="42.739621" lon="1.390683">
        <ele>2494.8</ele>
        <time>2013-08-14T12:04:08Z</time>
      </trkpt>
      <trkpt lat="42.739694" lon="1.390717">
        <ele>2492.8</ele>
        <time>2013-08-14T12:04:34Z</time>
      </trkpt>
      <trkpt lat="42.739804" lon="1.390735">
        <ele>2492.8</ele>
        <time>2013-08-14T12:04:47Z</time>
      </trkpt>
      <trkpt lat="42.739898" lon="1.390698">
        <ele>2493.3</ele>
        <time>2013-08-14T12:05:02Z</time>
      </trkpt>
      <trkpt lat="42.739982" lon="1.390672">
        <ele>2491.4</ele>
        <time>2013-08-14T12:05:18Z</time>
      </trkpt>
      <trkpt lat="42.740060" lon="1.390678">
        <ele>2489.5</ele>
        <time>2013-08-14T12:05:31Z</time>
      </trkpt>
      <trkpt lat="42.740157" lon="1.390682">
        <ele>2487.6</ele>
        <time>2013-08-14T12:05:42Z</time>
      </trkpt>
      <trkpt lat="42.740228" lon="1.390628">
        <ele>2486.1</ele>
        <time>2013-08-14T12:06:56Z</time>
      </trkpt>
      <trkpt lat="42.740326" lon="1.390666">
        <ele>2482.7</ele>
        <time>2013-08-14T12:07:07Z</time>
      </trkpt>
      <trkpt lat="42.740420" lon="1.390681">
        <ele>2479.9</ele>
        <time>2013-08-14T12:07:14Z</time>
      </trkpt>
      <trkpt lat="42.740500" lon="1.390664">
        <ele>2477.0</ele>
        <time>2013-08-14T12:07:25Z</time>
      </trkpt>
      <trkpt lat="42.740580" lon="1.390639">
        <ele>2475.1</ele>
        <time>2013-08-14T12:07:38Z</time>
      </trkpt>
      <trkpt lat="42.740660" lon="1.390628">
        <ele>2472.2</ele>
        <time>2013-08-14T12:07:56Z</time>
      </trkpt>
      <trkpt lat="42.740684" lon="1.390559">
        <ele>2471.2</ele>
        <time>2013-08-14T12:09:40Z</time>
      </trkpt>
      <trkpt lat="42.740770" lon="1.390549">
        <ele>2467.8</ele>
        <time>2013-08-14T12:09:57Z</time>
      </trkpt>
      <trkpt lat="42.740849" lon="1.390536">
        <ele>2464.0</ele>
        <time>2013-08-14T12:10:14Z</time>
      </trkpt>
      <trkpt lat="42.740932" lon="1.390515">
        <ele>2461.1</ele>
        <time>2013-08-14T12:10:34Z</time>
      </trkpt>
      <trkpt lat="42.741042" lon="1.390485">
        <ele>2457.8</ele>
        <time>2013-08-14T12:10:53Z</time>
      </trkpt>
      <trkpt lat="42.741105" lon="1.390451">
        <ele>2455.8</ele>
        <time>2013-08-14T12:11:07Z</time>
      </trkpt>
      <trkpt lat="42.741186" lon="1.390415">
        <ele>2452.9</ele>
        <time>2013-08-14T12:14:52Z</time>
      </trkpt>
      <trkpt lat="42.741259" lon="1.390433">
        <ele>2450.1</ele>
        <time>2013-08-14T12:15:11Z</time>
      </trkpt>
      <trkpt lat="42.741342" lon="1.390453">
        <ele>2447.6</ele>
        <time>2013-08-14T12:15:23Z</time>
      </trkpt>
      <trkpt lat="42.741439" lon="1.390456">
        <ele>2444.8</ele>
        <time>2013-08-14T12:15:38Z</time>
      </trkpt>
      <trkpt lat="42.741518" lon="1.390458">
        <ele>2443.3</ele>
        <time>2013-08-14T12:15:48Z</time>
      </trkpt>
      <trkpt lat="42.741612" lon="1.390443">
        <ele>2441.9</ele>
        <time>2013-08-14T12:16:04Z</time>
      </trkpt>
      <trkpt lat="42.741718" lon="1.390444">
        <ele>2439.0</ele>
        <time>2013-08-14T12:16:18Z</time>
      </trkpt>
      <trkpt lat="42.741799" lon="1.390450">
        <ele>2436.6</ele>
        <time>2013-08-14T12:16:31Z</time>
      </trkpt>
      <trkpt lat="42.741897" lon="1.390449">
        <ele>2434.2</ele>
        <time>2013-08-14T12:16:45Z</time>
      </trkpt>
      <trkpt lat="42.741995" lon="1.390484">
        <ele>2432.3</ele>
        <time>2013-08-14T12:16:57Z</time>
      </trkpt>
      <trkpt lat="42.742095" lon="1.390443">
        <ele>2434.7</ele>
        <time>2013-08-14T12:17:14Z</time>
      </trkpt>
      <trkpt lat="42.742113" lon="1.390576">
        <ele>2430.4</ele>
        <time>2013-08-14T12:17:33Z</time>
      </trkpt>
      <trkpt lat="42.742193" lon="1.390668">
        <ele>2427.9</ele>
        <time>2013-08-14T12:17:53Z</time>
      </trkpt>
      <trkpt lat="42.742256" lon="1.390756">
        <ele>2426.5</ele>
        <time>2013-08-14T12:18:07Z</time>
      </trkpt>
      <trkpt lat="42.742348" lon="1.390809">
        <ele>2427.0</ele>
        <time>2013-08-14T12:18:22Z</time>
      </trkpt>
      <trkpt lat="42.742463" lon="1.390804">
        <ele>2426.0</ele>
        <time>2013-08-14T12:18:41Z</time>
      </trkpt>
      <trkpt lat="42.742571" lon="1.390814">
        <ele>2425.1</ele>
        <time>2013-08-14T12:18:53Z</time>
      </trkpt>
      <trkpt lat="42.742659" lon="1.390856">
        <ele>2423.6</ele>
        <time>2013-08-14T12:19:06Z</time>
      </trkpt>
      <trkpt lat="42.742749" lon="1.390889">
        <ele>2423.6</ele>
        <time>2013-08-14T12:19:17Z</time>
      </trkpt>
      <trkpt lat="42.742807" lon="1.390966">
        <ele>2420.3</ele>
        <time>2013-08-14T12:19:33Z</time>
      </trkpt>
      <trkpt lat="42.742880" lon="1.391055">
        <ele>2418.8</ele>
        <time>2013-08-14T12:19:54Z</time>
      </trkpt>
      <trkpt lat="42.742928" lon="1.391111">
        <ele>2418.8</ele>
        <time>2013-08-14T12:20:59Z</time>
      </trkpt>
      <trkpt lat="42.743024" lon="1.391138">
        <ele>2416.9</ele>
        <time>2013-08-14T12:21:44Z</time>
      </trkpt>
      <trkpt lat="42.743108" lon="1.391209">
        <ele>2416.9</ele>
        <time>2013-08-14T12:22:33Z</time>
      </trkpt>
      <trkpt lat="42.743185" lon="1.391263">
        <ele>2416.4</ele>
        <time>2013-08-14T12:22:54Z</time>
      </trkpt>
      <trkpt lat="42.743231" lon="1.391323">
        <ele>2414.0</ele>
        <time>2013-08-14T12:23:07Z</time>
      </trkpt>
      <trkpt lat="42.743294" lon="1.391416">
        <ele>2411.1</ele>
        <time>2013-08-14T12:23:24Z</time>
      </trkpt>
      <trkpt lat="42.743355" lon="1.391486">
        <ele>2408.7</ele>
        <time>2013-08-14T12:23:39Z</time>
      </trkpt>
      <trkpt lat="42.743419" lon="1.391573">
        <ele>2405.8</ele>
        <time>2013-08-14T12:23:53Z</time>
      </trkpt>
      <trkpt lat="42.743466" lon="1.391687">
        <ele>2402.9</ele>
        <time>2013-08-14T12:24:10Z</time>
      </trkpt>
      <trkpt lat="42.743495" lon="1.391778">
        <ele>2399.1</ele>
        <time>2013-08-14T12:24:29Z</time>
      </trkpt>
      <trkpt lat="42.743619" lon="1.391777">
        <ele>2399.6</ele>
        <time>2013-08-14T12:25:14Z</time>
      </trkpt>
      <trkpt lat="42.743725" lon="1.391731">
        <ele>2400.1</ele>
        <time>2013-08-14T12:25:31Z</time>
      </trkpt>
      <trkpt lat="42.743824" lon="1.391792">
        <ele>2398.6</ele>
        <time>2013-08-14T12:25:50Z</time>
      </trkpt>
      <trkpt lat="42.743882" lon="1.391881">
        <ele>2397.7</ele>
        <time>2013-08-14T12:26:06Z</time>
      </trkpt>
      <trkpt lat="42.743968" lon="1.391972">
        <ele>2397.7</ele>
        <time>2013-08-14T12:26:24Z</time>
      </trkpt>
      <trkpt lat="42.744044" lon="1.392052">
        <ele>2396.2</ele>
        <time>2013-08-14T12:26:43Z</time>
      </trkpt>
      <trkpt lat="42.744125" lon="1.392125">
        <ele>2394.8</ele>
        <time>2013-08-14T12:26:56Z</time>
      </trkpt>
      <trkpt lat="42.744205" lon="1.392219">
        <ele>2390.9</ele>
        <time>2013-08-14T12:27:12Z</time>
      </trkpt>
      <trkpt lat="42.744284" lon="1.392270">
        <ele>2390.0</ele>
        <time>2013-08-14T12:27:23Z</time>
      </trkpt>
      <trkpt lat="42.744344" lon="1.392128">
        <ele>2389.5</ele>
        <time>2013-08-14T12:27:40Z</time>
      </trkpt>
      <trkpt lat="42.744444" lon="1.392102">
        <ele>2389.0</ele>
        <time>2013-08-14T12:27:58Z</time>
      </trkpt>
      <trkpt lat="42.744547" lon="1.392067">
        <ele>2388.5</ele>
        <time>2013-08-14T12:28:17Z</time>
      </trkpt>
      <trkpt lat="42.744648" lon="1.392055">
        <ele>2386.6</ele>
        <time>2013-08-14T12:28:37Z</time>
      </trkpt>
      <trkpt lat="42.744753" lon="1.392054">
        <ele>2383.7</ele>
        <time>2013-08-14T12:28:53Z</time>
      </trkpt>
      <trkpt lat="42.744887" lon="1.392006">
        <ele>2379.9</ele>
        <time>2013-08-14T12:29:17Z</time>
      </trkpt>
      <trkpt lat="42.744987" lon="1.391973">
        <ele>2377.0</ele>
        <time>2013-08-14T12:29:32Z</time>
      </trkpt>
      <trkpt lat="42.745073" lon="1.391989">
        <ele>2373.1</ele>
        <time>2013-08-14T12:29:44Z</time>
      </trkpt>
      <trkpt lat="42.745171" lon="1.391979">
        <ele>2370.8</ele>
        <time>2013-08-14T12:29:57Z</time>
      </trkpt>
      <trkpt lat="42.745233" lon="1.391997">
        <ele>2369.3</ele>
        <time>2013-08-14T12:31:39Z</time>
      </trkpt>
      <trkpt lat="42.745324" lon="1.391983">
        <ele>2367.9</ele>
        <time>2013-08-14T12:31:52Z</time>
      </trkpt>
      <trkpt lat="42.745416" lon="1.391993">
        <ele>2364.5</ele>
        <time>2013-08-14T12:32:03Z</time>
      </trkpt>
      <trkpt lat="42.745509" lon="1.391995">
        <ele>2363.5</ele>
        <time>2013-08-14T12:32:12Z</time>
      </trkpt>
      <trkpt lat="42.745606" lon="1.391969">
        <ele>2362.6</ele>
        <time>2013-08-14T12:32:23Z</time>
      </trkpt>
      <trkpt lat="42.745701" lon="1.391984">
        <ele>2361.1</ele>
        <time>2013-08-14T12:32:34Z</time>
      </trkpt>
      <trkpt lat="42.745806" lon="1.391962">
        <ele>2360.6</ele>
        <time>2013-08-14T12:32:47Z</time>
      </trkpt>
      <trkpt lat="42.745910" lon="1.391946">
        <ele>2359.7</ele>
        <time>2013-08-14T12:33:04Z</time>
      </trkpt>
      <trkpt lat="42.746008" lon="1.391857">
        <ele>2358.7</ele>
        <time>2013-08-14T12:33:20Z</time>
      </trkpt>
      <trkpt lat="42.746122" lon="1.391768">
        <ele>2355.4</ele>
        <time>2013-08-14T12:33:33Z</time>
      </trkpt>
      <trkpt lat="42.746242" lon="1.391713">
        <ele>2354.4</ele>
        <time>2013-08-14T12:33:57Z</time>
      </trkpt>
      <trkpt lat="42.746258" lon="1.391796">
        <ele>2351.5</ele>
        <time>2013-08-14T12:34:12Z</time>
      </trkpt>
      <trkpt lat="42.746298" lon="1.391856">
        <ele>2346.7</ele>
        <time>2013-08-14T12:34:31Z</time>
      </trkpt>
      <trkpt lat="42.746387" lon="1.391899">
        <ele>2341.9</ele>
        <time>2013-08-14T12:34:52Z</time>
      </trkpt>
      <trkpt lat="42.746483" lon="1.391889">
        <ele>2339.5</ele>
        <time>2013-08-14T12:35:18Z</time>
      </trkpt>
      <trkpt lat="42.746589" lon="1.391877">
        <ele>2335.7</ele>
        <time>2013-08-14T12:35:47Z</time>
      </trkpt>
      <trkpt lat="42.746641" lon="1.391908">
        <ele>2329.9</ele>
        <time>2013-08-14T12:36:14Z</time>
      </trkpt>
      <trkpt lat="42.746761" lon="1.391871">
        <ele>2325.1</ele>
        <time>2013-08-14T12:36:38Z</time>
      </trkpt>
      <trkpt lat="42.746851" lon="1.391949">
        <ele>2320.3</ele>
        <time>2013-08-14T12:37:08Z</time>
      </trkpt>
      <trkpt lat="42.746916" lon="1.391963">
        <ele>2315.5</ele>
        <time>2013-08-14T12:37:34Z</time>
      </trkpt>
      <trkpt lat="42.747015" lon="1.391920">
        <ele>2313.6</ele>
        <time>2013-08-14T12:37:58Z</time>
      </trkpt>
      <trkpt lat="42.747117" lon="1.391970">
        <ele>2313.6</ele>
        <time>2013-08-14T12:38:17Z</time>
      </trkpt>
      <trkpt lat="42.747201" lon="1.392033">
        <ele>2313.1</ele>
        <time>2013-08-14T12:38:30Z</time>
      </trkpt>
      <trkpt lat="42.747297" lon="1.392030">
        <ele>2314.0</ele>
        <time>2013-08-14T12:38:41Z</time>
      </trkpt>
      <trkpt lat="42.747395" lon="1.392073">
        <ele>2315.5</ele>
        <time>2013-08-14T12:38:53Z</time>
      </trkpt>
      <trkpt lat="42.747523" lon="1.392072">
        <ele>2311.6</ele>
        <time>2013-08-14T12:39:18Z</time>
      </trkpt>
      <trkpt lat="42.747612" lon="1.392133">
        <ele>2307.3</ele>
        <time>2013-08-14T12:41:02Z</time>
      </trkpt>
      <trkpt lat="42.747704" lon="1.392183">
        <ele>2304.4</ele>
        <time>2013-08-14T12:41:21Z</time>
      </trkpt>
      <trkpt lat="42.747811" lon="1.392200">
        <ele>2302.0</ele>
        <time>2013-08-14T12:41:42Z</time>
      </trkpt>
      <trkpt lat="42.747908" lon="1.392272">
        <ele>2301.1</ele>
        <time>2013-08-14T12:42:00Z</time>
      </trkpt>
      <trkpt lat="42.747982" lon="1.392369">
        <ele>2297.2</ele>
        <time>2013-08-14T12:42:18Z</time>
      </trkpt>
      <trkpt lat="42.748056" lon="1.392369">
        <ele>2295.3</ele>
        <time>2013-08-14T12:42:43Z</time>
      </trkpt>
      <trkpt lat="42.748125" lon="1.392357">
        <ele>2295.3</ele>
        <time>2013-08-14T12:43:03Z</time>
      </trkpt>
      <trkpt lat="42.748205" lon="1.392411">
        <ele>2294.3</ele>
        <time>2013-08-14T12:43:16Z</time>
      </trkpt>
      <trkpt lat="42.748294" lon="1.392435">
        <ele>2292.4</ele>
        <time>2013-08-14T12:45:02Z</time>
      </trkpt>
      <trkpt lat="42.748399" lon="1.392486">
        <ele>2291.9</ele>
        <time>2013-08-14T12:45:16Z</time>
      </trkpt>
      <trkpt lat="42.748480" lon="1.392576">
        <ele>2289.0</ele>
        <time>2013-08-14T12:45:30Z</time>
      </trkpt>
      <trkpt lat="42.748550" lon="1.392629">
        <ele>2288.1</ele>
        <time>2013-08-14T12:45:42Z</time>
      </trkpt>
      <trkpt lat="42.748616" lon="1.392714">
        <ele>2285.2</ele>
        <time>2013-08-14T12:45:52Z</time>
      </trkpt>
      <trkpt lat="42.748696" lon="1.392779">
        <ele>2281.8</ele>
        <time>2013-08-14T12:46:05Z</time>
      </trkpt>
      <trkpt lat="42.748818" lon="1.392729">
        <ele>2282.3</ele>
        <time>2013-08-14T12:46:24Z</time>
      </trkpt>
      <trkpt lat="42.748898" lon="1.392814">
        <ele>2279.4</ele>
        <time>2013-08-14T12:47:00Z</time>
      </trkpt>
      <trkpt lat="42.748977" lon="1.392873">
        <ele>2279.4</ele>
        <time>2013-08-14T12:47:14Z</time>
      </trkpt>
      <trkpt lat="42.749076" lon="1.392921">
        <ele>2279.4</ele>
        <time>2013-08-14T12:47:28Z</time>
      </trkpt>
      <trkpt lat="42.749164" lon="1.393012">
        <ele>2279.4</ele>
        <time>2013-08-14T12:47:38Z</time>
      </trkpt>
      <trkpt lat="42.749248" lon="1.393087">
        <ele>2277.5</ele>
        <time>2013-08-14T12:47:51Z</time>
      </trkpt>
      <trkpt lat="42.749357" lon="1.393178">
        <ele>2277.0</ele>
        <time>2013-08-14T12:48:06Z</time>
      </trkpt>
      <trkpt lat="42.749447" lon="1.393203">
        <ele>2277.0</ele>
        <time>2013-08-14T12:48:18Z</time>
      </trkpt>
      <trkpt lat="42.749542" lon="1.393266">
        <ele>2277.0</ele>
        <time>2013-08-14T12:48:29Z</time>
      </trkpt>
      <trkpt lat="42.749615" lon="1.393340">
        <ele>2275.1</ele>
        <time>2013-08-14T12:48:44Z</time>
      </trkpt>
      <trkpt lat="42.749686" lon="1.393418">
        <ele>2273.2</ele>
        <time>2013-08-14T12:48:55Z</time>
      </trkpt>
      <trkpt lat="42.749780" lon="1.393469">
        <ele>2272.7</ele>
        <time>2013-08-14T12:49:09Z</time>
      </trkpt>
      <trkpt lat="42.749869" lon="1.393537">
        <ele>2271.7</ele>
        <time>2013-08-14T12:49:21Z</time>
      </trkpt>
      <trkpt lat="42.749929" lon="1.393614">
        <ele>2269.8</ele>
        <time>2013-08-14T12:51:13Z</time>
      </trkpt>
      <trkpt lat="42.749999" lon="1.393715">
        <ele>2267.9</ele>
        <time>2013-08-14T12:51:24Z</time>
      </trkpt>
      <trkpt lat="42.750060" lon="1.393809">
        <ele>2267.4</ele>
        <time>2013-08-14T12:51:35Z</time>
      </trkpt>
      <trkpt lat="42.750097" lon="1.393924">
        <ele>2264.5</ele>
        <time>2013-08-14T12:51:47Z</time>
      </trkpt>
      <trkpt lat="42.750164" lon="1.393980">
        <ele>2262.6</ele>
        <time>2013-08-14T12:52:00Z</time>
      </trkpt>
      <trkpt lat="42.750238" lon="1.394051">
        <ele>2262.6</ele>
        <time>2013-08-14T12:52:12Z</time>
      </trkpt>
      <trkpt lat="42.750305" lon="1.394139">
        <ele>2260.7</ele>
        <time>2013-08-14T12:52:38Z</time>
      </trkpt>
      <trkpt lat="42.750354" lon="1.394243">
        <ele>2259.2</ele>
        <time>2013-08-14T12:53:02Z</time>
      </trkpt>
      <trkpt lat="42.750421" lon="1.394322">
        <ele>2256.8</ele>
        <time>2013-08-14T12:53:17Z</time>
      </trkpt>
      <trkpt lat="42.750462" lon="1.394329">
        <ele>2256.8</ele>
        <time>2013-08-14T12:53:42Z</time>
      </trkpt>
      <trkpt lat="42.750554" lon="1.394392">
        <ele>2255.4</ele>
        <time>2013-08-14T12:53:59Z</time>
      </trkpt>
      <trkpt lat="42.750604" lon="1.394506">
        <ele>2252.5</ele>
        <time>2013-08-14T12:54:14Z</time>
      </trkpt>
      <trkpt lat="42.750678" lon="1.394583">
        <ele>2250.6</ele>
        <time>2013-08-14T12:54:25Z</time>
      </trkpt>
      <trkpt lat="42.750769" lon="1.394647">
        <ele>2247.2</ele>
        <time>2013-08-14T12:54:40Z</time>
      </trkpt>
      <trkpt lat="42.750873" lon="1.394644">
        <ele>2247.2</ele>
        <time>2013-08-14T12:54:54Z</time>
      </trkpt>
      <trkpt lat="42.750984" lon="1.394619">
        <ele>2246.7</ele>
        <time>2013-08-14T12:55:29Z</time>
      </trkpt>
      <trkpt lat="42.751078" lon="1.394676">
        <ele>2243.9</ele>
        <time>2013-08-14T12:55:45Z</time>
      </trkpt>
      <trkpt lat="42.751168" lon="1.394736">
        <ele>2243.4</ele>
        <time>2013-08-14T12:55:54Z</time>
      </trkpt>
      <trkpt lat="42.751228" lon="1.394741">
        <ele>2244.3</ele>
        <time>2013-08-14T12:56:43Z</time>
      </trkpt>
      <trkpt lat="42.751336" lon="1.394819">
        <ele>2244.3</ele>
        <time>2013-08-14T12:57:08Z</time>
      </trkpt>
      <trkpt lat="42.751404" lon="1.394914">
        <ele>2243.9</ele>
        <time>2013-08-14T12:57:21Z</time>
      </trkpt>
      <trkpt lat="42.751477" lon="1.394962">
        <ele>2241.9</ele>
        <time>2013-08-14T12:57:35Z</time>
      </trkpt>
      <trkpt lat="42.751569" lon="1.395021">
        <ele>2236.2</ele>
        <time>2013-08-14T12:57:54Z</time>
      </trkpt>
      <trkpt lat="42.751598" lon="1.395086">
        <ele>2233.3</ele>
        <time>2013-08-14T12:58:27Z</time>
      </trkpt>
      <trkpt lat="42.751692" lon="1.395173">
        <ele>2229.9</ele>
        <time>2013-08-14T12:58:41Z</time>
      </trkpt>
      <trkpt lat="42.751750" lon="1.395261">
        <ele>2227.0</ele>
        <time>2013-08-14T12:58:55Z</time>
      </trkpt>
      <trkpt lat="42.751822" lon="1.395355">
        <ele>2223.2</ele>
        <time>2013-08-14T12:59:10Z</time>
      </trkpt>
      <trkpt lat="42.751905" lon="1.395402">
        <ele>2219.8</ele>
        <time>2013-08-14T12:59:23Z</time>
      </trkpt>
      <trkpt lat="42.751972" lon="1.395510">
        <ele>2218.9</ele>
        <time>2013-08-14T12:59:34Z</time>
      </trkpt>
      <trkpt lat="42.752027" lon="1.395561">
        <ele>2216.9</ele>
        <time>2013-08-14T13:00:09Z</time>
      </trkpt>
      <trkpt lat="42.752146" lon="1.395633">
        <ele>2215.0</ele>
        <time>2013-08-14T13:01:08Z</time>
      </trkpt>
      <trkpt lat="42.752234" lon="1.395672">
        <ele>2215.0</ele>
        <time>2013-08-14T13:01:21Z</time>
      </trkpt>
      <trkpt lat="42.752327" lon="1.395721">
        <ele>2214.5</ele>
        <time>2013-08-14T13:01:32Z</time>
      </trkpt>
      <trkpt lat="42.752424" lon="1.395767">
        <ele>2214.5</ele>
        <time>2013-08-14T13:01:44Z</time>
      </trkpt>
      <trkpt lat="42.752518" lon="1.395797">
        <ele>2212.6</ele>
        <time>2013-08-14T13:01:57Z</time>
      </trkpt>
      <trkpt lat="42.752616" lon="1.395848">
        <ele>2209.7</ele>
        <time>2013-08-14T13:02:11Z</time>
      </trkpt>
      <trkpt lat="42.752715" lon="1.395855">
        <ele>2206.4</ele>
        <time>2013-08-14T13:02:23Z</time>
      </trkpt>
      <trkpt lat="42.752809" lon="1.395909">
        <ele>2204.4</ele>
        <time>2013-08-14T13:02:33Z</time>
      </trkpt>
      <trkpt lat="42.752913" lon="1.395972">
        <ele>2202.5</ele>
        <time>2013-08-14T13:02:45Z</time>
      </trkpt>
      <trkpt lat="42.753007" lon="1.396014">
        <ele>2203.0</ele>
        <time>2013-08-14T13:02:56Z</time>
      </trkpt>
      <trkpt lat="42.753104" lon="1.396050">
        <ele>2201.1</ele>
        <time>2013-08-14T13:03:06Z</time>
      </trkpt>
      <trkpt lat="42.753181" lon="1.396143">
        <ele>2197.2</ele>
        <time>2013-08-14T13:03:22Z</time>
      </trkpt>
      <trkpt lat="42.753278" lon="1.396187">
        <ele>2197.2</ele>
        <time>2013-08-14T13:03:35Z</time>
      </trkpt>
      <trkpt lat="42.753375" lon="1.396214">
        <ele>2196.3</ele>
        <time>2013-08-14T13:03:50Z</time>
      </trkpt>
      <trkpt lat="42.753471" lon="1.396285">
        <ele>2194.8</ele>
        <time>2013-08-14T13:04:01Z</time>
      </trkpt>
      <trkpt lat="42.753559" lon="1.396369">
        <ele>2193.4</ele>
        <time>2013-08-14T13:04:14Z</time>
      </trkpt>
      <trkpt lat="42.753654" lon="1.396411">
        <ele>2190.0</ele>
        <time>2013-08-14T13:04:31Z</time>
      </trkpt>
      <trkpt lat="42.753746" lon="1.396441">
        <ele>2189.1</ele>
        <time>2013-08-14T13:04:43Z</time>
      </trkpt>
      <trkpt lat="42.753803" lon="1.396510">
        <ele>2184.2</ele>
        <time>2013-08-14T13:05:47Z</time>
      </trkpt>
      <trkpt lat="42.753877" lon="1.396577">
        <ele>2182.8</ele>
        <time>2013-08-14T13:06:00Z</time>
      </trkpt>
      <trkpt lat="42.753950" lon="1.396651">
        <ele>2179.9</ele>
        <time>2013-08-14T13:06:09Z</time>
      </trkpt>
      <trkpt lat="42.754036" lon="1.396676">
        <ele>2176.6</ele>
        <time>2013-08-14T13:06:21Z</time>
      </trkpt>
      <trkpt lat="42.754128" lon="1.396744">
        <ele>2172.7</ele>
        <time>2013-08-14T13:06:34Z</time>
      </trkpt>
      <trkpt lat="42.754219" lon="1.396797">
        <ele>2171.3</ele>
        <time>2013-08-14T13:06:45Z</time>
      </trkpt>
      <trkpt lat="42.754308" lon="1.396830">
        <ele>2168.9</ele>
        <time>2013-08-14T13:06:56Z</time>
      </trkpt>
      <trkpt lat="42.754394" lon="1.396773">
        <ele>2167.4</ele>
        <time>2013-08-14T13:07:08Z</time>
      </trkpt>
      <trkpt lat="42.754494" lon="1.396746">
        <ele>2165.0</ele>
        <time>2013-08-14T13:07:18Z</time>
      </trkpt>
      <trkpt lat="42.754584" lon="1.396756">
        <ele>2163.1</ele>
        <time>2013-08-14T13:07:33Z</time>
      </trkpt>
      <trkpt lat="42.754674" lon="1.396728">
        <ele>2161.7</ele>
        <time>2013-08-14T13:07:46Z</time>
      </trkpt>
      <trkpt lat="42.754779" lon="1.396699">
        <ele>2160.7</ele>
        <time>2013-08-14T13:08:00Z</time>
      </trkpt>
      <trkpt lat="42.754871" lon="1.396655">
        <ele>2159.3</ele>
        <time>2013-08-14T13:08:11Z</time>
      </trkpt>
      <trkpt lat="42.754967" lon="1.396637">
        <ele>2157.8</ele>
        <time>2013-08-14T13:08:31Z</time>
      </trkpt>
      <trkpt lat="42.755054" lon="1.396633">
        <ele>2156.9</ele>
        <time>2013-08-14T13:08:46Z</time>
      </trkpt>
      <trkpt lat="42.755140" lon="1.396677">
        <ele>2155.9</ele>
        <time>2013-08-14T13:08:59Z</time>
      </trkpt>
      <trkpt lat="42.755240" lon="1.396730">
        <ele>2154.4</ele>
        <time>2013-08-14T13:09:13Z</time>
      </trkpt>
      <trkpt lat="42.755330" lon="1.396778">
        <ele>2152.1</ele>
        <time>2013-08-14T13:09:25Z</time>
      </trkpt>
      <trkpt lat="42.755420" lon="1.396780">
        <ele>2150.1</ele>
        <time>2013-08-14T13:09:37Z</time>
      </trkpt>
      <trkpt lat="42.755501" lon="1.396731">
        <ele>2149.6</ele>
        <time>2013-08-14T13:09:49Z</time>
      </trkpt>
      <trkpt lat="42.755589" lon="1.396755">
        <ele>2145.3</ele>
        <time>2013-08-14T13:10:04Z</time>
      </trkpt>
      <trkpt lat="42.755670" lon="1.396728">
        <ele>2141.0</ele>
        <time>2013-08-14T13:10:16Z</time>
      </trkpt>
      <trkpt lat="42.755757" lon="1.396765">
        <ele>2139.6</ele>
        <time>2013-08-14T13:10:27Z</time>
      </trkpt>
      <trkpt lat="42.755838" lon="1.396711">
        <ele>2137.1</ele>
        <time>2013-08-14T13:10:37Z</time>
      </trkpt>
      <trkpt lat="42.755926" lon="1.396670">
        <ele>2138.1</ele>
        <time>2013-08-14T13:10:47Z</time>
      </trkpt>
      <trkpt lat="42.756018" lon="1.396632">
        <ele>2139.6</ele>
        <time>2013-08-14T13:11:00Z</time>
      </trkpt>
      <trkpt lat="42.756116" lon="1.396664">
        <ele>2138.6</ele>
        <time>2013-08-14T13:11:12Z</time>
      </trkpt>
      <trkpt lat="42.756196" lon="1.396615">
        <ele>2139.6</ele>
        <time>2013-08-14T13:11:24Z</time>
      </trkpt>
      <trkpt lat="42.756277" lon="1.396607">
        <ele>2141.9</ele>
        <time>2013-08-14T13:11:37Z</time>
      </trkpt>
      <trkpt lat="42.756377" lon="1.396545">
        <ele>2143.9</ele>
        <time>2013-08-14T13:11:54Z</time>
      </trkpt>
      <trkpt lat="42.756463" lon="1.396535">
        <ele>2145.3</ele>
        <time>2013-08-14T13:12:04Z</time>
      </trkpt>
      <trkpt lat="42.756552" lon="1.396579">
        <ele>2146.3</ele>
        <time>2013-08-14T13:12:15Z</time>
      </trkpt>
      <trkpt lat="42.756644" lon="1.396585">
        <ele>2145.3</ele>
        <time>2013-08-14T13:12:25Z</time>
      </trkpt>
      <trkpt lat="42.756734" lon="1.396585">
        <ele>2140.0</ele>
        <time>2013-08-14T13:12:38Z</time>
      </trkpt>
      <trkpt lat="42.756815" lon="1.396572">
        <ele>2140.5</ele>
        <time>2013-08-14T13:14:01Z</time>
      </trkpt>
      <trkpt lat="42.756905" lon="1.396646">
        <ele>2137.1</ele>
        <time>2013-08-14T13:14:13Z</time>
      </trkpt>
      <trkpt lat="42.756957" lon="1.396753">
        <ele>2134.7</ele>
        <time>2013-08-14T13:14:23Z</time>
      </trkpt>
      <trkpt lat="42.756962" lon="1.396873">
        <ele>2131.4</ele>
        <time>2013-08-14T13:14:37Z</time>
      </trkpt>
      <trkpt lat="42.757017" lon="1.396921">
        <ele>2126.1</ele>
        <time>2013-08-14T13:14:51Z</time>
      </trkpt>
      <trkpt lat="42.757076" lon="1.397022">
        <ele>2122.7</ele>
        <time>2013-08-14T13:15:03Z</time>
      </trkpt>
      <trkpt lat="42.757140" lon="1.397112">
        <ele>2117.4</ele>
        <time>2013-08-14T13:15:16Z</time>
      </trkpt>
      <trkpt lat="42.757186" lon="1.397236">
        <ele>2113.6</ele>
        <time>2013-08-14T13:15:28Z</time>
      </trkpt>
      <trkpt lat="42.757199" lon="1.397336">
        <ele>2110.7</ele>
        <time>2013-08-14T13:15:50Z</time>
      </trkpt>
      <trkpt lat="42.757273" lon="1.397438">
        <ele>2106.9</ele>
        <time>2013-08-14T13:16:01Z</time>
      </trkpt>
      <trkpt lat="42.757355" lon="1.397513">
        <ele>2104.5</ele>
        <time>2013-08-14T13:16:11Z</time>
      </trkpt>
      <trkpt lat="42.757427" lon="1.397619">
        <ele>2102.5</ele>
        <time>2013-08-14T13:16:21Z</time>
      </trkpt>
      <trkpt lat="42.757508" lon="1.397641">
        <ele>2100.1</ele>
        <time>2013-08-14T13:17:04Z</time>
      </trkpt>
      <trkpt lat="42.757603" lon="1.397696">
        <ele>2097.2</ele>
        <time>2013-08-14T13:17:17Z</time>
      </trkpt>
      <trkpt lat="42.757651" lon="1.397820">
        <ele>2094.4</ele>
        <time>2013-08-14T13:17:28Z</time>
      </trkpt>
      <trkpt lat="42.757710" lon="1.397903">
        <ele>2092.0</ele>
        <time>2013-08-14T13:17:38Z</time>
      </trkpt>
      <trkpt lat="42.757787" lon="1.397977">
        <ele>2091.5</ele>
        <time>2013-08-14T13:17:48Z</time>
      </trkpt>
      <trkpt lat="42.757846" lon="1.398020">
        <ele>2089.1</ele>
        <time>2013-08-14T13:18:23Z</time>
      </trkpt>
      <trkpt lat="42.757917" lon="1.398052">
        <ele>2085.7</ele>
        <time>2013-08-14T13:18:38Z</time>
      </trkpt>
      <trkpt lat="42.757983" lon="1.398148">
        <ele>2082.8</ele>
        <time>2013-08-14T13:18:50Z</time>
      </trkpt>
      <trkpt lat="42.758033" lon="1.398264">
        <ele>2080.4</ele>
        <time>2013-08-14T13:19:01Z</time>
      </trkpt>
      <trkpt lat="42.758083" lon="1.398357">
        <ele>2079.0</ele>
        <time>2013-08-14T13:19:12Z</time>
      </trkpt>
      <trkpt lat="42.758141" lon="1.398453">
        <ele>2078.0</ele>
        <time>2013-08-14T13:19:21Z</time>
      </trkpt>
      <trkpt lat="42.758209" lon="1.398538">
        <ele>2076.6</ele>
        <time>2013-08-14T13:19:30Z</time>
      </trkpt>
      <trkpt lat="42.758283" lon="1.398609">
        <ele>2075.1</ele>
        <time>2013-08-14T13:19:39Z</time>
      </trkpt>
      <trkpt lat="42.758360" lon="1.398680">
        <ele>2073.2</ele>
        <time>2013-08-14T13:19:48Z</time>
      </trkpt>
      <trkpt lat="42.758430" lon="1.398740">
        <ele>2071.8</ele>
        <time>2013-08-14T13:20:17Z</time>
      </trkpt>
      <trkpt lat="42.758520" lon="1.398801">
        <ele>2070.3</ele>
        <time>2013-08-14T13:20:27Z</time>
      </trkpt>
      <trkpt lat="42.758602" lon="1.398873">
        <ele>2069.4</ele>
        <time>2013-08-14T13:20:36Z</time>
      </trkpt>
      <trkpt lat="42.758685" lon="1.398939">
        <ele>2067.9</ele>
        <time>2013-08-14T13:20:45Z</time>
      </trkpt>
      <trkpt lat="42.758769" lon="1.398984">
        <ele>2067.0</ele>
        <time>2013-08-14T13:20:54Z</time>
      </trkpt>
      <trkpt lat="42.758866" lon="1.399034">
        <ele>2065.5</ele>
        <time>2013-08-14T13:21:04Z</time>
      </trkpt>
      <trkpt lat="42.758949" lon="1.399116">
        <ele>2063.6</ele>
        <time>2013-08-14T13:21:14Z</time>
      </trkpt>
      <trkpt lat="42.759036" lon="1.399188">
        <ele>2063.1</ele>
        <time>2013-08-14T13:21:23Z</time>
      </trkpt>
      <trkpt lat="42.759124" lon="1.399218">
        <ele>2062.6</ele>
        <time>2013-08-14T13:21:32Z</time>
      </trkpt>
      <trkpt lat="42.759210" lon="1.399247">
        <ele>2060.7</ele>
        <time>2013-08-14T13:21:41Z</time>
      </trkpt>
      <trkpt lat="42.759303" lon="1.399270">
        <ele>2059.8</ele>
        <time>2013-08-14T13:21:50Z</time>
      </trkpt>
      <trkpt lat="42.759404" lon="1.399322">
        <ele>2058.8</ele>
        <time>2013-08-14T13:22:01Z</time>
      </trkpt>
      <trkpt lat="42.759498" lon="1.399328">
        <ele>2057.4</ele>
        <time>2013-08-14T13:22:10Z</time>
      </trkpt>
      <trkpt lat="42.759586" lon="1.399338">
        <ele>2056.4</ele>
        <time>2013-08-14T13:22:19Z</time>
      </trkpt>
      <trkpt lat="42.759679" lon="1.399327">
        <ele>2054.5</ele>
        <time>2013-08-14T13:22:29Z</time>
      </trkpt>
      <trkpt lat="42.759776" lon="1.399332">
        <ele>2052.6</ele>
        <time>2013-08-14T13:22:39Z</time>
      </trkpt>
      <trkpt lat="42.759875" lon="1.399329">
        <ele>2053.0</ele>
        <time>2013-08-14T13:22:50Z</time>
      </trkpt>
      <trkpt lat="42.760001" lon="1.399336">
        <ele>2048.2</ele>
        <time>2013-08-14T13:23:36Z</time>
      </trkpt>
      <trkpt lat="42.760092" lon="1.399343">
        <ele>2046.8</ele>
        <time>2013-08-14T13:23:47Z</time>
      </trkpt>
      <trkpt lat="42.760190" lon="1.399372">
        <ele>2044.9</ele>
        <time>2013-08-14T13:23:57Z</time>
      </trkpt>
      <trkpt lat="42.760282" lon="1.399378">
        <ele>2042.5</ele>
        <time>2013-08-14T13:24:07Z</time>
      </trkpt>
      <trkpt lat="42.760378" lon="1.399393">
        <ele>2040.5</ele>
        <time>2013-08-14T13:24:17Z</time>
      </trkpt>
      <trkpt lat="42.760478" lon="1.399401">
        <ele>2038.6</ele>
        <time>2013-08-14T13:24:27Z</time>
      </trkpt>
      <trkpt lat="42.760577" lon="1.399408">
        <ele>2038.1</ele>
        <time>2013-08-14T13:24:38Z</time>
      </trkpt>
      <trkpt lat="42.760676" lon="1.399432">
        <ele>2037.7</ele>
        <time>2013-08-14T13:24:48Z</time>
      </trkpt>
      <trkpt lat="42.760769" lon="1.399447">
        <ele>2036.2</ele>
        <time>2013-08-14T13:24:57Z</time>
      </trkpt>
      <trkpt lat="42.760871" lon="1.399471">
        <ele>2034.3</ele>
        <time>2013-08-14T13:25:06Z</time>
      </trkpt>
      <trkpt lat="42.760969" lon="1.399476">
        <ele>2034.8</ele>
        <time>2013-08-14T13:25:14Z</time>
      </trkpt>
      <trkpt lat="42.761063" lon="1.399509">
        <ele>2034.3</ele>
        <time>2013-08-14T13:25:23Z</time>
      </trkpt>
      <trkpt lat="42.761155" lon="1.399536">
        <ele>2031.9</ele>
        <time>2013-08-14T13:25:32Z</time>
      </trkpt>
      <trkpt lat="42.761250" lon="1.399581">
        <ele>2030.4</ele>
        <time>2013-08-14T13:25:41Z</time>
      </trkpt>
      <trkpt lat="42.761340" lon="1.399607">
        <ele>2028.5</ele>
        <time>2013-08-14T13:25:49Z</time>
      </trkpt>
      <trkpt lat="42.761437" lon="1.399645">
        <ele>2027.1</ele>
        <time>2013-08-14T13:25:58Z</time>
      </trkpt>
      <trkpt lat="42.761537" lon="1.399692">
        <ele>2028.5</ele>
        <time>2013-08-14T13:26:07Z</time>
      </trkpt>
      <trkpt lat="42.761628" lon="1.399688">
        <ele>2027.1</ele>
        <time>2013-08-14T13:26:15Z</time>
      </trkpt>
      <trkpt lat="42.761722" lon="1.399679">
        <ele>2026.6</ele>
        <time>2013-08-14T13:26:23Z</time>
      </trkpt>
      <trkpt lat="42.761819" lon="1.399692">
        <ele>2029.0</ele>
        <time>2013-08-14T13:26:32Z</time>
      </trkpt>
      <trkpt lat="42.761909" lon="1.399758">
        <ele>2030.9</ele>
        <time>2013-08-14T13:26:41Z</time>
      </trkpt>
      <trkpt lat="42.761994" lon="1.399765">
        <ele>2031.4</ele>
        <time>2013-08-14T13:26:52Z</time>
      </trkpt>
      <trkpt lat="42.762082" lon="1.399744">
        <ele>2032.8</ele>
        <time>2013-08-14T13:27:03Z</time>
      </trkpt>
      <trkpt lat="42.762183" lon="1.399740">
        <ele>2034.3</ele>
        <time>2013-08-14T13:27:14Z</time>
      </trkpt>
      <trkpt lat="42.762285" lon="1.399734">
        <ele>2036.2</ele>
        <time>2013-08-14T13:27:27Z</time>
      </trkpt>
      <trkpt lat="42.762378" lon="1.399712">
        <ele>2037.7</ele>
        <time>2013-08-14T13:27:38Z</time>
      </trkpt>
      <trkpt lat="42.762465" lon="1.399707">
        <ele>2039.6</ele>
        <time>2013-08-14T13:27:53Z</time>
      </trkpt>
      <trkpt lat="42.762567" lon="1.399726">
        <ele>2040.1</ele>
        <time>2013-08-14T13:28:04Z</time>
      </trkpt>
      <trkpt lat="42.762657" lon="1.399739">
        <ele>2041.5</ele>
        <time>2013-08-14T13:28:16Z</time>
      </trkpt>
      <trkpt lat="42.762759" lon="1.399760">
        <ele>2040.5</ele>
        <time>2013-08-14T13:28:28Z</time>
      </trkpt>
      <trkpt lat="42.762858" lon="1.399800">
        <ele>2041.0</ele>
        <time>2013-08-14T13:28:40Z</time>
      </trkpt>
      <trkpt lat="42.762953" lon="1.399851">
        <ele>2041.5</ele>
        <time>2013-08-14T13:28:52Z</time>
      </trkpt>
      <trkpt lat="42.763058" lon="1.399843">
        <ele>2043.4</ele>
        <time>2013-08-14T13:29:06Z</time>
      </trkpt>
      <trkpt lat="42.763148" lon="1.399818">
        <ele>2046.8</ele>
        <time>2013-08-14T13:29:23Z</time>
      </trkpt>
      <trkpt lat="42.763245" lon="1.399820">
        <ele>2047.8</ele>
        <time>2013-08-14T13:29:49Z</time>
      </trkpt>
      <trkpt lat="42.763339" lon="1.399832">
        <ele>2049.2</ele>
        <time>2013-08-14T13:29:59Z</time>
      </trkpt>
      <trkpt lat="42.763441" lon="1.399818">
        <ele>2050.1</ele>
        <time>2013-08-14T13:30:12Z</time>
      </trkpt>
      <trkpt lat="42.763546" lon="1.399814">
        <ele>2050.6</ele>
        <time>2013-08-14T13:30:22Z</time>
      </trkpt>
      <trkpt lat="42.763651" lon="1.399838">
        <ele>2049.2</ele>
        <time>2013-08-14T13:30:31Z</time>
      </trkpt>
      <trkpt lat="42.763748" lon="1.399889">
        <ele>2048.7</ele>
        <time>2013-08-14T13:30:41Z</time>
      </trkpt>
      <trkpt lat="42.763851" lon="1.399916">
        <ele>2048.7</ele>
        <time>2013-08-14T13:30:50Z</time>
      </trkpt>
      <trkpt lat="42.763947" lon="1.399920">
        <ele>2050.1</ele>
        <time>2013-08-14T13:30:59Z</time>
      </trkpt>
      <trkpt lat="42.764052" lon="1.399920">
        <ele>2051.1</ele>
        <time>2013-08-14T13:31:09Z</time>
      </trkpt>
      <trkpt lat="42.764150" lon="1.399925">
        <ele>2051.6</ele>
        <time>2013-08-14T13:31:18Z</time>
      </trkpt>
      <trkpt lat="42.764242" lon="1.399919">
        <ele>2053.5</ele>
        <time>2013-08-14T13:31:28Z</time>
      </trkpt>
      <trkpt lat="42.764318" lon="1.399850">
        <ele>2056.9</ele>
        <time>2013-08-14T13:31:40Z</time>
      </trkpt>
      <trkpt lat="42.764376" lon="1.399746">
        <ele>2060.7</ele>
        <time>2013-08-14T13:31:57Z</time>
      </trkpt>
      <trkpt lat="42.764457" lon="1.399820">
        <ele>2062.2</ele>
        <time>2013-08-14T13:32:16Z</time>
      </trkpt>
      <trkpt lat="42.764489" lon="1.399948">
        <ele>2061.2</ele>
        <time>2013-08-14T13:32:30Z</time>
      </trkpt>
      <trkpt lat="42.764556" lon="1.400037">
        <ele>2058.8</ele>
        <time>2013-08-14T13:33:04Z</time>
      </trkpt>
      <trkpt lat="42.764622" lon="1.400107">
        <ele>2055.9</ele>
        <time>2013-08-14T13:34:01Z</time>
      </trkpt>
      <trkpt lat="42.764614" lon="1.400248">
        <ele>2052.6</ele>
        <time>2013-08-14T13:34:10Z</time>
      </trkpt>
      <trkpt lat="42.764666" lon="1.400342">
        <ele>2050.1</ele>
        <time>2013-08-14T13:34:21Z</time>
      </trkpt>
      <trkpt lat="42.764726" lon="1.400447">
        <ele>2047.8</ele>
        <time>2013-08-14T13:34:33Z</time>
      </trkpt>
      <trkpt lat="42.764719" lon="1.400564">
        <ele>2045.8</ele>
        <time>2013-08-14T13:34:43Z</time>
      </trkpt>
      <trkpt lat="42.764743" lon="1.400690">
        <ele>2042.9</ele>
        <time>2013-08-14T13:34:54Z</time>
      </trkpt>
      <trkpt lat="42.764779" lon="1.400798">
        <ele>2041.0</ele>
        <time>2013-08-14T13:35:08Z</time>
      </trkpt>
      <trkpt lat="42.764852" lon="1.400859">
        <ele>2038.6</ele>
        <time>2013-08-14T13:35:20Z</time>
      </trkpt>
      <trkpt lat="42.764915" lon="1.400946">
        <ele>2038.1</ele>
        <time>2013-08-14T13:35:29Z</time>
      </trkpt>
      <trkpt lat="42.764971" lon="1.401056">
        <ele>2035.2</ele>
        <time>2013-08-14T13:35:40Z</time>
      </trkpt>
      <trkpt lat="42.764992" lon="1.401161">
        <ele>2030.9</ele>
        <time>2013-08-14T13:35:51Z</time>
      </trkpt>
      <trkpt lat="42.764965" lon="1.401249">
        <ele>2026.6</ele>
        <time>2013-08-14T13:36:05Z</time>
      </trkpt>
      <trkpt lat="42.765000" lon="1.401378">
        <ele>2023.2</ele>
        <time>2013-08-14T13:36:19Z</time>
      </trkpt>
      <trkpt lat="42.765067" lon="1.401458">
        <ele>2018.4</ele>
        <time>2013-08-14T13:36:28Z</time>
      </trkpt>
      <trkpt lat="42.765126" lon="1.401554">
        <ele>2016.0</ele>
        <time>2013-08-14T13:36:36Z</time>
      </trkpt>
      <trkpt lat="42.765176" lon="1.401668">
        <ele>2014.6</ele>
        <time>2013-08-14T13:36:43Z</time>
      </trkpt>
      <trkpt lat="42.765249" lon="1.401746">
        <ele>2013.6</ele>
        <time>2013-08-14T13:36:51Z</time>
      </trkpt>
      <trkpt lat="42.765303" lon="1.401838">
        <ele>2012.2</ele>
        <time>2013-08-14T13:37:01Z</time>
      </trkpt>
      <trkpt lat="42.765350" lon="1.401961">
        <ele>2010.7</ele>
        <time>2013-08-14T13:37:10Z</time>
      </trkpt>
      <trkpt lat="42.765410" lon="1.402073">
        <ele>2008.3</ele>
        <time>2013-08-14T13:37:19Z</time>
      </trkpt>
      <trkpt lat="42.765446" lon="1.402204">
        <ele>2005.9</ele>
        <time>2013-08-14T13:37:28Z</time>
      </trkpt>
      <trkpt lat="42.765506" lon="1.402302">
        <ele>2003.0</ele>
        <time>2013-08-14T13:37:37Z</time>
      </trkpt>
      <trkpt lat="42.765565" lon="1.402399">
        <ele>2001.1</ele>
        <time>2013-08-14T13:37:47Z</time>
      </trkpt>
      <trkpt lat="42.765625" lon="1.402508">
        <ele>1999.2</ele>
        <time>2013-08-14T13:37:56Z</time>
      </trkpt>
      <trkpt lat="42.765686" lon="1.402616">
        <ele>1997.8</ele>
        <time>2013-08-14T13:38:07Z</time>
      </trkpt>
      <trkpt lat="42.765727" lon="1.402743">
        <ele>1996.3</ele>
        <time>2013-08-14T13:38:17Z</time>
      </trkpt>
      <trkpt lat="42.765811" lon="1.402783">
        <ele>1994.4</ele>
        <time>2013-08-14T13:38:24Z</time>
      </trkpt>
      <trkpt lat="42.765889" lon="1.402862">
        <ele>1994.4</ele>
        <time>2013-08-14T13:38:32Z</time>
      </trkpt>
      <trkpt lat="42.765957" lon="1.402953">
        <ele>1992.5</ele>
        <time>2013-08-14T13:38:41Z</time>
      </trkpt>
      <trkpt lat="42.766025" lon="1.403025">
        <ele>1988.1</ele>
        <time>2013-08-14T13:38:54Z</time>
      </trkpt>
      <trkpt lat="42.766095" lon="1.403121">
        <ele>1986.2</ele>
        <time>2013-08-14T13:39:05Z</time>
      </trkpt>
      <trkpt lat="42.766161" lon="1.403220">
        <ele>1983.8</ele>
        <time>2013-08-14T13:39:14Z</time>
      </trkpt>
      <trkpt lat="42.766222" lon="1.403306">
        <ele>1981.9</ele>
        <time>2013-08-14T13:39:22Z</time>
      </trkpt>
      <trkpt lat="42.766302" lon="1.403395">
        <ele>1980.9</ele>
        <time>2013-08-14T13:39:30Z</time>
      </trkpt>
      <trkpt lat="42.766378" lon="1.403472">
        <ele>1980.9</ele>
        <time>2013-08-14T13:39:38Z</time>
      </trkpt>
      <trkpt lat="42.766456" lon="1.403528">
        <ele>1979.0</ele>
        <time>2013-08-14T13:39:49Z</time>
      </trkpt>
      <trkpt lat="42.766528" lon="1.403626">
        <ele>1976.1</ele>
        <time>2013-08-14T13:39:59Z</time>
      </trkpt>
      <trkpt lat="42.766604" lon="1.403704">
        <ele>1973.7</ele>
        <time>2013-08-14T13:40:10Z</time>
      </trkpt>
      <trkpt lat="42.766675" lon="1.403800">
        <ele>1970.8</ele>
        <time>2013-08-14T13:40:20Z</time>
      </trkpt>
      <trkpt lat="42.766749" lon="1.403808">
        <ele>1968.9</ele>
        <time>2013-08-14T13:40:29Z</time>
      </trkpt>
      <trkpt lat="42.766766" lon="1.403936">
        <ele>1967.0</ele>
        <time>2013-08-14T13:40:40Z</time>
      </trkpt>
      <trkpt lat="42.766804" lon="1.404023">
        <ele>1963.2</ele>
        <time>2013-08-14T13:40:59Z</time>
      </trkpt>
      <trkpt lat="42.766887" lon="1.404088">
        <ele>1958.8</ele>
        <time>2013-08-14T13:41:15Z</time>
      </trkpt>
      <trkpt lat="42.766944" lon="1.403992">
        <ele>1957.4</ele>
        <time>2013-08-14T13:41:27Z</time>
      </trkpt>
      <trkpt lat="42.767008" lon="1.404103">
        <ele>1954.5</ele>
        <time>2013-08-14T13:41:39Z</time>
      </trkpt>
      <trkpt lat="42.767083" lon="1.404203">
        <ele>1951.1</ele>
        <time>2013-08-14T13:41:50Z</time>
      </trkpt>
      <trkpt lat="42.767178" lon="1.404196">
        <ele>1949.7</ele>
        <time>2013-08-14T13:42:00Z</time>
      </trkpt>
      <trkpt lat="42.767263" lon="1.404276">
        <ele>1948.2</ele>
        <time>2013-08-14T13:42:14Z</time>
      </trkpt>
      <trkpt lat="42.767337" lon="1.404339">
        <ele>1948.2</ele>
        <time>2013-08-14T13:45:50Z</time>
      </trkpt>
      <trkpt lat="42.767430" lon="1.404363">
        <ele>1947.8</ele>
        <time>2013-08-14T13:46:03Z</time>
      </trkpt>
      <trkpt lat="42.767516" lon="1.404422">
        <ele>1947.3</ele>
        <time>2013-08-14T13:46:13Z</time>
      </trkpt>
      <trkpt lat="42.767575" lon="1.404461">
        <ele>1946.8</ele>
        <time>2013-08-14T13:46:32Z</time>
      </trkpt>
      <trkpt lat="42.767673" lon="1.404529">
        <ele>1946.8</ele>
        <time>2013-08-14T13:46:41Z</time>
      </trkpt>
      <trkpt lat="42.767740" lon="1.404622">
        <ele>1946.8</ele>
        <time>2013-08-14T13:46:50Z</time>
      </trkpt>
      <trkpt lat="42.767832" lon="1.404682">
        <ele>1947.3</ele>
        <time>2013-08-14T13:47:00Z</time>
      </trkpt>
      <trkpt lat="42.767932" lon="1.404699">
        <ele>1948.2</ele>
        <time>2013-08-14T13:47:09Z</time>
      </trkpt>
      <trkpt lat="42.768029" lon="1.404730">
        <ele>1950.2</ele>
        <time>2013-08-14T13:47:19Z</time>
      </trkpt>
      <trkpt lat="42.768115" lon="1.404762">
        <ele>1950.2</ele>
        <time>2013-08-14T13:47:32Z</time>
      </trkpt>
      <trkpt lat="42.768200" lon="1.404808">
        <ele>1952.1</ele>
        <time>2013-08-14T13:47:42Z</time>
      </trkpt>
      <trkpt lat="42.768302" lon="1.404832">
        <ele>1954.0</ele>
        <time>2013-08-14T13:47:53Z</time>
      </trkpt>
      <trkpt lat="42.768391" lon="1.404862">
        <ele>1955.5</ele>
        <time>2013-08-14T13:48:04Z</time>
      </trkpt>
      <trkpt lat="42.768487" lon="1.404860">
        <ele>1957.4</ele>
        <time>2013-08-14T13:48:16Z</time>
      </trkpt>
      <trkpt lat="42.768582" lon="1.404868">
        <ele>1958.8</ele>
        <time>2013-08-14T13:48:26Z</time>
      </trkpt>
      <trkpt lat="42.768669" lon="1.404890">
        <ele>1959.8</ele>
        <time>2013-08-14T13:48:37Z</time>
      </trkpt>
      <trkpt lat="42.768747" lon="1.404866">
        <ele>1961.7</ele>
        <time>2013-08-14T13:48:49Z</time>
      </trkpt>
      <trkpt lat="42.768830" lon="1.404879">
        <ele>1965.6</ele>
        <time>2013-08-14T13:49:03Z</time>
      </trkpt>
      <trkpt lat="42.768925" lon="1.404871">
        <ele>1968.4</ele>
        <time>2013-08-14T13:49:20Z</time>
      </trkpt>
      <trkpt lat="42.769021" lon="1.404876">
        <ele>1971.3</ele>
        <time>2013-08-14T13:49:35Z</time>
      </trkpt>
      <trkpt lat="42.769115" lon="1.404887">
        <ele>1974.2</ele>
        <time>2013-08-14T13:49:51Z</time>
      </trkpt>
      <trkpt lat="42.769219" lon="1.404890">
        <ele>1976.1</ele>
        <time>2013-08-14T13:50:14Z</time>
      </trkpt>
      <trkpt lat="42.769313" lon="1.404880">
        <ele>1979.0</ele>
        <time>2013-08-14T13:50:27Z</time>
      </trkpt>
      <trkpt lat="42.769388" lon="1.404895">
        <ele>1980.9</ele>
        <time>2013-08-14T13:50:59Z</time>
      </trkpt>
      <trkpt lat="42.769483" lon="1.404910">
        <ele>1984.3</ele>
        <time>2013-08-14T13:51:13Z</time>
      </trkpt>
      <trkpt lat="42.769576" lon="1.404901">
        <ele>1988.1</ele>
        <time>2013-08-14T13:51:26Z</time>
      </trkpt>
      <trkpt lat="42.769650" lon="1.404916">
        <ele>1989.1</ele>
        <time>2013-08-14T13:51:51Z</time>
      </trkpt>
      <trkpt lat="42.769754" lon="1.404924">
        <ele>1992.9</ele>
        <time>2013-08-14T13:52:04Z</time>
      </trkpt>
      <trkpt lat="42.769839" lon="1.404949">
        <ele>1995.3</ele>
        <time>2013-08-14T13:52:15Z</time>
      </trkpt>
      <trkpt lat="42.769929" lon="1.404936">
        <ele>1998.7</ele>
        <time>2013-08-14T13:52:29Z</time>
      </trkpt>
      <trkpt lat="42.770017" lon="1.404957">
        <ele>2001.6</ele>
        <time>2013-08-14T13:52:43Z</time>
      </trkpt>
      <trkpt lat="42.770114" lon="1.404945">
        <ele>2004.0</ele>
        <time>2013-08-14T13:52:57Z</time>
      </trkpt>
      <trkpt lat="42.770206" lon="1.404922">
        <ele>2005.4</ele>
        <time>2013-08-14T13:53:09Z</time>
      </trkpt>
      <trkpt lat="42.770299" lon="1.404922">
        <ele>2006.9</ele>
        <time>2013-08-14T13:53:21Z</time>
      </trkpt>
      <trkpt lat="42.770377" lon="1.404880">
        <ele>2009.3</ele>
        <time>2013-08-14T13:53:36Z</time>
      </trkpt>
      <trkpt lat="42.770460" lon="1.404909">
        <ele>2012.7</ele>
        <time>2013-08-14T13:53:52Z</time>
      </trkpt>
      <trkpt lat="42.770550" lon="1.404934">
        <ele>2015.1</ele>
        <time>2013-08-14T13:54:06Z</time>
      </trkpt>
      <trkpt lat="42.770641" lon="1.404939">
        <ele>2017.5</ele>
        <time>2013-08-14T13:54:20Z</time>
      </trkpt>
      <trkpt lat="42.770729" lon="1.404968">
        <ele>2019.4</ele>
        <time>2013-08-14T13:54:34Z</time>
      </trkpt>
      <trkpt lat="42.770819" lon="1.404964">
        <ele>2022.8</ele>
        <time>2013-08-14T13:54:50Z</time>
      </trkpt>
      <trkpt lat="42.770903" lon="1.405034">
        <ele>2024.7</ele>
        <time>2013-08-14T13:55:05Z</time>
      </trkpt>
      <trkpt lat="42.770992" lon="1.405102">
        <ele>2025.2</ele>
        <time>2013-08-14T13:55:17Z</time>
      </trkpt>
      <trkpt lat="42.771074" lon="1.405169">
        <ele>2028.0</ele>
        <time>2013-08-14T13:55:34Z</time>
      </trkpt>
      <trkpt lat="42.771157" lon="1.405213">
        <ele>2031.4</ele>
        <time>2013-08-14T13:56:10Z</time>
      </trkpt>
      <trkpt lat="42.771240" lon="1.405274">
        <ele>2033.8</ele>
        <time>2013-08-14T13:56:25Z</time>
      </trkpt>
      <trkpt lat="42.771310" lon="1.405340">
        <ele>2038.1</ele>
        <time>2013-08-14T13:56:42Z</time>
      </trkpt>
      <trkpt lat="42.771397" lon="1.405382">
        <ele>2039.6</ele>
        <time>2013-08-14T13:56:59Z</time>
      </trkpt>
      <trkpt lat="42.771479" lon="1.405470">
        <ele>2039.1</ele>
        <time>2013-08-14T13:57:16Z</time>
      </trkpt>
      <trkpt lat="42.771558" lon="1.405528">
        <ele>2041.0</ele>
        <time>2013-08-14T13:57:29Z</time>
      </trkpt>
      <trkpt lat="42.771646" lon="1.405579">
        <ele>2044.4</ele>
        <time>2013-08-14T13:57:42Z</time>
      </trkpt>
      <trkpt lat="42.771730" lon="1.405602">
        <ele>2047.8</ele>
        <time>2013-08-14T13:57:55Z</time>
      </trkpt>
      <trkpt lat="42.771815" lon="1.405638">
        <ele>2051.1</ele>
        <time>2013-08-14T13:58:11Z</time>
      </trkpt>
      <trkpt lat="42.771903" lon="1.405615">
        <ele>2051.6</ele>
        <time>2013-08-14T13:58:25Z</time>
      </trkpt>
      <trkpt lat="42.771923" lon="1.405598">
        <ele>2052.6</ele>
        <time>2013-08-14T14:01:24Z</time>
      </trkpt>
      <trkpt lat="42.771993" lon="1.405511">
        <ele>2052.1</ele>
        <time>2013-08-14T14:01:43Z</time>
      </trkpt>
      <trkpt lat="42.772078" lon="1.405447">
        <ele>2050.6</ele>
        <time>2013-08-14T14:01:54Z</time>
      </trkpt>
      <trkpt lat="42.772155" lon="1.405395">
        <ele>2046.8</ele>
        <time>2013-08-14T14:02:04Z</time>
      </trkpt>
      <trkpt lat="42.772225" lon="1.405320">
        <ele>2046.3</ele>
        <time>2013-08-14T14:02:14Z</time>
      </trkpt>
      <trkpt lat="42.772293" lon="1.405245">
        <ele>2044.9</ele>
        <time>2013-08-14T14:02:23Z</time>
      </trkpt>
      <trkpt lat="42.772368" lon="1.405166">
        <ele>2045.3</ele>
        <time>2013-08-14T14:02:33Z</time>
      </trkpt>
      <trkpt lat="42.772471" lon="1.405135">
        <ele>2051.1</ele>
        <time>2013-08-14T14:02:55Z</time>
      </trkpt>
      <trkpt lat="42.772511" lon="1.405028">
        <ele>2052.6</ele>
        <time>2013-08-14T14:03:11Z</time>
      </trkpt>
      <trkpt lat="42.772564" lon="1.404986">
        <ele>2051.6</ele>
        <time>2013-08-14T14:03:27Z</time>
      </trkpt>
      <trkpt lat="42.772633" lon="1.404918">
        <ele>2048.2</ele>
        <time>2013-08-14T14:03:46Z</time>
      </trkpt>
      <trkpt lat="42.772678" lon="1.404840">
        <ele>2047.3</ele>
        <time>2013-08-14T14:04:55Z</time>
      </trkpt>
      <trkpt lat="42.772761" lon="1.404803">
        <ele>2045.8</ele>
        <time>2013-08-14T14:05:09Z</time>
      </trkpt>
      <trkpt lat="42.772828" lon="1.404716">
        <ele>2045.8</ele>
        <time>2013-08-14T14:05:22Z</time>
      </trkpt>
      <trkpt lat="42.772895" lon="1.404736">
        <ele>2043.9</ele>
        <time>2013-08-14T14:05:45Z</time>
      </trkpt>
      <trkpt lat="42.772961" lon="1.404717">
        <ele>2041.5</ele>
        <time>2013-08-14T14:06:24Z</time>
      </trkpt>
      <trkpt lat="42.773041" lon="1.404640">
        <ele>2037.2</ele>
        <time>2013-08-14T14:07:12Z</time>
      </trkpt>
      <trkpt lat="42.773106" lon="1.404638">
        <ele>2033.3</ele>
        <time>2013-08-14T14:07:46Z</time>
      </trkpt>
      <trkpt lat="42.773157" lon="1.404576">
        <ele>2027.6</ele>
        <time>2013-08-14T14:09:47Z</time>
      </trkpt>
      <trkpt lat="42.773221" lon="1.404486">
        <ele>2023.7</ele>
        <time>2013-08-14T14:11:20Z</time>
      </trkpt>
      <trkpt lat="42.773305" lon="1.404440">
        <ele>2020.8</ele>
        <time>2013-08-14T14:11:36Z</time>
      </trkpt>
      <trkpt lat="42.773378" lon="1.404344">
        <ele>2021.8</ele>
        <time>2013-08-14T14:11:48Z</time>
      </trkpt>
      <trkpt lat="42.773462" lon="1.404271">
        <ele>2019.4</ele>
        <time>2013-08-14T14:12:02Z</time>
      </trkpt>
      <trkpt lat="42.773549" lon="1.404262">
        <ele>2014.6</ele>
        <time>2013-08-14T14:12:13Z</time>
      </trkpt>
      <trkpt lat="42.773636" lon="1.404214">
        <ele>2015.5</ele>
        <time>2013-08-14T14:12:24Z</time>
      </trkpt>
      <trkpt lat="42.773712" lon="1.404139">
        <ele>2015.5</ele>
        <time>2013-08-14T14:12:35Z</time>
      </trkpt>
      <trkpt lat="42.773797" lon="1.404152">
        <ele>2012.2</ele>
        <time>2013-08-14T14:12:49Z</time>
      </trkpt>
      <trkpt lat="42.773905" lon="1.404113">
        <ele>2010.7</ele>
        <time>2013-08-14T14:13:14Z</time>
      </trkpt>
      <trkpt lat="42.773974" lon="1.404009">
        <ele>2010.7</ele>
        <time>2013-08-14T14:13:29Z</time>
      </trkpt>
      <trkpt lat="42.774047" lon="1.403996">
        <ele>2006.9</ele>
        <time>2013-08-14T14:13:49Z</time>
      </trkpt>
      <trkpt lat="42.774122" lon="1.404057">
        <ele>2005.0</ele>
        <time>2013-08-14T14:14:51Z</time>
      </trkpt>
      <trkpt lat="42.774215" lon="1.404063">
        <ele>2000.6</ele>
        <time>2013-08-14T14:15:23Z</time>
      </trkpt>
      <trkpt lat="42.774280" lon="1.404065">
        <ele>1997.8</ele>
        <time>2013-08-14T14:15:59Z</time>
      </trkpt>
      <trkpt lat="42.774332" lon="1.404091">
        <ele>1996.8</ele>
        <time>2013-08-14T14:17:20Z</time>
      </trkpt>
      <trkpt lat="42.774398" lon="1.404077">
        <ele>1995.3</ele>
        <time>2013-08-14T14:18:01Z</time>
      </trkpt>
      <trkpt lat="42.774480" lon="1.404035">
        <ele>1996.3</ele>
        <time>2013-08-14T14:18:14Z</time>
      </trkpt>
      <trkpt lat="42.774569" lon="1.403994">
        <ele>1995.3</ele>
        <time>2013-08-14T14:18:29Z</time>
      </trkpt>
      <trkpt lat="42.774659" lon="1.404024">
        <ele>1990.6</ele>
        <time>2013-08-14T14:19:04Z</time>
      </trkpt>
      <trkpt lat="42.774730" lon="1.404087">
        <ele>1985.7</ele>
        <time>2013-08-14T14:19:35Z</time>
      </trkpt>
      <trkpt lat="42.774815" lon="1.404055">
        <ele>1981.9</ele>
        <time>2013-08-14T14:20:07Z</time>
      </trkpt>
      <trkpt lat="42.774900" lon="1.404003">
        <ele>1982.4</ele>
        <time>2013-08-14T14:20:20Z</time>
      </trkpt>
      <trkpt lat="42.774984" lon="1.403983">
        <ele>1982.4</ele>
        <time>2013-08-14T14:20:40Z</time>
      </trkpt>
      <trkpt lat="42.774974" lon="1.403933">
        <ele>1983.3</ele>
        <time>2013-08-14T14:21:04Z</time>
      </trkpt>
      <trkpt lat="42.774983" lon="1.403829">
        <ele>1980.9</ele>
        <time>2013-08-14T14:21:25Z</time>
      </trkpt>
      <trkpt lat="42.775023" lon="1.403775">
        <ele>1977.1</ele>
        <time>2013-08-14T14:21:53Z</time>
      </trkpt>
      <trkpt lat="42.775106" lon="1.403830">
        <ele>1975.2</ele>
        <time>2013-08-14T14:22:16Z</time>
      </trkpt>
      <trkpt lat="42.775188" lon="1.403784">
        <ele>1969.9</ele>
        <time>2013-08-14T14:23:15Z</time>
      </trkpt>
      <trkpt lat="42.775293" lon="1.403742">
        <ele>1968.9</ele>
        <time>2013-08-14T14:23:56Z</time>
      </trkpt>
      <trkpt lat="42.775360" lon="1.403799">
        <ele>1973.7</ele>
        <time>2013-08-14T14:24:39Z</time>
      </trkpt>
      <trkpt lat="42.775420" lon="1.403760">
        <ele>1977.1</ele>
        <time>2013-08-14T14:25:22Z</time>
      </trkpt>
      <trkpt lat="42.775479" lon="1.403710">
        <ele>1978.1</ele>
        <time>2013-08-14T14:25:49Z</time>
      </trkpt>
      <trkpt lat="42.775545" lon="1.403697">
        <ele>1978.1</ele>
        <time>2013-08-14T14:26:55Z</time>
      </trkpt>
      <trkpt lat="42.775647" lon="1.403712">
        <ele>1974.7</ele>
        <time>2013-08-14T14:27:22Z</time>
      </trkpt>
      <trkpt lat="42.775727" lon="1.403728">
        <ele>1971.3</ele>
        <time>2013-08-14T14:27:40Z</time>
      </trkpt>
      <trkpt lat="42.775780" lon="1.403669">
        <ele>1972.8</ele>
        <time>2013-08-14T14:28:06Z</time>
      </trkpt>
      <trkpt lat="42.775881" lon="1.403693">
        <ele>1980.0</ele>
        <time>2013-08-14T14:28:48Z</time>
      </trkpt>
      <trkpt lat="42.775978" lon="1.403764">
        <ele>1981.4</ele>
        <time>2013-08-14T14:29:12Z</time>
      </trkpt>
      <trkpt lat="42.776052" lon="1.403726">
        <ele>1983.8</ele>
        <time>2013-08-14T14:29:42Z</time>
      </trkpt>
      <trkpt lat="42.776136" lon="1.403694">
        <ele>1981.4</ele>
        <time>2013-08-14T14:30:02Z</time>
      </trkpt>
      <trkpt lat="42.776229" lon="1.403658">
        <ele>1984.8</ele>
        <time>2013-08-14T14:30:28Z</time>
      </trkpt>
      <trkpt lat="42.776331" lon="1.403682">
        <ele>1989.1</ele>
        <time>2013-08-14T14:30:51Z</time>
      </trkpt>
      <trkpt lat="42.776433" lon="1.403675">
        <ele>1993.9</ele>
        <time>2013-08-14T14:31:22Z</time>
      </trkpt>
      <trkpt lat="42.776536" lon="1.403687">
        <ele>1998.7</ele>
        <time>2013-08-14T14:32:13Z</time>
      </trkpt>
      <trkpt lat="42.776619" lon="1.403703">
        <ele>2003.0</ele>
        <time>2013-08-14T14:32:49Z</time>
      </trkpt>
      <trkpt lat="42.776686" lon="1.403624">
        <ele>2006.4</ele>
        <time>2013-08-14T14:33:06Z</time>
      </trkpt>
      <trkpt lat="42.776749" lon="1.403560">
        <ele>2005.9</ele>
        <time>2013-08-14T14:34:25Z</time>
      </trkpt>
      <trkpt lat="42.776797" lon="1.403478">
        <ele>2005.9</ele>
        <time>2013-08-14T14:35:06Z</time>
      </trkpt>
      <trkpt lat="42.776844" lon="1.403376">
        <ele>2004.0</ele>
        <time>2013-08-14T14:35:20Z</time>
      </trkpt>
      <trkpt lat="42.776929" lon="1.403326">
        <ele>2004.0</ele>
        <time>2013-08-14T14:35:34Z</time>
      </trkpt>
      <trkpt lat="42.776973" lon="1.403213">
        <ele>2002.6</ele>
        <time>2013-08-14T14:35:49Z</time>
      </trkpt>
      <trkpt lat="42.777034" lon="1.403115">
        <ele>2002.6</ele>
        <time>2013-08-14T14:36:01Z</time>
      </trkpt>
      <trkpt lat="42.777099" lon="1.403040">
        <ele>1998.7</ele>
        <time>2013-08-14T14:36:16Z</time>
      </trkpt>
      <trkpt lat="42.777156" lon="1.402981">
        <ele>1993.4</ele>
        <time>2013-08-14T14:36:30Z</time>
      </trkpt>
      <trkpt lat="42.777218" lon="1.402902">
        <ele>1992.0</ele>
        <time>2013-08-14T14:36:42Z</time>
      </trkpt>
      <trkpt lat="42.777296" lon="1.402841">
        <ele>1990.1</ele>
        <time>2013-08-14T14:37:43Z</time>
      </trkpt>
      <trkpt lat="42.777388" lon="1.402858">
        <ele>1989.6</ele>
        <time>2013-08-14T14:38:32Z</time>
      </trkpt>
      <trkpt lat="42.777454" lon="1.402779">
        <ele>1985.7</ele>
        <time>2013-08-14T14:38:48Z</time>
      </trkpt>
      <trkpt lat="42.777542" lon="1.402815">
        <ele>1988.6</ele>
        <time>2013-08-14T14:39:08Z</time>
      </trkpt>
      <trkpt lat="42.777618" lon="1.402792">
        <ele>1989.6</ele>
        <time>2013-08-14T14:39:33Z</time>
      </trkpt>
      <trkpt lat="42.777709" lon="1.402801">
        <ele>1987.2</ele>
        <time>2013-08-14T14:39:55Z</time>
      </trkpt>
      <trkpt lat="42.777629" lon="1.402727">
        <ele>1983.8</ele>
        <time>2013-08-14T14:40:17Z</time>
      </trkpt>
      <trkpt lat="42.777641" lon="1.402609">
        <ele>1978.1</ele>
        <time>2013-08-14T14:40:38Z</time>
      </trkpt>
      <trkpt lat="42.777732" lon="1.402644">
        <ele>1976.6</ele>
        <time>2013-08-14T14:40:53Z</time>
      </trkpt>
      <trkpt lat="42.777773" lon="1.402721">
        <ele>1976.6</ele>
        <time>2013-08-14T14:41:27Z</time>
      </trkpt>
      <trkpt lat="42.777810" lon="1.402786">
        <ele>1972.8</ele>
        <time>2013-08-14T14:41:43Z</time>
      </trkpt>
      <trkpt lat="42.777875" lon="1.402801">
        <ele>1968.9</ele>
        <time>2013-08-14T14:41:59Z</time>
      </trkpt>
      <trkpt lat="42.777974" lon="1.402838">
        <ele>1966.5</ele>
        <time>2013-08-14T14:42:11Z</time>
      </trkpt>
      <trkpt lat="42.778071" lon="1.402912">
        <ele>1962.7</ele>
        <time>2013-08-14T14:42:25Z</time>
      </trkpt>
      <trkpt lat="42.778136" lon="1.402945">
        <ele>1958.8</ele>
        <time>2013-08-14T14:42:41Z</time>
      </trkpt>
      <trkpt lat="42.778204" lon="1.402984">
        <ele>1955.5</ele>
        <time>2013-08-14T14:43:13Z</time>
      </trkpt>
      <trkpt lat="42.778270" lon="1.402990">
        <ele>1949.7</ele>
        <time>2013-08-14T14:43:29Z</time>
      </trkpt>
      <trkpt lat="42.778350" lon="1.403061">
        <ele>1947.8</ele>
        <time>2013-08-14T14:43:43Z</time>
      </trkpt>
      <trkpt lat="42.778464" lon="1.403122">
        <ele>1944.9</ele>
        <time>2013-08-14T14:43:57Z</time>
      </trkpt>
      <trkpt lat="42.778530" lon="1.403151">
        <ele>1941.5</ele>
        <time>2013-08-14T14:44:09Z</time>
      </trkpt>
      <trkpt lat="42.778617" lon="1.403210">
        <ele>1939.1</ele>
        <time>2013-08-14T14:44:21Z</time>
      </trkpt>
      <trkpt lat="42.778696" lon="1.403271">
        <ele>1935.8</ele>
        <time>2013-08-14T14:44:33Z</time>
      </trkpt>
      <trkpt lat="42.778752" lon="1.403360">
        <ele>1932.4</ele>
        <time>2013-08-14T14:44:47Z</time>
      </trkpt>
      <trkpt lat="42.778832" lon="1.403412">
        <ele>1930.0</ele>
        <time>2013-08-14T14:45:02Z</time>
      </trkpt>
      <trkpt lat="42.778907" lon="1.403479">
        <ele>1927.1</ele>
        <time>2013-08-14T14:45:15Z</time>
      </trkpt>
      <trkpt lat="42.778968" lon="1.403556">
        <ele>1924.2</ele>
        <time>2013-08-14T14:45:29Z</time>
      </trkpt>
      <trkpt lat="42.779017" lon="1.403631">
        <ele>1920.8</ele>
        <time>2013-08-14T14:45:42Z</time>
      </trkpt>
      <trkpt lat="42.779080" lon="1.403715">
        <ele>1918.0</ele>
        <time>2013-08-14T14:45:54Z</time>
      </trkpt>
      <trkpt lat="42.779140" lon="1.403798">
        <ele>1916.5</ele>
        <time>2013-08-14T14:46:04Z</time>
      </trkpt>
      <trkpt lat="42.779194" lon="1.403889">
        <ele>1913.2</ele>
        <time>2013-08-14T14:46:18Z</time>
      </trkpt>
      <trkpt lat="42.779263" lon="1.403914">
        <ele>1910.3</ele>
        <time>2013-08-14T14:46:31Z</time>
      </trkpt>
      <trkpt lat="42.779328" lon="1.404008">
        <ele>1905.9</ele>
        <time>2013-08-14T14:46:45Z</time>
      </trkpt>
      <trkpt lat="42.779389" lon="1.404083">
        <ele>1903.1</ele>
        <time>2013-08-14T14:46:59Z</time>
      </trkpt>
      <trkpt lat="42.779444" lon="1.404200">
        <ele>1900.7</ele>
        <time>2013-08-14T14:47:12Z</time>
      </trkpt>
      <trkpt lat="42.779479" lon="1.404159">
        <ele>1897.3</ele>
        <time>2013-08-14T14:47:29Z</time>
      </trkpt>
      <trkpt lat="42.779522" lon="1.404138">
        <ele>1893.9</ele>
        <time>2013-08-14T14:48:04Z</time>
      </trkpt>
      <trkpt lat="42.779555" lon="1.404040">
        <ele>1888.2</ele>
        <time>2013-08-14T14:48:22Z</time>
      </trkpt>
      <trkpt lat="42.779615" lon="1.403975">
        <ele>1884.8</ele>
        <time>2013-08-14T14:48:40Z</time>
      </trkpt>
      <trkpt lat="42.779691" lon="1.403928">
        <ele>1882.4</ele>
        <time>2013-08-14T14:48:57Z</time>
      </trkpt>
      <trkpt lat="42.779743" lon="1.403918">
        <ele>1876.6</ele>
        <time>2013-08-14T14:49:16Z</time>
      </trkpt>
      <trkpt lat="42.779781" lon="1.403871">
        <ele>1875.2</ele>
        <time>2013-08-14T14:49:29Z</time>
      </trkpt>
      <trkpt lat="42.779838" lon="1.403982">
        <ele>1873.8</ele>
        <time>2013-08-14T14:49:40Z</time>
      </trkpt>
      <trkpt lat="42.779884" lon="1.404017">
        <ele>1868.5</ele>
        <time>2013-08-14T14:49:54Z</time>
      </trkpt>
      <trkpt lat="42.779923" lon="1.403941">
        <ele>1865.1</ele>
        <time>2013-08-14T14:50:08Z</time>
      </trkpt>
      <trkpt lat="42.780006" lon="1.403987">
        <ele>1863.2</ele>
        <time>2013-08-14T14:50:22Z</time>
      </trkpt>
      <trkpt lat="42.780067" lon="1.404082">
        <ele>1859.8</ele>
        <time>2013-08-14T14:50:36Z</time>
      </trkpt>
      <trkpt lat="42.780134" lon="1.404120">
        <ele>1855.5</ele>
        <time>2013-08-14T14:50:52Z</time>
      </trkpt>
      <trkpt lat="42.780178" lon="1.404173">
        <ele>1851.6</ele>
        <time>2013-08-14T14:51:10Z</time>
      </trkpt>
      <trkpt lat="42.780259" lon="1.404118">
        <ele>1848.3</ele>
        <time>2013-08-14T14:51:30Z</time>
      </trkpt>
      <trkpt lat="42.780318" lon="1.404043">
        <ele>1842.5</ele>
        <time>2013-08-14T14:51:48Z</time>
      </trkpt>
      <trkpt lat="42.780371" lon="1.403961">
        <ele>1839.6</ele>
        <time>2013-08-14T14:52:03Z</time>
      </trkpt>
      <trkpt lat="42.780452" lon="1.404104">
        <ele>1837.2</ele>
        <time>2013-08-14T14:52:17Z</time>
      </trkpt>
      <trkpt lat="42.780533" lon="1.404130">
        <ele>1833.4</ele>
        <time>2013-08-14T14:52:33Z</time>
      </trkpt>
      <trkpt lat="42.780601" lon="1.404192">
        <ele>1829.1</ele>
        <time>2013-08-14T14:52:50Z</time>
      </trkpt>
      <trkpt lat="42.780671" lon="1.404113">
        <ele>1823.8</ele>
        <time>2013-08-14T14:53:05Z</time>
      </trkpt>
      <trkpt lat="42.780750" lon="1.404174">
        <ele>1821.8</ele>
        <time>2013-08-14T14:53:17Z</time>
      </trkpt>
      <trkpt lat="42.780836" lon="1.404153">
        <ele>1816.6</ele>
        <time>2013-08-14T14:53:35Z</time>
      </trkpt>
      <trkpt lat="42.780905" lon="1.404194">
        <ele>1814.2</ele>
        <time>2013-08-14T14:53:48Z</time>
      </trkpt>
      <trkpt lat="42.780973" lon="1.404224">
        <ele>1809.8</ele>
        <time>2013-08-14T14:54:02Z</time>
      </trkpt>
      <trkpt lat="42.781078" lon="1.404222">
        <ele>1806.9</ele>
        <time>2013-08-14T14:54:15Z</time>
      </trkpt>
      <trkpt lat="42.781186" lon="1.404260">
        <ele>1803.6</ele>
        <time>2013-08-14T14:54:24Z</time>
      </trkpt>
      <trkpt lat="42.781270" lon="1.404262">
        <ele>1801.7</ele>
        <time>2013-08-14T14:54:34Z</time>
      </trkpt>
      <trkpt lat="42.781342" lon="1.404253">
        <ele>1801.2</ele>
        <time>2013-08-14T14:54:56Z</time>
      </trkpt>
      <trkpt lat="42.781311" lon="1.404234">
        <ele>1797.8</ele>
        <time>2013-08-14T14:57:50Z</time>
      </trkpt>
      <trkpt lat="42.781315" lon="1.404270">
        <ele>1778.6</ele>
        <time>2013-08-14T14:59:57Z</time>
      </trkpt>
      <trkpt lat="42.781353" lon="1.404126">
        <ele>1776.2</ele>
        <time>2013-08-14T15:01:03Z</time>
      </trkpt>
      <trkpt lat="42.781334" lon="1.403991">
        <ele>1773.8</ele>
        <time>2013-08-14T15:01:13Z</time>
      </trkpt>
      <trkpt lat="42.781320" lon="1.403858">
        <ele>1771.4</ele>
        <time>2013-08-14T15:01:21Z</time>
      </trkpt>
      <trkpt lat="42.781341" lon="1.403745">
        <ele>1769.0</ele>
        <time>2013-08-14T15:01:33Z</time>
      </trkpt>
      <trkpt lat="42.781344" lon="1.403622">
        <ele>1767.5</ele>
        <time>2013-08-14T15:01:43Z</time>
      </trkpt>
      <trkpt lat="42.781460" lon="1.403423">
        <ele>1762.2</ele>
        <time>2013-08-14T15:02:12Z</time>
      </trkpt>
      <trkpt lat="42.781437" lon="1.403290">
        <ele>1759.3</ele>
        <time>2013-08-14T15:02:24Z</time>
      </trkpt>
      <trkpt lat="42.781554" lon="1.403087">
        <ele>1753.6</ele>
        <time>2013-08-14T15:02:48Z</time>
      </trkpt>
      <trkpt lat="42.781551" lon="1.402944">
        <ele>1750.2</ele>
        <time>2013-08-14T15:03:00Z</time>
      </trkpt>
      <trkpt lat="42.781511" lon="1.402802">
        <ele>1748.3</ele>
        <time>2013-08-14T15:03:12Z</time>
      </trkpt>
      <trkpt lat="42.781478" lon="1.402680">
        <ele>1746.4</ele>
        <time>2013-08-14T15:03:21Z</time>
      </trkpt>
      <trkpt lat="42.781494" lon="1.402459">
        <ele>1740.6</ele>
        <time>2013-08-14T15:03:39Z</time>
      </trkpt>
      <trkpt lat="42.781456" lon="1.402230">
        <ele>1734.8</ele>
        <time>2013-08-14T15:05:05Z</time>
      </trkpt>
      <trkpt lat="42.781430" lon="1.402100">
        <ele>1734.4</ele>
        <time>2013-08-14T15:05:14Z</time>
      </trkpt>
      <trkpt lat="42.781353" lon="1.401957">
        <ele>1731.9</ele>
        <time>2013-08-14T15:05:24Z</time>
      </trkpt>
      <trkpt lat="42.781299" lon="1.401866">
        <ele>1731.0</ele>
        <time>2013-08-14T15:05:31Z</time>
      </trkpt>
      <trkpt lat="42.781260" lon="1.401796">
        <ele>1729.6</ele>
        <time>2013-08-14T15:05:41Z</time>
      </trkpt>
      <trkpt lat="42.781194" lon="1.401690">
        <ele>1728.1</ele>
        <time>2013-08-14T15:05:50Z</time>
      </trkpt>
      <trkpt lat="42.781160" lon="1.401565">
        <ele>1726.2</ele>
        <time>2013-08-14T15:05:59Z</time>
      </trkpt>
      <trkpt lat="42.781121" lon="1.401426">
        <ele>1723.3</ele>
        <time>2013-08-14T15:06:09Z</time>
      </trkpt>
      <trkpt lat="42.781094" lon="1.401314">
        <ele>1721.4</ele>
        <time>2013-08-14T15:06:19Z</time>
      </trkpt>
      <trkpt lat="42.781167" lon="1.401243">
        <ele>1718.5</ele>
        <time>2013-08-14T15:06:31Z</time>
      </trkpt>
      <trkpt lat="42.781266" lon="1.401284">
        <ele>1715.6</ele>
        <time>2013-08-14T15:06:42Z</time>
      </trkpt>
      <trkpt lat="42.781371" lon="1.401286">
        <ele>1712.7</ele>
        <time>2013-08-14T15:06:53Z</time>
      </trkpt>
      <trkpt lat="42.781371" lon="1.401172">
        <ele>1710.3</ele>
        <time>2013-08-14T15:07:04Z</time>
      </trkpt>
      <trkpt lat="42.781347" lon="1.401058">
        <ele>1706.0</ele>
        <time>2013-08-14T15:07:17Z</time>
      </trkpt>
      <trkpt lat="42.781325" lon="1.400960">
        <ele>1703.1</ele>
        <time>2013-08-14T15:07:29Z</time>
      </trkpt>
      <trkpt lat="42.781253" lon="1.400869">
        <ele>1699.8</ele>
        <time>2013-08-14T15:07:42Z</time>
      </trkpt>
      <trkpt lat="42.781185" lon="1.400760">
        <ele>1696.9</ele>
        <time>2013-08-14T15:07:54Z</time>
      </trkpt>
      <trkpt lat="42.781109" lon="1.400622">
        <ele>1692.5</ele>
        <time>2013-08-14T15:08:14Z</time>
      </trkpt>
      <trkpt lat="42.781026" lon="1.400535">
        <ele>1688.2</ele>
        <time>2013-08-14T15:08:30Z</time>
      </trkpt>
      <trkpt lat="42.780956" lon="1.400418">
        <ele>1685.3</ele>
        <time>2013-08-14T15:08:40Z</time>
      </trkpt>
      <trkpt lat="42.780903" lon="1.400302">
        <ele>1683.4</ele>
        <time>2013-08-14T15:08:50Z</time>
      </trkpt>
      <trkpt lat="42.780859" lon="1.400181">
        <ele>1680.5</ele>
        <time>2013-08-14T15:09:00Z</time>
      </trkpt>
      <trkpt lat="42.780836" lon="1.400059">
        <ele>1677.6</ele>
        <time>2013-08-14T15:09:12Z</time>
      </trkpt>
      <trkpt lat="42.780882" lon="1.400037">
        <ele>1675.2</ele>
        <time>2013-08-14T15:09:24Z</time>
      </trkpt>
      <trkpt lat="42.780977" lon="1.400043">
        <ele>1671.4</ele>
        <time>2013-08-14T15:09:48Z</time>
      </trkpt>
      <trkpt lat="42.781118" lon="1.400061">
        <ele>1670.4</ele>
        <time>2013-08-14T15:10:31Z</time>
      </trkpt>
      <trkpt lat="42.781200" lon="1.400036">
        <ele>1668.0</ele>
        <time>2013-08-14T15:10:43Z</time>
      </trkpt>
      <trkpt lat="42.781294" lon="1.399994">
        <ele>1664.2</ele>
        <time>2013-08-14T15:10:57Z</time>
      </trkpt>
      <trkpt lat="42.781380" lon="1.399933">
        <ele>1661.3</ele>
        <time>2013-08-14T15:11:10Z</time>
      </trkpt>
      <trkpt lat="42.781432" lon="1.399845">
        <ele>1656.5</ele>
        <time>2013-08-14T15:11:26Z</time>
      </trkpt>
      <trkpt lat="42.781536" lon="1.399802">
        <ele>1652.2</ele>
        <time>2013-08-14T15:11:40Z</time>
      </trkpt>
      <trkpt lat="42.781632" lon="1.399740">
        <ele>1649.8</ele>
        <time>2013-08-14T15:11:52Z</time>
      </trkpt>
      <trkpt lat="42.781728" lon="1.399717">
        <ele>1646.4</ele>
        <time>2013-08-14T15:12:06Z</time>
      </trkpt>
      <trkpt lat="42.781781" lon="1.399630">
        <ele>1643.0</ele>
        <time>2013-08-14T15:12:19Z</time>
      </trkpt>
      <trkpt lat="42.781826" lon="1.399539">
        <ele>1640.6</ele>
        <time>2013-08-14T15:12:31Z</time>
      </trkpt>
      <trkpt lat="42.781862" lon="1.399415">
        <ele>1637.7</ele>
        <time>2013-08-14T15:12:43Z</time>
      </trkpt>
      <trkpt lat="42.781900" lon="1.399275">
        <ele>1633.9</ele>
        <time>2013-08-14T15:12:56Z</time>
      </trkpt>
      <trkpt lat="42.781922" lon="1.399131">
        <ele>1630.5</ele>
        <time>2013-08-14T15:13:10Z</time>
      </trkpt>
      <trkpt lat="42.781943" lon="1.399005">
        <ele>1626.2</ele>
        <time>2013-08-14T15:13:23Z</time>
      </trkpt>
      <trkpt lat="42.781973" lon="1.398867">
        <ele>1623.8</ele>
        <time>2013-08-14T15:13:35Z</time>
      </trkpt>
      <trkpt lat="42.782020" lon="1.398747">
        <ele>1620.0</ele>
        <time>2013-08-14T15:13:51Z</time>
      </trkpt>
      <trkpt lat="42.782026" lon="1.398618">
        <ele>1616.1</ele>
        <time>2013-08-14T15:14:08Z</time>
      </trkpt>
      <trkpt lat="42.782052" lon="1.398482">
        <ele>1612.3</ele>
        <time>2013-08-14T15:14:25Z</time>
      </trkpt>
      <trkpt lat="42.782050" lon="1.398403">
        <ele>1609.4</ele>
        <time>2013-08-14T15:14:39Z</time>
      </trkpt>
      <trkpt lat="42.782082" lon="1.398320">
        <ele>1606.0</ele>
        <time>2013-08-14T15:15:19Z</time>
      </trkpt>
      <trkpt lat="42.782102" lon="1.398199">
        <ele>1603.1</ele>
        <time>2013-08-14T15:15:33Z</time>
      </trkpt>
      <trkpt lat="42.782029" lon="1.398128">
        <ele>1599.3</ele>
        <time>2013-08-14T15:15:44Z</time>
      </trkpt>
      <trkpt lat="42.782043" lon="1.397987">
        <ele>1595.4</ele>
        <time>2013-08-14T15:15:55Z</time>
      </trkpt>
      <trkpt lat="42.782075" lon="1.397889">
        <ele>1593.0</ele>
        <time>2013-08-14T15:16:05Z</time>
      </trkpt>
      <trkpt lat="42.782050" lon="1.397785">
        <ele>1589.2</ele>
        <time>2013-08-14T15:16:16Z</time>
      </trkpt>
      <trkpt lat="42.782063" lon="1.397675">
        <ele>1585.8</ele>
        <time>2013-08-14T15:16:28Z</time>
      </trkpt>
      <trkpt lat="42.782096" lon="1.397534">
        <ele>1582.9</ele>
        <time>2013-08-14T15:16:39Z</time>
      </trkpt>
      <trkpt lat="42.782070" lon="1.397433">
        <ele>1579.6</ele>
        <time>2013-08-14T15:16:50Z</time>
      </trkpt>
      <trkpt lat="42.782064" lon="1.397303">
        <ele>1575.7</ele>
        <time>2013-08-14T15:17:01Z</time>
      </trkpt>
      <trkpt lat="42.782057" lon="1.397178">
        <ele>1571.9</ele>
        <time>2013-08-14T15:17:14Z</time>
      </trkpt>
      <trkpt lat="42.781973" lon="1.397096">
        <ele>1569.0</ele>
        <time>2013-08-14T15:17:26Z</time>
      </trkpt>
      <trkpt lat="42.782001" lon="1.396969">
        <ele>1565.6</ele>
        <time>2013-08-14T15:17:38Z</time>
      </trkpt>
      <trkpt lat="42.782025" lon="1.396858">
        <ele>1562.3</ele>
        <time>2013-08-14T15:17:49Z</time>
      </trkpt>
      <trkpt lat="42.782026" lon="1.396722">
        <ele>1559.4</ele>
        <time>2013-08-14T15:17:59Z</time>
      </trkpt>
      <trkpt lat="42.782010" lon="1.396601">
        <ele>1556.5</ele>
        <time>2013-08-14T15:18:09Z</time>
      </trkpt>
      <trkpt lat="42.781986" lon="1.396453">
        <ele>1553.2</ele>
        <time>2013-08-14T15:18:21Z</time>
      </trkpt>
      <trkpt lat="42.781957" lon="1.396353">
        <ele>1551.7</ele>
        <time>2013-08-14T15:18:59Z</time>
      </trkpt>
      <trkpt lat="42.781972" lon="1.396226">
        <ele>1548.8</ele>
        <time>2013-08-14T15:19:08Z</time>
      </trkpt>
      <trkpt lat="42.782030" lon="1.396145">
        <ele>1546.9</ele>
        <time>2013-08-14T15:19:17Z</time>
      </trkpt>
      <trkpt lat="42.782131" lon="1.396110">
        <ele>1545.0</ele>
        <time>2013-08-14T15:19:26Z</time>
      </trkpt>
      <trkpt lat="42.782236" lon="1.396115">
        <ele>1544.5</ele>
        <time>2013-08-14T15:19:35Z</time>
      </trkpt>
      <trkpt lat="42.782331" lon="1.396104">
        <ele>1543.1</ele>
        <time>2013-08-14T15:19:44Z</time>
      </trkpt>
      <trkpt lat="42.782422" lon="1.396059">
        <ele>1542.6</ele>
        <time>2013-08-14T15:19:52Z</time>
      </trkpt>
      <trkpt lat="42.782510" lon="1.396042">
        <ele>1541.1</ele>
        <time>2013-08-14T15:20:01Z</time>
      </trkpt>
      <trkpt lat="42.782599" lon="1.396019">
        <ele>1539.2</ele>
        <time>2013-08-14T15:20:10Z</time>
      </trkpt>
      <trkpt lat="42.782681" lon="1.395979">
        <ele>1538.7</ele>
        <time>2013-08-14T15:20:18Z</time>
      </trkpt>
      <trkpt lat="42.782761" lon="1.395940">
        <ele>1537.3</ele>
        <time>2013-08-14T15:20:27Z</time>
      </trkpt>
      <trkpt lat="42.782812" lon="1.395839">
        <ele>1534.9</ele>
        <time>2013-08-14T15:20:37Z</time>
      </trkpt>
      <trkpt lat="42.782852" lon="1.395722">
        <ele>1532.0</ele>
        <time>2013-08-14T15:20:50Z</time>
      </trkpt>
      <trkpt lat="42.782861" lon="1.395571">
        <ele>1528.6</ele>
        <time>2013-08-14T15:21:02Z</time>
      </trkpt>
      <trkpt lat="42.782863" lon="1.395437">
        <ele>1525.3</ele>
        <time>2013-08-14T15:21:13Z</time>
      </trkpt>
      <trkpt lat="42.782786" lon="1.395376">
        <ele>1524.8</ele>
        <time>2013-08-14T15:21:23Z</time>
      </trkpt>
      <trkpt lat="42.782694" lon="1.395392">
        <ele>1523.8</ele>
        <time>2013-08-14T15:21:32Z</time>
      </trkpt>
      <trkpt lat="42.782603" lon="1.395427">
        <ele>1521.9</ele>
        <time>2013-08-14T15:21:42Z</time>
      </trkpt>
      <trkpt lat="42.782444" lon="1.395289">
        <ele>1521.4</ele>
        <time>2013-08-14T15:21:59Z</time>
      </trkpt>
      <trkpt lat="42.782353" lon="1.395380">
        <ele>1520.0</ele>
        <time>2013-08-14T15:22:10Z</time>
      </trkpt>
      <trkpt lat="42.782264" lon="1.395247">
        <ele>1515.7</ele>
        <time>2013-08-14T15:22:29Z</time>
      </trkpt>
      <trkpt lat="42.782139" lon="1.395113">
        <ele>1514.7</ele>
        <time>2013-08-14T15:22:41Z</time>
      </trkpt>
      <trkpt lat="42.781950" lon="1.395119">
        <ele>1513.2</ele>
        <time>2013-08-14T15:22:55Z</time>
      </trkpt>
      <trkpt lat="42.781772" lon="1.395148">
        <ele>1511.8</ele>
        <time>2013-08-14T15:23:08Z</time>
      </trkpt>
      <trkpt lat="42.781638" lon="1.395184">
        <ele>1510.4</ele>
        <time>2013-08-14T15:23:19Z</time>
      </trkpt>
      <trkpt lat="42.781563" lon="1.395237">
        <ele>1508.9</ele>
        <time>2013-08-14T15:23:32Z</time>
      </trkpt>
      <trkpt lat="42.781502" lon="1.395337">
        <ele>1508.9</ele>
        <time>2013-08-14T15:23:41Z</time>
      </trkpt>
      <trkpt lat="42.781438" lon="1.395432">
        <ele>1508.0</ele>
        <time>2013-08-14T15:23:51Z</time>
      </trkpt>
      <trkpt lat="42.781341" lon="1.395408">
        <ele>1507.5</ele>
        <time>2013-08-14T15:23:59Z</time>
      </trkpt>
      <trkpt lat="42.781237" lon="1.395389">
        <ele>1505.6</ele>
        <time>2013-08-14T15:24:08Z</time>
      </trkpt>
      <trkpt lat="42.781140" lon="1.395338">
        <ele>1505.1</ele>
        <time>2013-08-14T15:24:18Z</time>
      </trkpt>
      <trkpt lat="42.781057" lon="1.395238">
        <ele>1504.1</ele>
        <time>2013-08-14T15:24:26Z</time>
      </trkpt>
      <trkpt lat="42.780992" lon="1.395142">
        <ele>1503.6</ele>
        <time>2013-08-14T15:24:34Z</time>
      </trkpt>
      <trkpt lat="42.780918" lon="1.395055">
        <ele>1502.7</ele>
        <time>2013-08-14T15:24:42Z</time>
      </trkpt>
      <trkpt lat="42.780851" lon="1.394953">
        <ele>1501.2</ele>
        <time>2013-08-14T15:24:50Z</time>
      </trkpt>
      <trkpt lat="42.780837" lon="1.394815">
        <ele>1500.3</ele>
        <time>2013-08-14T15:24:58Z</time>
      </trkpt>
      <trkpt lat="42.780839" lon="1.394678">
        <ele>1499.3</ele>
        <time>2013-08-14T15:25:07Z</time>
      </trkpt>
      <trkpt lat="42.780841" lon="1.394547">
        <ele>1497.4</ele>
        <time>2013-08-14T15:25:15Z</time>
      </trkpt>
      <trkpt lat="42.780847" lon="1.394435">
        <ele>1496.4</ele>
        <time>2013-08-14T15:25:22Z</time>
      </trkpt>
      <trkpt lat="42.780853" lon="1.394305">
        <ele>1495.0</ele>
        <time>2013-08-14T15:25:30Z</time>
      </trkpt>
      <trkpt lat="42.780876" lon="1.394189">
        <ele>1494.5</ele>
        <time>2013-08-14T15:25:38Z</time>
      </trkpt>
      <trkpt lat="42.780883" lon="1.394048">
        <ele>1493.6</ele>
        <time>2013-08-14T15:25:46Z</time>
      </trkpt>
      <trkpt lat="42.780870" lon="1.393921">
        <ele>1492.6</ele>
        <time>2013-08-14T15:25:54Z</time>
      </trkpt>
      <trkpt lat="42.780877" lon="1.393781">
        <ele>1491.1</ele>
        <time>2013-08-14T15:26:02Z</time>
      </trkpt>
      <trkpt lat="42.780868" lon="1.393645">
        <ele>1489.2</ele>
        <time>2013-08-14T15:26:10Z</time>
      </trkpt>
      <trkpt lat="42.780846" lon="1.393501">
        <ele>1489.7</ele>
        <time>2013-08-14T15:26:18Z</time>
      </trkpt>
      <trkpt lat="42.780867" lon="1.393376">
        <ele>1486.8</ele>
        <time>2013-08-14T15:26:26Z</time>
      </trkpt>
      <trkpt lat="42.780871" lon="1.393258">
        <ele>1486.3</ele>
        <time>2013-08-14T15:26:33Z</time>
      </trkpt>
      <trkpt lat="42.780880" lon="1.393145">
        <ele>1486.3</ele>
        <time>2013-08-14T15:26:40Z</time>
      </trkpt>
      <trkpt lat="42.780877" lon="1.393010">
        <ele>1485.4</ele>
        <time>2013-08-14T15:26:48Z</time>
      </trkpt>
      <trkpt lat="42.780889" lon="1.392889">
        <ele>1484.9</ele>
        <time>2013-08-14T15:26:55Z</time>
      </trkpt>
      <trkpt lat="42.780979" lon="1.392815">
        <ele>1483.4</ele>
        <time>2013-08-14T15:27:04Z</time>
      </trkpt>
      <trkpt lat="42.781079" lon="1.392752">
        <ele>1481.5</ele>
        <time>2013-08-14T15:27:15Z</time>
      </trkpt>
      <trkpt lat="42.781204" lon="1.392719">
        <ele>1480.1</ele>
        <time>2013-08-14T15:27:25Z</time>
      </trkpt>
      <trkpt lat="42.781311" lon="1.392706">
        <ele>1480.1</ele>
        <time>2013-08-14T15:27:34Z</time>
      </trkpt>
      <trkpt lat="42.781390" lon="1.392658">
        <ele>1477.7</ele>
        <time>2013-08-14T15:27:44Z</time>
      </trkpt>
      <trkpt lat="42.781455" lon="1.392552">
        <ele>1475.3</ele>
        <time>2013-08-14T15:27:54Z</time>
      </trkpt>
      <trkpt lat="42.781516" lon="1.392451">
        <ele>1472.4</ele>
        <time>2013-08-14T15:28:04Z</time>
      </trkpt>
      <trkpt lat="42.781551" lon="1.392354">
        <ele>1469.5</ele>
        <time>2013-08-14T15:28:14Z</time>
      </trkpt>
      <trkpt lat="42.781483" lon="1.392251">
        <ele>1468.6</ele>
        <time>2013-08-14T15:28:22Z</time>
      </trkpt>
      <trkpt lat="42.781430" lon="1.392143">
        <ele>1467.1</ele>
        <time>2013-08-14T15:28:30Z</time>
      </trkpt>
      <trkpt lat="42.781402" lon="1.392003">
        <ele>1465.7</ele>
        <time>2013-08-14T15:28:38Z</time>
      </trkpt>
      <trkpt lat="42.781420" lon="1.391866">
        <ele>1464.7</ele>
        <time>2013-08-14T15:28:46Z</time>
      </trkpt>
      <trkpt lat="42.781432" lon="1.391741">
        <ele>1463.7</ele>
        <time>2013-08-14T15:28:54Z</time>
      </trkpt>
      <trkpt lat="42.781431" lon="1.391600">
        <ele>1461.8</ele>
        <time>2013-08-14T15:29:03Z</time>
      </trkpt>
      <trkpt lat="42.781415" lon="1.391456">
        <ele>1460.9</ele>
        <time>2013-08-14T15:29:11Z</time>
      </trkpt>
      <trkpt lat="42.781379" lon="1.391313">
        <ele>1459.9</ele>
        <time>2013-08-14T15:29:20Z</time>
      </trkpt>
      <trkpt lat="42.781336" lon="1.391187">
        <ele>1458.0</ele>
        <time>2013-08-14T15:29:28Z</time>
      </trkpt>
      <trkpt lat="42.781269" lon="1.391070">
        <ele>1457.0</ele>
        <time>2013-08-14T15:29:38Z</time>
      </trkpt>
      <trkpt lat="42.781224" lon="1.390951">
        <ele>1455.6</ele>
        <time>2013-08-14T15:29:50Z</time>
      </trkpt>
      <trkpt lat="42.781181" lon="1.390825">
        <ele>1454.1</ele>
        <time>2013-08-14T15:29:59Z</time>
      </trkpt>
      <trkpt lat="42.781147" lon="1.390687">
        <ele>1452.7</ele>
        <time>2013-08-14T15:30:08Z</time>
      </trkpt>
      <trkpt lat="42.781110" lon="1.390559">
        <ele>1451.2</ele>
        <time>2013-08-14T15:30:17Z</time>
      </trkpt>
      <trkpt lat="42.781059" lon="1.390437">
        <ele>1450.3</ele>
        <time>2013-08-14T15:30:27Z</time>
      </trkpt>
      <trkpt lat="42.781024" lon="1.390290">
        <ele>1449.3</ele>
        <time>2013-08-14T15:30:38Z</time>
      </trkpt>
      <trkpt lat="42.781023" lon="1.390150">
        <ele>1448.4</ele>
        <time>2013-08-14T15:30:47Z</time>
      </trkpt>
      <trkpt lat="42.781033" lon="1.390014">
        <ele>1446.0</ele>
        <time>2013-08-14T15:30:55Z</time>
      </trkpt>
      <trkpt lat="42.781050" lon="1.389878">
        <ele>1445.5</ele>
        <time>2013-08-14T15:31:04Z</time>
      </trkpt>
      <trkpt lat="42.781139" lon="1.389799">
        <ele>1444.0</ele>
        <time>2013-08-14T15:31:13Z</time>
      </trkpt>
      <trkpt lat="42.781220" lon="1.389718">
        <ele>1442.6</ele>
        <time>2013-08-14T15:31:21Z</time>
      </trkpt>
      <trkpt lat="42.781304" lon="1.389641">
        <ele>1441.2</ele>
        <time>2013-08-14T15:31:29Z</time>
      </trkpt>
      <trkpt lat="42.781379" lon="1.389574">
        <ele>1441.2</ele>
        <time>2013-08-14T15:31:37Z</time>
      </trkpt>
      <trkpt lat="42.781476" lon="1.389489">
        <ele>1439.7</ele>
        <time>2013-08-14T15:31:46Z</time>
      </trkpt>
      <trkpt lat="42.781561" lon="1.389394">
        <ele>1438.3</ele>
        <time>2013-08-14T15:31:54Z</time>
      </trkpt>
      <trkpt lat="42.781646" lon="1.389329">
        <ele>1437.8</ele>
        <time>2013-08-14T15:32:02Z</time>
      </trkpt>
      <trkpt lat="42.781717" lon="1.389246">
        <ele>1436.3</ele>
        <time>2013-08-14T15:32:10Z</time>
      </trkpt>
      <trkpt lat="42.781798" lon="1.389145">
        <ele>1434.4</ele>
        <time>2013-08-14T15:32:19Z</time>
      </trkpt>
      <trkpt lat="42.781892" lon="1.389079">
        <ele>1434.9</ele>
        <time>2013-08-14T15:32:27Z</time>
      </trkpt>
      <trkpt lat="42.781962" lon="1.388990">
        <ele>1433.5</ele>
        <time>2013-08-14T15:32:36Z</time>
      </trkpt>
      <trkpt lat="42.782032" lon="1.388878">
        <ele>1431.5</ele>
        <time>2013-08-14T15:32:46Z</time>
      </trkpt>
      <trkpt lat="42.782099" lon="1.388748">
        <ele>1431.5</ele>
        <time>2013-08-14T15:32:55Z</time>
      </trkpt>
      <trkpt lat="42.782159" lon="1.388613">
        <ele>1430.6</ele>
        <time>2013-08-14T15:33:04Z</time>
      </trkpt>
      <trkpt lat="42.782193" lon="1.388504">
        <ele>1429.1</ele>
        <time>2013-08-14T15:33:12Z</time>
      </trkpt>
      <trkpt lat="42.782282" lon="1.388430">
        <ele>1427.7</ele>
        <time>2013-08-14T15:33:21Z</time>
      </trkpt>
      <trkpt lat="42.782385" lon="1.388401">
        <ele>1427.2</ele>
        <time>2013-08-14T15:33:30Z</time>
      </trkpt>
      <trkpt lat="42.782485" lon="1.388364">
        <ele>1425.8</ele>
        <time>2013-08-14T15:33:40Z</time>
      </trkpt>
      <trkpt lat="42.782600" lon="1.388338">
        <ele>1424.3</ele>
        <time>2013-08-14T15:33:50Z</time>
      </trkpt>
      <trkpt lat="42.782721" lon="1.388314">
        <ele>1422.9</ele>
        <time>2013-08-14T15:34:00Z</time>
      </trkpt>
      <trkpt lat="42.782827" lon="1.388261">
        <ele>1421.0</ele>
        <time>2013-08-14T15:34:09Z</time>
      </trkpt>
      <trkpt lat="42.782904" lon="1.388133">
        <ele>1419.5</ele>
        <time>2013-08-14T15:34:21Z</time>
      </trkpt>
      <trkpt lat="42.782947" lon="1.387992">
        <ele>1417.6</ele>
        <time>2013-08-14T15:34:31Z</time>
      </trkpt>
      <trkpt lat="42.782981" lon="1.387824">
        <ele>1416.2</ele>
        <time>2013-08-14T15:34:41Z</time>
      </trkpt>
      <trkpt lat="42.783010" lon="1.387681">
        <ele>1414.7</ele>
        <time>2013-08-14T15:34:51Z</time>
      </trkpt>
      <trkpt lat="42.783037" lon="1.387517">
        <ele>1413.3</ele>
        <time>2013-08-14T15:35:03Z</time>
      </trkpt>
      <trkpt lat="42.783060" lon="1.387350">
        <ele>1411.8</ele>
        <time>2013-08-14T15:35:15Z</time>
      </trkpt>
      <trkpt lat="42.783080" lon="1.387136">
        <ele>1409.9</ele>
        <time>2013-08-14T15:35:33Z</time>
      </trkpt>
      <trkpt lat="42.783080" lon="1.386969">
        <ele>1408.0</ele>
        <time>2013-08-14T15:35:46Z</time>
      </trkpt>
      <trkpt lat="42.783123" lon="1.386796">
        <ele>1405.6</ele>
        <time>2013-08-14T15:35:57Z</time>
      </trkpt>
      <trkpt lat="42.783158" lon="1.386654">
        <ele>1405.1</ele>
        <time>2013-08-14T15:36:07Z</time>
      </trkpt>
      <trkpt lat="42.783161" lon="1.386510">
        <ele>1404.1</ele>
        <time>2013-08-14T15:36:19Z</time>
      </trkpt>
    </trkseg>
  </trk>
</gpx>

